[[{"header":{"parameterUnit":"m.s-1","parameterCategory":1,"la1":30.6,"la2":29.2853,"lo1":-89.7004,"lo2":-87.6739,"dy":0.0162,"dx":0.0183,"nx":112,"ny":82,"refTime":"2023-04-04T12:00:00:Z","depth":0,"parameterNumber":2,"parameterNumberName":"U-component_of_WINDS"},"data":[0.0,0.0,0.0,0.0,0.0,0.0,0.0,0.0,0.0,0.0,0.0,0.0,0.0,0.0,0.0,0.0,0.0,0.0,0.0,0.0,0.0,0.0,0.0,0.0,0.0,0.0,0.0,0.0,0.0,0.0,0.0,0.0,0.0,0.0,0.0,0.0,0.0,0.0,0.0,0.0,0.0,0.0,0.0,0.0,0.0,0.0,0.0,0.0,0.0,0.0,0.0,0.0,0.0,0.0,0.0,0.0,0.0,0.0,0.0,0.0,0.0,0.0,0.0,0.0,0.0,0.0,0.0,0.0,0.0,0.0,0.0,0.0,0.0,0.0,0.0,0.0,0.0,0.0,0.0,0.0,0.0,0.0,0.0,0.0,0.0,0.0,0.0,0.0,0.0,0.0,-3.5811,-3.7398,-3.7792,-3.7949,-3.7949,-3.7966,-3.7281,-3.566,0.0,0.0,0.0,0.0,0.0,0.0,0.0,0.0,0.0,0.0,0.0,0.0,0.0,0.0,0.0,0.0,0.0,0.0,0.0,0.0,0.0,0.0,0.0,0.0,0.0,0.0,0.0,0.0,0.0,0.0,0.0,0.0,0.0,0.0,0.0,0.0,0.0,0.0,0.0,0.0,0.0,0.0,0.0,0.0,0.0,0.0,0.0,0.0,0.0,0.0,0.0,0.0,0.0,0.0,0.0,0.0,0.0,0.0,0.0,0.0,0.0,0.0,0.0,0.0,0.0,0.0,0.0,0.0,0.0,0.0,0.0,0.0,0.0,0.0,0.0,0.0,0.0,0.0,0.0,0.0,0.0,0.0,0.0,0.0,0.0,0.0,0.0,0.0,0.0,0.0,0.0,0.0,0.0,0.0,0.0,0.0,0.0,0.0,0.0,0.0,0.0,0.0,0.0,0.0,-3.5471,-3.7233,-3.7613,-3.7757,-3.7757,-3.7846,-3.7198,-3.555,0.0,0.0,0.0,0.0,0.0,0.0,0.0,0.0,0.0,0.0,0.0,0.0,0.0,0.0,0.0,0.0,0.0,0.0,0.0,0.0,0.0,0.0,0.0,0.0,0.0,0.0,0.0,0.0,0.0,0.0,0.0,0.0,0.0,0.0,0.0,0.0,0.0,0.0,0.0,0.0,0.0,0.0,0.0,0.0,0.0,0.0,0.0,0.0,0.0,0.0,0.0,0.0,0.0,0.0,0.0,0.0,0.0,0.0,0.0,0.0,0.0,0.0,0.0,0.0,0.0,0.0,0.0,0.0,0.0,0.0,0.0,0.0,0.0,0.0,0.0,0.0,0.0,0.0,0.0,0.0,0.0,0.0,0.0,0.0,0.0,0.0,0.0,0.0,0.0,0.0,0.0,0.0,0.0,0.0,0.0,0.0,0.0,0.0,0.0,0.0,0.0,0.0,0.0,-3.5294,-3.6197,-3.7133,-3.7318,-3.7411,-3.7485,-3.7539,-3.6862,-3.5172,-3.5101,0.0,0.0,0.0,0.0,0.0,0.0,0.0,0.0,0.0,0.0,0.0,0.0,0.0,0.0,0.0,0.0,0.0,0.0,0.0,0.0,0.0,0.0,0.0,0.0,0.0,0.0,0.0,0.0,0.0,0.0,0.0,0.0,0.0,0.0,0.0,0.0,0.0,0.0,0.0,0.0,0.0,0.0,0.0,0.0,0.0,0.0,0.0,0.0,0.0,0.0,0.0,0.0,0.0,0.0,0.0,0.0,0.0,0.0,0.0,0.0,0.0,0.0,0.0,0.0,0.0,0.0,0.0,0.0,0.0,0.0,0.0,0.0,0.0,0.0,0.0,0.0,0.0,0.0,0.0,0.0,0.0,0.0,0.0,0.0,0.0,0.0,0.0,0.0,0.0,0.0,0.0,0.0,0.0,0.0,0.0,0.0,0.0,0.0,0.0,0.0,0.0,0.0,-3.569,-3.6751,-3.6933,-3.6954,-3.7031,-3.7182,-3.7201,-3.6511,-3.4813,-3.4725,0.0,0.0,0.0,0.0,0.0,0.0,0.0,0.0,0.0,0.0,0.0,0.0,0.0,0.0,0.0,0.0,0.0,0.0,0.0,0.0,0.0,0.0,0.0,0.0,0.0,0.0,0.0,0.0,0.0,0.0,0.0,0.0,0.0,0.0,0.0,0.0,0.0,0.0,0.0,0.0,0.0,0.0,0.0,0.0,0.0,0.0,0.0,0.0,0.0,0.0,0.0,0.0,0.0,0.0,0.0,0.0,0.0,0.0,0.0,0.0,0.0,0.0,0.0,0.0,0.0,0.0,0.0,0.0,0.0,0.0,0.0,0.0,0.0,0.0,0.0,0.0,0.0,0.0,0.0,0.0,0.0,0.0,0.0,0.0,0.0,0.0,0.0,0.0,0.0,0.0,0.0,0.0,0.0,0.0,0.0,0.0,0.0,0.0,0.0,0.0,0.0,0.0,-3.5349,-3.6385,-3.6544,-3.6591,-3.6693,-3.6811,-3.6948,-3.6282,-3.4549,-3.4425,0.0,0.0,0.0,0.0,0.0,0.0,0.0,0.0,0.0,0.0,0.0,0.0,0.0,0.0,0.0,0.0,0.0,0.0,0.0,0.0,0.0,0.0,0.0,0.0,0.0,0.0,0.0,0.0,0.0,0.0,0.0,0.0,0.0,0.0,0.0,0.0,0.0,0.0,0.0,0.0,0.0,0.0,0.0,0.0,0.0,0.0,0.0,0.0,0.0,0.0,0.0,0.0,0.0,0.0,0.0,0.0,0.0,0.0,0.0,0.0,0.0,0.0,0.0,0.0,0.0,0.0,0.0,0.0,0.0,0.0,0.0,0.0,0.0,0.0,0.0,0.0,0.0,0.0,0.0,0.0,0.0,0.0,0.0,0.0,0.0,0.0,0.0,0.0,0.0,0.0,0.0,0.0,0.0,0.0,0.0,0.0,0.0,0.0,0.0,0.0,0.0,0.0,-3.4865,-3.5915,-3.6045,-3.6088,-3.6135,-3.6224,-3.5894,-3.5183,-3.3985,0.0,0.0,0.0,0.0,0.0,0.0,0.0,0.0,0.0,0.0,0.0,0.0,0.0,0.0,0.0,0.0,0.0,0.0,0.0,0.0,0.0,0.0,0.0,0.0,0.0,0.0,0.0,0.0,0.0,0.0,0.0,0.0,0.0,0.0,0.0,0.0,0.0,0.0,0.0,0.0,0.0,0.0,0.0,0.0,0.0,0.0,0.0,0.0,0.0,0.0,0.0,0.0,0.0,0.0,0.0,0.0,0.0,0.0,0.0,0.0,0.0,0.0,0.0,0.0,0.0,0.0,0.0,0.0,0.0,0.0,0.0,0.0,0.0,0.0,0.0,0.0,0.0,0.0,0.0,0.0,0.0,0.0,0.0,0.0,0.0,0.0,0.0,0.0,0.0,0.0,0.0,0.0,0.0,0.0,0.0,0.0,0.0,0.0,0.0,0.0,0.0,0.0,-3.2983,-3.4382,-3.5441,-3.556,-3.5583,-3.5588,-3.5666,-3.5069,-3.4313,-3.3436,0.0,0.0,0.0,0.0,0.0,0.0,0.0,0.0,0.0,0.0,0.0,0.0,0.0,0.0,0.0,0.0,0.0,0.0,0.0,0.0,0.0,0.0,0.0,0.0,0.0,0.0,0.0,0.0,0.0,0.0,0.0,0.0,0.0,0.0,0.0,0.0,0.0,0.0,0.0,0.0,0.0,0.0,0.0,0.0,0.0,0.0,0.0,0.0,0.0,0.0,0.0,0.0,0.0,0.0,0.0,0.0,0.0,0.0,0.0,0.0,0.0,0.0,0.0,0.0,0.0,0.0,0.0,0.0,0.0,0.0,0.0,0.0,0.0,0.0,0.0,0.0,0.0,0.0,0.0,0.0,0.0,0.0,0.0,0.0,0.0,0.0,0.0,0.0,0.0,0.0,0.0,0.0,0.0,0.0,0.0,0.0,0.0,0.0,0.0,0.0,0.0,0.0,-3.2478,-3.3879,-3.4947,-3.5065,-3.5105,-3.5135,-3.5178,-3.4577,-3.3818,0.0,0.0,0.0,0.0,0.0,0.0,0.0,0.0,0.0,0.0,0.0,0.0,0.0,0.0,0.0,0.0,0.0,0.0,0.0,0.0,0.0,0.0,0.0,0.0,0.0,0.0,0.0,0.0,0.0,0.0,0.0,0.0,0.0,0.0,0.0,0.0,0.0,0.0,0.0,0.0,0.0,0.0,0.0,0.0,0.0,0.0,0.0,0.0,0.0,0.0,0.0,0.0,0.0,0.0,0.0,0.0,0.0,0.0,0.0,0.0,0.0,0.0,0.0,0.0,0.0,0.0,0.0,0.0,0.0,0.0,0.0,0.0,0.0,0.0,0.0,0.0,0.0,0.0,0.0,0.0,0.0,0.0,0.0,0.0,0.0,0.0,0.0,0.0,0.0,0.0,0.0,0.0,0.0,0.0,0.0,0.0,0.0,0.0,0.0,0.0,0.0,0.0,0.0,-3.1987,-3.3283,-3.425,-3.4374,-3.4399,-3.4382,-3.4431,-3.3761,-3.3041,-3.2308,0.0,0.0,0.0,0.0,0.0,0.0,0.0,0.0,0.0,0.0,0.0,0.0,0.0,0.0,0.0,0.0,0.0,0.0,0.0,0.0,0.0,0.0,0.0,0.0,0.0,0.0,0.0,0.0,0.0,0.0,0.0,0.0,0.0,0.0,0.0,0.0,0.0,0.0,0.0,0.0,0.0,0.0,0.0,0.0,0.0,0.0,0.0,0.0,0.0,0.0,0.0,0.0,0.0,0.0,0.0,0.0,0.0,0.0,0.0,0.0,0.0,0.0,0.0,0.0,0.0,0.0,0.0,0.0,0.0,0.0,0.0,0.0,0.0,0.0,0.0,0.0,0.0,0.0,0.0,0.0,0.0,0.0,0.0,0.0,0.0,0.0,0.0,0.0,0.0,0.0,0.0,0.0,0.0,0.0,0.0,0.0,0.0,0.0,0.0,0.0,0.0,0.0,-3.1299,-3.2555,-3.3481,-3.3585,-3.3585,-3.3585,-3.3585,-3.2921,-3.2235,-3.1573,0.0,0.0,0.0,0.0,0.0,0.0,0.0,0.0,0.0,0.0,0.0,0.0,0.0,0.0,0.0,0.0,0.0,0.0,0.0,0.0,0.0,0.0,0.0,0.0,0.0,0.0,0.0,0.0,0.0,0.0,0.0,0.0,0.0,0.0,0.0,0.0,0.0,0.0,0.0,0.0,0.0,0.0,0.0,0.0,0.0,0.0,0.0,0.0,0.0,0.0,0.0,0.0,0.0,0.0,0.0,0.0,0.0,0.0,0.0,0.0,0.0,0.0,0.0,0.0,0.0,0.0,0.0,0.0,0.0,0.0,0.0,0.0,0.0,0.0,0.0,0.0,0.0,0.0,0.0,0.0,0.0,0.0,0.0,0.0,0.0,0.0,0.0,0.0,0.0,0.0,0.0,0.0,0.0,0.0,0.0,0.0,0.0,0.0,0.0,0.0,0.0,0.0,-3.0598,-3.1834,-3.2707,-3.2707,-3.2707,-3.2707,-3.2707,-3.2162,-3.1514,-3.0855,0.0,0.0,0.0,0.0,0.0,0.0,0.0,0.0,0.0,0.0,0.0,0.0,0.0,0.0,0.0,0.0,0.0,0.0,0.0,0.0,0.0,0.0,0.0,0.0,0.0,0.0,0.0,0.0,0.0,0.0,0.0,0.0,0.0,0.0,0.0,0.0,0.0,0.0,0.0,0.0,0.0,0.0,0.0,0.0,0.0,0.0,0.0,0.0,0.0,0.0,0.0,0.0,0.0,0.0,0.0,0.0,0.0,0.0,0.0,0.0,-3.7157,-3.7012,0.0,0.0,0.0,0.0,0.0,0.0,0.0,0.0,0.0,0.0,0.0,0.0,0.0,0.0,0.0,0.0,0.0,0.0,0.0,0.0,0.0,0.0,0.0,0.0,0.0,0.0,0.0,0.0,0.0,0.0,0.0,0.0,0.0,0.0,0.0,0.0,0.0,0.0,0.0,0.0,-3.0594,-3.1407,-3.1964,-3.2089,-3.2089,-3.2089,-3.2089,-3.1967,-3.1573,-3.0929,-3.0042,0.0,0.0,0.0,0.0,0.0,0.0,0.0,0.0,0.0,0.0,0.0,0.0,0.0,0.0,0.0,0.0,0.0,0.0,0.0,0.0,0.0,0.0,0.0,0.0,0.0,0.0,0.0,0.0,0.0,0.0,0.0,0.0,0.0,0.0,0.0,0.0,0.0,0.0,0.0,0.0,0.0,0.0,0.0,0.0,0.0,0.0,0.0,0.0,0.0,0.0,0.0,0.0,0.0,0.0,0.0,0.0,0.0,0.0,0.0,-3.7056,-3.7208,0.0,0.0,0.0,0.0,0.0,0.0,0.0,0.0,0.0,0.0,0.0,0.0,0.0,0.0,0.0,0.0,0.0,0.0,0.0,0.0,0.0,0.0,0.0,0.0,0.0,0.0,0.0,0.0,0.0,0.0,0.0,0.0,0.0,0.0,0.0,0.0,0.0,0.0,0.0,0.0,-2.9869,-3.0529,-3.0955,-3.1028,-3.1028,-3.1028,-3.1028,-3.1028,-3.0748,-3.007,-2.9575,0.0,0.0,0.0,0.0,0.0,0.0,0.0,0.0,0.0,0.0,0.0,0.0,0.0,0.0,0.0,0.0,0.0,0.0,0.0,0.0,0.0,0.0,0.0,0.0,0.0,0.0,0.0,0.0,0.0,0.0,0.0,0.0,0.0,0.0,0.0,0.0,0.0,0.0,0.0,0.0,0.0,0.0,0.0,0.0,0.0,0.0,0.0,0.0,0.0,0.0,0.0,0.0,0.0,-3.6633,-3.6633,-3.6633,-3.6555,-3.6497,-3.6533,-3.719,-3.7515,-3.7515,-3.7549,0.0,0.0,0.0,0.0,0.0,0.0,0.0,0.0,0.0,0.0,0.0,0.0,0.0,0.0,0.0,0.0,0.0,0.0,0.0,0.0,0.0,0.0,-2.9775,-2.9503,-2.9375,-2.943,-2.9899,0.0,0.0,0.0,0.0,0.0,0.0,0.0,0.0,0.0,0.0,0.0,-2.9073,-2.9572,-2.9915,-2.9915,-2.9915,-2.9915,-2.9915,-2.9915,-2.9688,-2.9116,-2.8958,-2.8375,0.0,0.0,0.0,0.0,0.0,0.0,0.0,0.0,0.0,0.0,0.0,0.0,0.0,0.0,0.0,0.0,0.0,0.0,0.0,0.0,0.0,0.0,0.0,0.0,0.0,0.0,0.0,0.0,0.0,0.0,0.0,0.0,-3.5477,-3.5195,0.0,0.0,0.0,0.0,0.0,0.0,0.0,0.0,0.0,0.0,0.0,0.0,0.0,-3.7927,-3.8436,-3.845,-3.845,-3.845,-3.845,-3.845,-3.8422,-3.7898,-3.7684,-3.7656,-3.726,0.0,-3.642,-3.6611,0.0,0.0,0.0,0.0,0.0,0.0,0.0,0.0,0.0,0.0,0.0,0.0,0.0,0.0,0.0,0.0,0.0,0.0,0.0,0.0,0.0,0.0,-3.0113,-2.9949,-2.9627,-2.9273,-2.8905,-2.8812,-2.8624,-2.7916,-2.769,-2.7472,0.0,0.0,0.0,0.0,0.0,0.0,-2.9,-2.917,-2.9212,-2.9212,-2.9212,-2.9212,-2.9212,-2.9212,-2.9184,-2.9101,-2.8263,-2.7707,-2.7544,-2.6748,0.0,0.0,0.0,0.0,0.0,0.0,0.0,0.0,0.0,0.0,0.0,0.0,0.0,0.0,0.0,0.0,0.0,0.0,0.0,0.0,0.0,0.0,0.0,0.0,0.0,0.0,0.0,0.0,0.0,-3.5621,-3.5647,-3.5653,-3.5488,-3.5379,0.0,0.0,0.0,0.0,0.0,0.0,0.0,0.0,0.0,-3.7194,-3.7456,-3.7772,-3.8006,-3.8006,-3.8006,-3.8006,-3.8006,-3.8006,-3.7992,-3.7717,-3.7635,-3.7607,-3.7028,-3.6662,-3.6434,-3.667,-3.6791,-3.6762,0.0,0.0,0.0,0.0,-3.5282,-3.5045,-3.4761,-3.4356,-3.3959,-3.3931,0.0,0.0,0.0,0.0,0.0,0.0,0.0,-3.0096,-2.9944,-2.9666,-2.9434,-2.9258,-2.8973,-2.8695,-2.8331,-2.8215,-2.8053,-2.7643,-2.7523,-2.7444,-2.7192,-2.7152,0.0,0.0,0.0,-2.7811,-2.8157,-2.8216,-2.8216,-2.8216,-2.8216,-2.8151,-2.8026,-2.8026,-2.7993,-2.7927,-2.7492,-2.7105,-2.679,-2.638,-2.5786,0.0,0.0,0.0,0.0,0.0,0.0,0.0,0.0,0.0,0.0,0.0,0.0,0.0,0.0,0.0,0.0,0.0,0.0,0.0,0.0,0.0,0.0,0.0,0.0,0.0,0.0,0.0,0.0,-3.5592,-3.5652,-3.5769,-3.5608,-3.5444,0.0,0.0,0.0,0.0,0.0,0.0,-3.7167,-3.734,-3.7412,-3.7375,-3.7332,-3.7356,-3.7504,-3.7504,-3.7504,-3.7504,-3.7504,-3.7504,-3.7504,-3.7343,-3.7276,-3.7249,-3.6701,-3.6366,-3.6261,-3.6558,-3.6626,-3.6545,-3.6047,-3.5789,-3.5668,-3.5072,-3.4723,-3.4516,-3.4365,-3.396,-3.3492,-3.3502,-3.3127,-3.2622,-3.2459,0.0,0.0,0.0,0.0,-2.9522,-2.945,-2.916,-2.8917,-2.8683,-2.8499,-2.8288,-2.799,-2.773,-2.7557,-2.7374,-2.7293,-2.7241,-2.71,-2.7074,0.0,-2.7074,-2.7074,-2.7074,-2.7074,-2.7074,-2.7074,-2.7074,-2.7074,-2.704,-2.6879,-2.6892,-2.6812,-2.6722,-2.6667,-2.6409,-2.5938,-2.5845,-2.5415,-2.4493,0.0,0.0,0.0,0.0,0.0,0.0,0.0,0.0,0.0,0.0,0.0,0.0,0.0,0.0,0.0,0.0,0.0,0.0,0.0,0.0,0.0,0.0,0.0,0.0,0.0,0.0,0.0,0.0,0.0,-3.5189,-3.4966,0.0,0.0,0.0,0.0,-3.6552,-3.6899,-3.7066,-3.7107,-3.6718,-3.6735,-3.7289,-3.7054,-3.7213,-3.7763,-3.7763,-3.7763,-3.7763,-3.7763,-3.7763,-3.775,-3.7213,-3.692,-3.6894,-3.6345,-3.5783,-3.5293,-3.5628,-3.5642,-3.548,-3.544,-3.5251,-3.4967,-3.438,-3.4153,-3.4047,-3.3487,-3.3235,-3.3208,-3.3208,-3.2935,-3.2463,-3.1772,-3.1345,0.0,0.0,-3.0012,-2.9872,-2.9487,-2.9266,-2.9045,-2.8836,-2.8652,-2.8333,-2.7828,-2.7502,-2.7232,-2.6964,-2.6766,-2.6499,-2.6052,0.0,-2.6,-2.6,-2.6,-2.6,-2.6,-2.6,-2.6,-2.6,-2.6,-2.5965,-2.5965,-2.5965,-2.5965,-2.5965,-2.5769,-2.5581,-2.5334,-2.5158,-2.4684,-2.3943,-2.3931,0.0,0.0,0.0,0.0,0.0,0.0,0.0,0.0,0.0,0.0,0.0,0.0,0.0,0.0,0.0,0.0,0.0,0.0,0.0,0.0,0.0,0.0,0.0,0.0,0.0,0.0,0.0,0.0,-3.6198,-3.595,0.0,-3.6208,-3.6268,-3.6242,-3.6283,-3.6696,-3.6924,-3.6804,-3.6992,-3.7124,-3.7169,-3.7077,-3.7029,-3.7083,-3.7083,-3.7036,-3.6909,-3.6909,-3.6909,-3.6896,-3.6705,-3.6569,-3.6531,-3.5996,-3.5582,-3.5353,-3.4932,-3.4654,-3.4535,-3.4384,-3.4259,-3.415,-3.39,-3.3752,-3.3601,-3.3395,-3.3003,-3.2467,-3.1975,-3.1699,-3.1511,-3.1041,-3.0748,-3.0507,-3.0281,-2.9852,-2.941,-2.9169,-2.8675,-2.8223,-2.7995,-2.7794,-2.7626,-2.7399,-2.7071,-2.6663,-2.6248,-2.6052,-2.5827,-2.5672,-2.5338,-2.5146,-2.5146,-2.5146,-2.5146,-2.5146,-2.5146,-2.5146,-2.5146,-2.5146,-2.5111,-2.5016,-2.5016,-2.4874,-2.4635,-2.4539,-2.4431,-2.4202,-2.4129,-2.3857,-2.3349,-2.3313,-2.2875,0.0,0.0,0.0,0.0,0.0,0.0,0.0,0.0,0.0,0.0,0.0,0.0,0.0,0.0,0.0,0.0,0.0,0.0,0.0,0.0,0.0,0.0,0.0,0.0,0.0,-3.5444,-3.5804,-3.6386,-3.6349,-3.629,-3.6362,-3.6424,-3.6335,-3.6037,-3.6541,-3.676,-3.6532,-3.6823,-3.6922,-3.6722,-3.664,-3.6499,-3.6358,-3.6358,-3.6216,-3.5991,-3.5991,-3.593,-3.5883,-3.5883,-3.5883,-3.581,-3.5464,-3.5145,-3.4947,-3.4181,-3.3724,-3.3527,-3.3426,-3.3237,-3.3031,-3.3031,-3.2957,-3.2828,-3.2828,-3.2419,-3.1791,-3.1253,-3.1004,-3.0798,-3.0447,-3.0187,-2.9951,-2.9772,-2.9379,-2.8952,-2.8647,-2.8096,-2.7561,-2.7284,-2.6994,-2.6745,-2.6745,-2.6445,-2.6066,-2.5675,-2.5464,-2.5306,-2.5146,-2.4814,-2.4585,-2.4585,-2.4585,-2.4585,-2.4585,-2.4585,-2.4585,-2.4585,-2.4585,-2.4511,-2.4362,-2.4325,-2.4187,-2.386,-2.3667,-2.3504,-2.3306,-2.3115,-2.2841,-2.2515,-2.2354,-2.1922,-2.1226,0.0,0.0,0.0,0.0,0.0,0.0,0.0,0.0,0.0,0.0,0.0,0.0,0.0,0.0,0.0,0.0,0.0,0.0,0.0,0.0,0.0,0.0,0.0,-3.4486,-3.5314,-3.5796,-3.5624,-3.5922,-3.5999,-3.5734,-3.6238,-3.6379,-3.5915,-3.6383,-3.6581,-3.6358,-3.6121,-3.5966,-3.5966,-3.5704,-3.5572,-3.5572,-3.5572,-3.5428,-3.5175,-3.5175,-3.503,-3.4775,-3.4775,-3.4775,-3.4726,-3.4726,-3.4438,-3.3911,-3.3409,-3.2863,-3.2418,-3.258,-3.2276,-3.1685,-3.1685,-3.1673,-3.1661,-3.1661,-3.1484,-3.1261,-3.1261,-3.0937,-3.0428,-2.9941,-2.9569,-2.9257,-2.8765,-2.8573,-2.8475,-2.7997,-2.7607,-2.7153,-2.667,-2.6224,-2.5875,-2.5864,-2.5633,-2.5411,-2.52,-2.5119,-2.4941,-2.4444,-2.4385,-2.4375,-2.4375,-2.4375,0.0,-2.4375,-2.4375,-2.4375,-2.4375,-2.4335,-2.4245,-2.3985,-2.3945,-2.3876,-2.3676,-2.3203,-2.2871,-2.2676,-2.2084,-2.1703,-2.1446,-2.1051,-2.0712,-2.0459,0.0,0.0,0.0,0.0,0.0,0.0,0.0,0.0,0.0,0.0,0.0,0.0,0.0,0.0,0.0,0.0,0.0,0.0,0.0,0.0,0.0,-3.3496,-3.4043,-3.4892,-3.5106,-3.5401,-3.5954,-3.5987,-3.5938,-3.5902,-3.6078,-3.6025,-3.5732,-3.5808,-3.5787,-3.5548,-3.5464,-3.5307,-3.5163,-3.5078,-3.4932,-3.4726,-3.4726,-3.464,-3.4408,-3.4408,-3.4261,-3.3941,-3.3941,-3.3843,-3.3645,-3.3645,-3.3563,-3.3386,-3.3028,-3.2484,-3.1897,-3.1957,-3.1623,-3.1135,-3.1135,-3.0903,-3.0623,-3.0623,-3.0431,-3.0193,-3.0023,-2.976,-2.9463,-2.9123,-2.8941,-2.8873,-2.8695,-2.8419,-2.8109,-2.7839,-2.7256,-2.6582,-2.5933,-2.56,-2.5291,-2.4966,-2.469,-2.4529,-2.4497,-2.4298,-2.4103,-2.3991,-2.3666,-2.3446,-2.3446,-2.3446,-2.3446,-2.3446,-2.3446,-2.3446,-2.3446,-2.3274,-2.3143,-2.3062,-2.294,-2.2737,-2.2544,-2.2423,-2.2281,-2.2047,-2.1715,-2.1217,-2.0556,-2.0127,-1.9746,0.0,0.0,0.0,0.0,0.0,0.0,0.0,0.0,0.0,0.0,0.0,0.0,0.0,0.0,0.0,0.0,0.0,0.0,0.0,0.0,0.0,0.0,-3.3136,-3.3801,-3.4445,-3.4768,-3.5161,-3.5658,-3.5742,-3.5737,-3.5655,-3.5631,-3.55,-3.5126,-3.5078,-3.4981,-3.475,-3.475,-3.4652,-3.4494,-3.4494,-3.4347,-3.4089,-3.404,-3.3892,-3.3568,-3.3568,-3.3408,-3.3147,-3.3147,-3.2985,-3.2684,-3.2684,-3.2633,-3.2493,-3.224,-3.1882,-3.1472,0.0,0.0,0.0,0.0,-3.0261,-2.9881,-2.9881,-2.9503,-2.9037,-2.8921,-2.8595,-2.8269,-2.8128,-2.807,-2.807,-2.807,-2.7889,-2.764,-2.7408,-2.6875,-2.6239,-2.5733,-2.5169,-2.4656,-2.4371,-2.4005,-2.3721,-2.3634,-2.3503,0.0,-2.3232,-2.3237,-2.3233,-2.3108,-2.3108,-2.3108,-2.3108,-2.3108,-2.3108,-2.3108,-2.2888,-2.272,-2.2584,-2.2373,0.0,0.0,0.0,-2.1446,-2.0992,-2.0815,0.0,0.0,0.0,-1.8963,-1.8548,-1.8172,0.0,0.0,-1.8496,-1.8505,0.0,0.0,0.0,0.0,0.0,0.0,0.0,0.0,0.0,0.0,0.0,0.0,0.0,0.0,0.0,0.0,-3.276,-3.3457,-3.3596,-3.4399,-3.5024,-3.5011,-3.5266,-3.5368,-3.5078,-3.5078,-3.4884,-3.4384,-3.4384,-3.4249,-3.4026,-3.4026,0.0,0.0,0.0,-3.3767,-3.3496,-3.3496,-3.3247,-3.2757,-3.2757,-3.2572,-3.2314,-3.2314,-3.2067,-3.1708,-3.1708,-3.1589,-3.1389,-3.1143,-3.1021,-3.1032,-3.1105,-3.0696,-3.0057,-2.9954,-2.9661,-2.9282,-2.9228,0.0,0.0,-2.7867,-2.7515,-2.7146,-2.7088,-2.7088,-2.7088,-2.704,-2.704,-2.6993,-2.6812,-2.6432,-2.6044,-2.5748,-2.4858,-2.4063,-2.3969,-2.3482,-2.296,-2.2759,-2.2715,-2.2618,-2.2353,-2.2882,-2.3276,-2.3013,-2.3013,-2.296,-2.2969,-2.2916,-2.2916,-2.2916,0.0,0.0,-2.2255,-2.2069,-2.1847,-2.1553,-2.1207,-2.0636,-1.9824,-1.9772,-1.9531,-1.9006,-1.8704,-1.8298,-1.7801,-1.7466,-1.6954,-1.6366,-1.7147,-1.7424,0.0,0.0,0.0,0.0,0.0,0.0,0.0,0.0,0.0,0.0,0.0,0.0,0.0,0.0,0.0,-3.2188,-3.2695,-3.3157,-3.3529,-3.4018,-3.4351,-3.4522,-3.4617,-3.4543,-3.431,-3.4321,-3.4261,-3.4174,-3.4162,-3.3965,-3.3481,-3.3431,-3.3269,-3.2807,-3.2807,-3.2807,-3.2695,-3.2695,-3.2645,-3.2544,-3.228,0.0,-3.1262,-3.1,-3.0543,-2.9998,-2.9998,-3.0002,-3.0079,-3.0028,-2.9952,-2.9932,-2.9979,-2.9889,-2.9711,-2.9032,-2.8734,-2.8648,-2.8282,-2.7921,-2.7554,-2.7222,-2.6918,-2.6582,-2.638,-2.6332,0.0,-2.6032,-2.5984,-2.5984,-2.5936,-2.5693,-2.5363,-2.5004,-2.4341,-2.3694,-2.3295,-2.2859,-2.2485,-2.2274,-2.223,-2.2097,-2.166,-2.2176,-2.253,-2.2318,-2.2264,-2.223,-2.1998,-2.1954,-2.1954,-2.1954,-2.1785,-2.1562,-2.1311,-2.1096,-2.0871,-2.0609,-2.0494,-2.0228,-1.9664,-1.9656,-1.9244,-1.8467,-1.8013,-1.7582,-1.7154,-1.6475,-1.6046,-1.5937,-1.6277,-1.6286,0.0,0.0,0.0,0.0,0.0,0.0,0.0,0.0,0.0,0.0,0.0,-3.1271,-3.1728,0.0,-3.1612,-3.2168,-3.2618,-3.291,-3.2843,-3.3183,-3.3656,-3.4211,-3.4101,-3.3904,-3.3729,-3.3568,-3.3419,-3.3308,-3.3308,-3.3158,-3.2919,-3.2919,-3.2757,-3.2493,-3.2493,-3.2443,-3.2229,-3.1895,-3.1683,-3.1471,-3.0978,-3.055,-3.0223,-3.0074,-2.9647,-2.9087,-2.9087,-2.9013,-2.8828,-2.8891,-2.898,-2.9154,-2.887,-2.9051,-2.9342,-2.8797,-2.8319,-2.7905,-2.7552,-2.6993,-2.6349,-2.617,-2.5907,-2.5664,-2.5518,-2.5518,-2.546,-2.5362,-2.5314,-2.5265,-2.5109,-2.502,-2.4835,-2.4463,-2.3904,-2.3305,-2.2899,-2.2401,-2.1925,-2.1589,-2.1544,-2.1454,-2.1239,-2.1374,-2.1544,-2.1544,-2.1544,-2.1454,-2.1239,-2.1195,-2.115,-2.1015,-2.0798,-2.0609,-2.0464,-2.0147,-1.9828,-1.9563,-1.9563,-1.9325,-1.8866,-1.8866,-1.8502,-1.7827,-1.7467,-1.7037,-1.6571,-1.5876,-1.5336,-1.4966,-1.4796,-1.4908,0.0,0.0,0.0,0.0,0.0,0.0,0.0,-3.1681,-3.1593,-3.1427,-3.13,-3.1354,-3.1734,-3.1703,-3.1705,-3.1991,-3.2381,-3.2546,-3.2233,-3.2497,-3.3008,-3.3717,-3.3557,-3.3308,-3.317,-3.2908,-3.2645,-3.2493,-3.2493,-3.2443,-3.2392,-3.2342,-3.2291,-3.224,-3.2101,-3.1893,-3.1629,-3.1018,-3.0578,-3.0328,-2.9703,-2.9331,-2.9208,-2.9148,-2.8799,-2.828,-2.8274,-2.8005,-2.7602,-2.7794,-2.8052,-2.8304,-2.7921,-2.8174,-2.8644,-2.8485,-2.7931,-2.7263,-2.6939,-2.6203,-2.534,-2.5215,-2.4981,-2.4784,-2.4686,-2.4686,-2.4686,-2.4637,-2.4587,-2.4538,-2.4341,-2.4291,-2.4233,-2.4035,-2.3488,-2.2946,-2.2589,-2.2015,-2.1393,-2.0941,-2.0817,-2.0772,-2.0727,-2.0609,-2.0564,-2.0817,-2.0817,-2.069,-2.0518,-2.0482,-2.0382,-2.0102,-1.9882,-1.9745,-1.9654,-1.9188,-1.8827,-1.8596,-1.855,-1.8319,-1.79,-1.7854,-1.7567,-1.7091,-1.6824,-1.6462,-1.5973,-1.5337,-1.4683,-1.4057,-1.3458,-1.3646,-3.0946,-3.108,-3.108,-3.108,-3.0913,-3.0791,0.0,-3.0578,-3.0397,-3.0352,-3.0675,-3.0916,-3.0776,-3.1058,-3.1428,-3.1694,-3.178,-3.1971,-3.2409,-3.251,-3.2544,-3.2645,-3.2656,-3.2594,-3.2594,-3.2544,-3.2544,-3.2493,-3.2493,-3.2392,-3.2077,-3.1823,-3.1578,-3.1322,-3.0718,-3.0352,-3.029,-2.9892,-2.9668,-2.9618,-2.9236,-2.8747,-2.8174,-2.7919,-2.74,-2.6716,-2.6685,-2.6605,-2.6573,-2.6858,-2.6984,-2.7041,-2.7334,-2.7368,-2.726,-2.7476,-2.7245,-2.6798,-2.6408,-2.598,-2.5484,-2.4808,-2.4587,-2.448,-2.3985,-2.3827,-2.3786,-2.3596,-2.3546,-2.3546,-2.3546,-2.3497,-2.3497,-2.3497,-2.3095,-2.2655,-2.2304,-2.1734,-2.107,-2.0497,-2.0201,-1.9973,-1.9808,-1.9716,-1.9853,-2.0292,-2.0201,-1.9928,-1.977,-1.9716,-1.9625,-1.9333,-1.9279,-1.9096,-1.8681,-1.8179,-1.7861,-1.7815,-1.7613,-1.7387,-1.712,-1.6871,-1.6629,-1.6332,-1.5818,-1.5561,-1.5481,-1.4518,-1.4019,-1.3891,-1.294,-1.279,-2.9566,-2.9692,-2.9692,-2.9635,-2.9543,-2.9509,-2.9509,-2.9594,-2.9713,-2.9713,-3.0114,-3.05,-3.0729,-3.0951,-3.1163,-3.1359,-3.1385,-3.1451,-3.1505,-3.1487,-3.1487,-3.1487,-3.1487,-3.164,-3.1936,-3.1834,-3.168,-3.1538,-3.1487,-3.1435,-3.1333,-3.096,-3.0667,-3.0566,-3.0016,-2.9732,-2.9732,-2.9155,-2.8775,-2.8628,-2.8053,-2.7534,-2.7117,-2.701,-2.6619,-2.6014,-2.5663,-2.5697,-2.5896,-2.568,-2.5744,-2.5986,-2.5846,-2.5698,-2.5672,-2.6338,-2.6224,-2.566,-2.51,-2.4637,-2.4263,-2.3949,-2.3845,-2.3845,-2.3587,-2.3546,-2.3497,-2.3397,-2.3397,-2.3297,-2.2987,-2.2887,-2.2787,-2.2485,-2.2265,-2.2052,-2.1686,-2.1216,-2.0749,-2.0277,-1.9941,-1.9671,-1.9433,-1.925,-1.9158,-1.9234,-1.9517,-1.9579,-1.9204,-1.9112,-1.8974,-1.8596,-1.8411,-1.8179,-1.7839,-1.7488,-1.716,-1.6864,-1.6716,-1.648,-1.6109,-1.5967,-1.5724,-1.535,-1.5112,-1.4819,-1.4526,-1.3958,-1.35,-1.3171,-1.249,-1.2187,-2.8619,-2.8714,-2.8714,-2.8645,-2.8692,-2.8808,-2.8808,-2.9115,-2.9412,-2.9412,-2.9753,-3.0197,-3.0593,-3.0817,-3.0922,-3.1073,-3.1075,-3.1023,-3.0827,-3.0786,-3.0786,-3.0786,-3.0786,-3.0931,-3.1219,-3.1178,-3.1034,-3.0827,-3.0786,-3.0722,-3.0595,-3.0204,-2.995,-2.9823,-2.9328,-2.9035,-2.8996,-2.8327,-2.7845,-2.7565,-2.7043,-2.6651,-2.64,-2.6255,-2.5907,-2.545,-2.4971,-2.4954,-2.5145,-2.4794,-2.4769,-2.5009,-2.4691,-2.4526,-2.4544,-2.5029,-2.4974,-2.4643,-2.4159,-2.3743,-2.3406,-2.3297,-2.3247,-2.3147,-2.3038,-2.2996,-2.2946,-2.2946,-2.2946,-2.2846,-2.2375,-2.2274,-2.2173,-2.1776,-2.1725,-2.1634,-2.1288,-2.0901,-2.0475,-1.9962,-1.9575,-1.9233,-1.8936,-1.8735,-1.855,-1.8404,-1.8827,-1.9074,-1.8643,-1.8504,-1.8265,-1.79,-1.7574,-1.7293,-1.7044,-1.6824,-1.6447,-1.6001,-1.5913,-1.5676,-1.5248,-1.5153,-1.4914,-1.449,-1.44,-1.416,-1.3667,-1.3366,-1.2969,-1.2503,-1.2017,-1.1717,-2.8456,-2.8495,-2.8495,-2.8495,-2.8765,-2.8995,-2.8995,-2.9194,-2.9391,-2.9391,-2.9774,-3.0104,-3.0115,-3.0498,-3.0817,-3.0827,-3.0827,-3.0827,-3.0786,-3.0786,-3.0786,-3.0786,-3.0786,-3.0724,-3.0443,-3.0661,-3.0827,-3.0786,-3.0786,-3.0584,-3.0168,-2.9861,-2.9488,-2.9027,-2.833,-2.7847,-2.7662,-2.7183,-2.6815,-2.6564,-2.6506,-2.6342,-2.6091,-2.5577,-2.5186,-2.4932,-2.4627,-2.439,-2.418,-2.4349,-2.4275,-2.4063,-2.4436,-2.4412,-2.4044,-2.3427,-2.3565,-2.4028,-2.4019,-2.3743,-2.3347,-2.3097,-2.2787,-2.2476,-2.2224,-2.1979,-2.1725,-2.1725,-2.1725,-2.1725,-2.1725,-2.1725,-2.1725,-2.1725,-2.1725,-2.1634,-2.1288,-2.0791,-2.0178,-1.9487,-1.8964,-1.8523,-1.8187,-1.8133,-1.8133,-1.8133,-1.8133,-1.8133,-1.8133,-1.766,-1.7326,-1.7326,-1.6911,-1.6534,-1.6237,-1.6015,-1.573,-1.5439,-1.5261,-1.5035,-1.4736,-1.449,-1.4196,-1.395,-1.3678,-1.3394,-1.3098,-1.267,-1.2273,-1.2026,-1.1554,-1.1308,-2.7338,-2.7541,-2.7703,-2.7703,-2.7965,-2.8217,-2.8217,-2.8502,-2.8819,-2.8819,-2.9332,-2.9746,-2.9746,-3.0037,-3.0256,-3.0256,-3.0256,-3.0256,-3.0256,-3.0256,-3.0256,-3.0256,-3.0256,-3.0256,-3.0141,-3.0401,-3.0453,-3.0256,-2.9974,-2.9723,-2.9566,-2.8771,-2.8208,-2.8064,-2.7378,-2.696,-2.6863,-2.6721,-2.6496,-2.6245,-2.5868,-2.5567,-2.5274,-2.4932,-2.4637,-2.4381,-2.4143,-2.3895,-2.3605,-2.3497,-2.3298,-2.2994,-2.2971,-2.2758,-2.2484,-2.2264,-2.2324,-2.2477,-2.2477,-2.2393,-2.2283,-2.2182,-2.208,-2.1971,-2.1878,-2.1776,-2.1725,-2.1725,-2.1725,-2.1674,-2.1471,-2.142,-2.1326,-2.0976,-2.0925,-2.0834,-2.0511,-2.0155,-1.9787,-1.9555,-1.9,-1.8512,-1.8215,-1.7809,-1.75,-1.738,-1.7465,-1.7567,-1.7567,-1.7145,-1.677,-1.6567,-1.6251,-1.5967,-1.5669,-1.5445,-1.5172,-1.4675,-1.4586,-1.4352,-1.3925,-1.3829,-1.3582,-1.319,-1.3098,-1.2813,-1.237,-1.2195,-1.2014,-1.1719,-1.1404,-1.113,-2.6774,-2.7035,-2.7201,-2.7305,-2.7668,-2.7978,-2.7978,-2.8353,-2.8709,-2.8709,-2.9098,-2.9396,-2.9396,-2.9564,-2.9669,-2.9669,-2.9669,-2.9669,-2.9669,-2.9669,-2.9669,-2.9669,-2.9536,-2.9434,-2.9434,-2.9497,-2.9508,-2.9621,-2.9116,-2.8747,-2.8583,-2.787,-2.7374,-2.7211,-2.6744,-2.6448,-2.6352,-2.6352,-2.6149,-2.581,-2.5382,-2.503,-2.4735,-2.448,-2.4233,-2.3985,-2.3746,-2.3497,-2.3247,-2.2946,-2.2636,-2.2325,-2.2072,-2.1869,-2.1674,-2.1573,-2.1573,-2.1573,-2.1674,-2.1725,-2.1725,-2.1725,-2.1623,-2.1573,-2.1573,-2.1471,-2.1369,-2.1326,-2.1267,-2.1224,-2.096,-2.0858,-2.0755,-2.0454,-2.0359,-2.03,-2.0138,-1.9874,-1.959,-1.9376,-1.8907,-1.8431,-1.8021,-1.7623,-1.7311,-1.7225,-1.7133,-1.7143,-1.7335,-1.686,-1.6416,-1.6266,-1.5844,-1.5397,-1.5057,-1.4879,-1.4598,-1.4064,-1.4016,-1.3775,-1.3249,-1.3249,-1.3001,-1.2516,-1.2516,-1.2322,-1.1883,-1.178,-1.159,-1.1292,-1.1047,-1.0801,-2.6772,-2.6935,-2.7043,-2.7323,-2.7809,-2.8237,-2.8237,-2.8654,-2.9026,-2.9026,-2.9079,-2.9079,-2.9079,-2.9079,-2.9079,-2.9079,-2.9079,-2.9079,-2.9079,-2.9079,-2.9079,-2.9079,-2.875,-2.8488,-2.8488,-2.8126,-2.8117,-2.8717,-2.8239,-2.7673,-2.724,-2.715,-2.6939,-2.6506,-2.6448,-2.6352,-2.6042,-2.6052,-2.5761,-2.5235,-2.4981,-2.4735,-2.448,-2.4183,-2.3994,-2.3755,-2.3447,-2.3197,-2.2946,-2.2585,-2.2274,-2.2021,-2.1776,-2.1674,-2.1623,-2.1369,-2.1275,-2.1267,-2.1522,-2.1623,-2.1623,-2.1623,-2.1471,-2.1224,-2.1224,-2.107,-2.0822,-2.0565,-2.047,-2.0411,-2.0189,-2.0078,-2.0078,-2.0078,-2.0078,-2.0078,-2.0034,-1.9828,-1.9487,-1.8869,-1.8557,-1.8188,-1.7561,-1.747,-1.7477,-1.7427,-1.7041,-1.6891,-1.7406,-1.6762,-1.6244,-1.6244,-1.557,-1.4875,-1.437,-1.4268,-1.4076,-1.3491,-1.3443,-1.3249,-1.2759,-1.2764,-1.2516,-1.198,-1.198,-1.1829,-1.1536,-1.1292,-1.1047,-1.0757,-1.0507,-1.0364,-2.5844,-2.6336,-2.6708,-2.6772,-2.7206,-2.7647,-2.7647,-2.7906,-2.8228,-2.8228,-2.8504,-2.8781,-2.8781,-2.8983,-2.9079,-2.9079,-2.9079,-2.9079,-2.9079,-2.9079,-2.9079,-2.9079,-2.875,-2.8488,-2.8488,-2.7632,-2.7172,-2.7322,-2.7342,-2.734,-2.723,-2.6692,-2.6316,-2.6197,-2.6014,-2.5781,-2.5528,-2.5323,-2.503,-2.4686,-2.4627,-2.439,-2.3994,-2.3895,-2.3646,-2.3197,-2.2887,-2.2577,-2.2333,-2.2021,-2.1725,-2.1522,-2.1428,-2.1173,-2.0822,-2.0719,-2.0557,-2.0447,-2.049,-2.0652,-2.0771,-2.055,-2.0439,-2.0388,-2.0388,-2.0344,-2.0292,-2.0241,-2.0189,-2.0189,-2.0138,-2.0078,-2.0034,-1.9835,-1.9776,-1.968,-1.9272,-1.9175,-1.899,-1.8584,-1.8283,-1.7876,-1.7055,-1.7089,-1.7079,-1.667,-1.6646,-1.673,-1.6911,-1.639,-1.5952,-1.5745,-1.5338,-1.4873,-1.4329,-1.4109,-1.3733,-1.3018,-1.2958,-1.2764,-1.2224,-1.2224,-1.2029,-1.1731,-1.1487,-1.1292,-1.0998,-1.0708,-1.056,-1.0511,-1.0216,-1.0117,-2.5348,-2.5844,-2.6227,-2.6336,-2.6826,-2.7206,-2.7206,-2.7476,-2.7691,-2.7853,-2.813,-2.8398,-2.8514,-2.8664,-2.8761,-2.8761,-2.8761,-2.8761,-2.8761,-2.8761,-2.8761,-2.8761,-2.8214,-2.7837,-2.7837,-2.6943,-2.633,-2.633,-2.6438,-2.6536,-2.6536,-2.6045,-2.5761,-2.5761,-2.5479,-2.5284,-2.5137,-2.4883,-2.4587,-2.4332,-2.4242,-2.3994,-2.3596,-2.3497,-2.3197,-2.2736,-2.2485,-2.2173,-2.1928,-2.1623,-2.1377,-2.1121,-2.0968,-2.0712,-2.03,-2.03,-2.0248,-2.0078,-1.9983,-2.0042,-2.0153,-2.0086,-2.0078,-2.0078,-2.0078,-2.0078,-2.0078,-1.9983,-1.9931,-1.9879,-1.9783,-1.968,-1.9532,-1.9376,-1.9212,-1.9056,-1.875,-1.8698,-1.8541,-1.8108,-1.7821,-1.745,-1.6806,-1.6808,-1.6808,-1.6501,-1.6476,-1.6464,-1.6355,-1.5959,-1.5679,-1.5526,-1.5014,-1.4535,-1.4149,-1.383,-1.3418,-1.2778,-1.2675,-1.2332,-1.1839,-1.1731,-1.1536,-1.1243,-1.0998,-1.0757,-1.0605,-1.0364,-1.0216,-1.0216,-0.9969,-0.9776,-2.4962,-2.5348,-2.5679,-2.5962,-2.6445,-2.6881,-2.6935,-2.7152,-2.7431,-2.7745,-2.7853,-2.796,-2.8184,-2.8291,-2.8291,-2.8291,-2.8291,-2.8291,-2.8291,-2.8291,-2.8291,-2.8291,-2.7477,-2.6961,-2.6961,-2.6141,-2.5586,-2.5586,-2.5586,-2.5586,-2.5645,-2.5382,-2.5235,-2.5235,-2.499,-2.4833,-2.4784,-2.4538,-2.4282,-2.4035,-2.3845,-2.3605,-2.3347,-2.3046,-2.2736,-2.2426,-2.2131,-2.1827,-2.1573,-2.1326,-2.1019,-2.0763,-2.0514,-2.03,-2.0034,-2.0034,-1.9983,-1.9879,-1.962,-1.9524,-1.9569,-1.9879,-1.9983,-1.9983,-1.9983,-1.9983,-1.9931,-1.968,-1.9576,-1.9524,-1.9272,-1.9018,-1.8817,-1.8817,-1.8593,-1.837,-1.837,-1.8265,-1.8108,-1.7582,-1.7272,-1.7014,-1.6683,-1.663,-1.663,-1.6577,-1.6318,-1.6111,-1.5838,-1.564,-1.5501,-1.5449,-1.4711,-1.4105,-1.3889,-1.3569,-1.3155,-1.2661,-1.241,-1.2074,-1.1584,-1.13,-1.1044,-1.0793,-1.0524,-1.0364,-1.0364,-1.0068,-0.992,-0.9871,-0.9677,-0.9381,-2.4423,-2.4906,-2.534,-2.5679,-2.6017,-2.6345,-2.6636,-2.689,-2.7098,-2.7152,-2.753,-2.7906,-2.796,-2.8121,-2.8291,-2.8291,-2.8291,-2.8291,-2.8291,-2.8291,-2.8291,-2.8291,-2.7321,-2.6644,-2.6644,-2.5674,-2.5039,-2.5039,-2.5039,-2.5137,-2.5333,-2.5137,-2.499,-2.499,-2.4686,-2.448,-2.4233,-2.4044,-2.3795,-2.3497,-2.3497,-2.3347,-2.3046,-2.2736,-2.2426,-2.2123,-2.1674,-2.1275,-2.1019,-2.0771,-2.0454,-2.0241,-2.0189,-1.9983,-1.9732,-1.9532,-1.9279,-1.9071,-1.8743,-1.8632,-1.8736,-1.9264,-1.9428,-1.9428,-1.9428,-1.9428,-1.9376,-1.9123,-1.9026,-1.8966,-1.8639,-1.8534,-1.8482,-1.8482,-1.8422,-1.8318,-1.8122,-1.7701,-1.7279,-1.6948,-1.6842,-1.6683,-1.6424,-1.6377,-1.6217,-1.5743,-1.569,-1.5529,-1.5202,-1.5381,-1.5411,-1.5133,-1.4554,-1.4124,-1.3829,-1.3336,-1.2872,-1.2341,-1.2228,-1.2003,-1.1452,-1.1245,-1.1011,-1.0709,-1.0298,-1.0068,-1.0068,-0.9826,-0.9579,-0.9335,-0.9286,-0.913,-2.4487,-2.5026,-2.5514,-2.5688,-2.6017,-2.6418,-2.6582,-2.6691,-2.6845,-2.6989,-2.7206,-2.7476,-2.7584,-2.7745,-2.7809,-2.7809,-2.7809,-2.7809,-2.7809,-2.7809,-2.7809,-2.7809,-2.6998,-2.6378,-2.6378,-2.5474,-2.4883,-2.4883,-2.4784,-2.4784,-2.5088,-2.4833,-2.4637,-2.4548,-2.4291,-2.4093,-2.3945,-2.3696,-2.3447,-2.3197,-2.3038,-2.2787,-2.2535,-2.2232,-2.1928,-2.1674,-2.1275,-2.0917,-2.0668,-2.0403,-2.0138,-1.9879,-1.9732,-1.9532,-1.9279,-1.8952,-1.875,-1.8593,-1.8482,-1.8422,-1.8475,-1.8743,-1.8848,-1.8848,-1.8848,-1.8848,-1.8795,-1.8698,-1.8646,-1.8593,-1.8422,-1.8325,-1.8167,-1.8003,-1.774,-1.747,-1.7371,-1.7107,-1.6849,-1.653,-1.6477,-1.6371,-1.5957,-1.5903,-1.5743,-1.5315,-1.5261,-1.5148,-1.4821,-1.4821,-1.4767,-1.4606,-1.4175,-1.3809,-1.3538,-1.3202,-1.2738,-1.2154,-1.2035,-1.1726,-1.1148,-1.0956,-1.071,-1.0513,-1.0109,-0.9917,-0.9772,-0.9529,-0.9335,-0.9187,-0.908,-0.8829,-2.4543,-2.5136,-2.5624,-2.5688,-2.6081,-2.6527,-2.6591,-2.6591,-2.6636,-2.689,-2.6935,-2.7043,-2.726,-2.7377,-2.7377,-2.7377,-2.7377,-2.7377,-2.7377,-2.7377,-2.7377,-2.7377,-2.664,-2.6121,-2.6121,-2.5274,-2.4745,-2.4745,-2.4489,-2.4489,-2.4735,-2.4489,-2.4291,-2.4102,-2.3845,-2.3705,-2.3655,-2.3397,-2.3147,-2.2795,-2.2526,-2.2274,-2.1979,-2.1674,-2.142,-2.1224,-2.0865,-2.0565,-2.0308,-2.0086,-1.9828,-1.9532,-1.9279,-1.9018,-1.8757,-1.8429,-1.8318,-1.8318,-1.8265,-1.8213,-1.8213,-1.8213,-1.8318,-1.8422,-1.8422,-1.8422,-1.837,-1.8318,-1.8265,-1.8213,-1.816,-1.7905,-1.7694,-1.7477,-1.7047,-1.6677,-1.663,-1.6571,-1.6471,-1.6164,-1.6057,-1.5897,-1.5476,-1.5369,-1.5261,-1.4982,-1.4928,-1.4767,-1.4444,-1.4223,-1.4062,-1.3954,-1.3689,-1.3423,-1.3207,-1.2881,-1.2537,-1.2107,-1.1831,-1.1438,-1.0958,-1.0762,-1.0551,-1.0268,-0.9959,-0.9702,-0.9529,-0.9232,-0.9084,-0.9034,-0.8829,-0.8581,-2.432,-2.4804,-2.534,-2.5624,-2.5907,-2.6245,-2.6527,-2.6591,-2.6591,-2.6646,-2.6845,-2.6989,-2.7043,-2.726,-2.7377,-2.7377,-2.7377,-2.7377,-2.7377,-2.7377,-2.7377,-2.7377,-2.6492,-2.5839,-2.5839,-2.4881,-2.4251,-2.4251,-2.4003,-2.3994,-2.4251,-2.4003,-2.3854,-2.3854,-2.3596,-2.3297,-2.3097,-2.3046,-2.2745,-2.2173,-2.2131,-2.1979,-2.1725,-2.1224,-2.0968,-2.0917,-2.0395,-2.0034,-1.9783,-1.9732,-1.9428,-1.8974,-1.8921,-1.8757,-1.8429,-1.8115,-1.8016,-1.8016,-1.774,-1.7687,-1.7687,-1.7687,-1.8003,-1.8422,-1.8422,-1.8422,-1.837,-1.8122,-1.7852,-1.7635,-1.7384,-1.706,-1.6836,-1.6783,-1.673,-1.6624,-1.6377,-1.6158,-1.5891,-1.5642,-1.5315,-1.5095,-1.5041,-1.5041,-1.4928,-1.4659,-1.4659,-1.4444,-1.3856,-1.3748,-1.3586,-1.3098,-1.2989,-1.2935,-1.2935,-1.2387,-1.205,-1.2032,-1.176,-1.1424,-1.1076,-1.0923,-1.064,-1.0196,-0.9768,-0.945,-0.9236,-0.8977,-0.8726,-0.8482,-0.8432,-0.8283,-2.4543,-2.5081,-2.5514,-2.5679,-2.6081,-2.6418,-2.6582,-2.6591,-2.6591,-2.6591,-2.6691,-2.6736,-2.6736,-2.6854,-2.6899,-2.6899,-2.6899,-2.6899,-2.6899,-2.6899,-2.6899,-2.6899,-2.5964,-2.532,-2.532,-2.4325,-2.3705,-2.3705,-2.3596,-2.3605,-2.3696,-2.3596,-2.3546,-2.3546,-2.3297,-2.2996,-2.2686,-2.2535,-2.2283,-2.1878,-2.1725,-2.1471,-2.1224,-2.0822,-2.0557,-2.0395,-2.0034,-1.9732,-1.9428,-1.9279,-1.8959,-1.8593,-1.8443,-1.8286,-1.8115,-1.7852,-1.7648,-1.749,-1.7384,-1.7219,-1.7047,-1.7047,-1.7206,-1.7417,-1.7641,-1.7529,-1.7364,-1.7265,-1.716,-1.7047,-1.6955,-1.669,-1.6477,-1.6477,-1.6211,-1.5951,-1.585,-1.5577,-1.5309,-1.5202,-1.5095,-1.4928,-1.4767,-1.4767,-1.4606,-1.4126,-1.4072,-1.391,-1.3532,-1.3315,-1.3044,-1.2659,-1.2604,-1.255,-1.2387,-1.2005,-1.1678,-1.1455,-1.135,-1.1185,-1.0857,-1.0791,-1.051,-0.9963,-0.978,-0.9454,-0.8977,-0.868,-0.8478,-0.8382,-0.8233,-0.8088,-2.4812,-2.5302,-2.5743,-2.5798,-2.619,-2.6591,-2.6591,-2.6591,-2.6591,-2.6591,-2.6591,-2.6591,-2.6591,-2.6591,-2.6591,-2.6591,-2.6591,-2.6582,-2.6473,-2.6473,-2.6418,-2.6354,-2.5485,-2.4841,-2.4841,-2.3961,-2.3356,-2.3297,-2.3197,-2.3097,-2.3046,-2.2946,-2.2996,-2.3147,-2.2896,-2.2585,-2.2274,-2.2072,-2.1827,-2.1573,-2.1326,-2.1019,-2.0771,-2.0411,-2.0101,-1.9835,-1.9576,-1.9324,-1.9011,-1.881,-1.8593,-1.8272,-1.8069,-1.7911,-1.7747,-1.7443,-1.72,-1.6931,-1.6847,-1.671,-1.6501,-1.6584,-1.6504,-1.6529,-1.6829,-1.6849,-1.6677,-1.6677,-1.663,-1.6577,-1.6465,-1.6264,-1.6064,-1.6064,-1.569,-1.5369,-1.5369,-1.5095,-1.4874,-1.4874,-1.4826,-1.4719,-1.4504,-1.4396,-1.418,-1.3748,-1.3645,-1.3478,-1.3207,-1.2935,-1.2604,-1.2332,-1.2114,-1.2001,-1.1896,-1.1623,-1.135,-1.1126,-1.1021,-1.0857,-1.0582,-1.0582,-1.0309,-0.965,-0.9586,-0.9263,-0.8676,-0.8432,-0.8283,-0.8283,-0.8088,-0.7988,-2.5064,-2.545,-2.5743,-2.6017,-2.6354,-2.6591,-2.6591,-2.6591,-2.6591,-2.6591,-2.6591,-2.6591,-2.6591,-2.6591,-2.6591,-2.6591,-2.6591,-2.6473,-2.6127,-2.6127,-2.6017,-2.5743,-2.4987,-2.4508,-2.4508,-2.385,-2.3297,-2.2996,-2.2686,-2.2375,-2.2131,-2.1878,-2.1979,-2.2476,-2.2224,-2.1979,-2.1725,-2.1725,-2.1573,-2.1326,-2.1019,-2.0771,-2.047,-1.9946,-1.9576,-1.9272,-1.9026,-1.8705,-1.8422,-1.8422,-1.8272,-1.8016,-1.8016,-1.7701,-1.7199,-1.6912,-1.6594,-1.6285,-1.6068,-1.6023,-1.6024,-1.6234,-1.6122,-1.5977,-1.6243,-1.6477,-1.6677,-1.6677,-1.653,-1.6217,-1.5998,-1.569,-1.5482,-1.5482,-1.5261,-1.4987,-1.4987,-1.4767,-1.4606,-1.4606,-1.4401,-1.4196,-1.4196,-1.3916,-1.3699,-1.3699,-1.3478,-1.3207,-1.2935,-1.2604,-1.2273,-1.2005,-1.1455,-1.1236,-1.1568,-1.1295,-1.1072,-1.1072,-1.0857,-1.0582,-1.0312,-1.0312,-0.9989,-0.9335,-0.9059,-0.8742,-0.8382,-0.8137,-0.7988,-0.7988,-0.7988,-0.7988,-2.5119,-2.545,-2.5743,-2.6017,-2.6354,-2.6591,-2.6591,-2.6591,-2.6591,-2.6591,-2.6591,-2.6591,-2.6591,-2.6409,-2.6245,-2.6245,-2.6072,-2.5962,-2.5852,-2.5852,-2.5798,-2.5734,-2.4827,-2.3878,-2.2937,-2.2672,-2.2384,-2.2131,-2.203,-2.1928,-2.1818,-2.1725,-2.1776,-2.1928,-2.1869,-2.1725,-2.1428,-2.1428,-2.1224,-2.0771,-2.0668,-2.0411,-1.9939,-1.9583,-1.9279,-1.9026,-1.8698,-1.8377,-1.8115,-1.7957,-1.7694,-1.7437,-1.7219,-1.7001,-1.681,-1.6587,-1.6277,-1.5981,-1.5745,-1.5556,-1.5379,-1.5458,-1.5432,-1.5384,-1.5652,-1.5958,-1.6152,-1.6152,-1.5951,-1.5743,-1.5636,-1.5369,-1.5148,-1.5148,-1.4934,-1.4713,-1.4713,-1.4504,-1.4353,-1.4353,-1.4078,-1.3862,-1.3862,-1.3645,-1.3369,-1.3207,-1.3098,-1.2827,-1.2332,-1.2169,-1.1946,-1.1455,-1.1236,-1.1126,-1.1236,-1.0966,-1.0747,-1.0582,-1.0476,-1.0312,-0.9981,-0.9868,-0.9594,-0.9063,-0.885,-0.854,-0.8137,-0.8038,-0.7988,-0.7988,-0.7988,-0.7988,-2.5293,-2.5569,-2.5798,-2.619,-2.6473,-2.6591,-2.6591,-2.6591,-2.6591,-2.6591,-2.6473,-2.6418,-2.6418,-2.6136,-2.5962,-2.5962,-2.5798,-2.5688,-2.5514,-2.5404,-2.518,-2.4674,-2.3881,-2.3003,-2.2029,-2.1928,-2.1878,-2.1725,-2.1623,-2.1522,-2.1522,-2.1377,-2.1275,-2.1275,-2.142,-2.1369,-2.1019,-2.1019,-2.0763,-2.0359,-2.0256,-1.9946,-1.9532,-1.9272,-1.8914,-1.8555,-1.8331,-1.8069,0.0,-1.7543,-1.7272,-1.7008,-1.6783,-1.663,-1.648,-1.6149,-1.5811,-1.5563,-1.517,-1.4942,-1.4817,-1.4926,-1.5028,-1.5086,-1.5197,-1.545,-1.5737,-1.5737,-1.5523,-1.5315,-1.5315,-1.5095,-1.4874,-1.4874,-1.4665,-1.445,-1.445,-1.424,-1.4029,-1.4029,-1.3753,-1.3537,-1.3537,-1.3315,-1.3098,-1.2935,-1.2713,-1.2441,-1.206,-1.1782,-1.1514,-1.1126,-1.1017,-1.0911,-1.0802,-1.0637,-1.0476,-1.0312,-1.0202,-0.9951,-0.9563,-0.9514,-0.9197,-0.8664,-0.857,-0.8346,-0.7988,-0.7988,-0.7988,-0.7988,-0.7988,-0.7988,0.0,-2.5688,-2.5852,-2.6418,-2.6591,-2.6582,-2.6582,-2.6582,0.0,-2.6537,-2.63,-2.6072,-2.6072,-2.5844,-2.5688,-2.5633,-2.5633,-2.5514,-2.5165,-2.4872,-2.4251,-2.2943,-2.2501,-2.2146,-2.1707,-2.1674,-2.1623,-2.1623,-2.1369,-2.1224,-2.1224,-2.0719,-2.047,-2.047,-2.0968,-2.0968,-2.0462,-2.047,-2.0344,-2.0048,-1.9738,-1.948,-1.9206,-1.8902,-1.8485,-1.7955,-1.7923,-1.7615,-1.7147,-1.7113,-1.6955,-1.6677,-1.6624,-1.6477,-1.6203,-1.5647,-1.5297,-1.5028,-1.4485,-1.4298,-1.434,-1.4557,-1.4815,-1.4975,-1.4716,-1.5035,-1.5452,-1.5458,-1.5244,-1.4987,-1.4987,-1.4767,-1.4552,-1.4552,-1.4401,-1.4191,-1.4196,-1.3921,-1.3694,-1.3699,-1.3423,-1.3261,-1.3261,-1.3044,-1.2881,-1.2881,-1.2387,-1.2005,-1.1951,-1.1455,-1.1072,-1.1072,-1.0857,-1.0582,-1.0312,-1.0312,-1.0257,-1.0257,-0.9926,-0.9578,-0.9201,-0.913,-0.8874,-0.8327,-0.831,-0.8184,-0.7988,-0.7988,-0.7988,-0.7988,-0.7988,-0.7988,-2.5238,0.0,-2.5798,-2.6127,-2.6418,-2.6527,0.0,-2.6236,-2.6181,-2.5962,-2.5852,-2.5789,-2.5789,-2.5505,-2.5229,-2.5064,-2.4859,-2.459,-2.4248,-2.3941,-2.3482,-2.2856,-2.2501,-2.2034,-2.146,-2.1224,-2.1019,-2.0822,-2.0557,-2.0388,-2.0388,-2.0241,-2.0189,-2.0189,-2.0344,-2.0344,-2.0189,-2.0189,-1.9905,-1.94,-1.9153,-1.8723,-1.8189,-1.7736,-1.7434,-1.7296,-1.711,-1.6951,-1.6808,-1.6607,-1.6483,-1.6371,-1.6158,-1.6051,-1.5931,-1.5403,-1.5157,-1.5028,-1.4485,-1.4298,-1.4262,-1.4147,-1.4294,-1.4451,-1.4152,-1.4606,-1.517,-1.4972,-1.4786,-1.4713,-1.4713,-1.4504,-1.4293,-1.4293,-1.4245,-1.4137,-1.3862,-1.3753,-1.3645,-1.3423,-1.3207,-1.2989,-1.2989,-1.2713,-1.2495,-1.2495,-1.2223,-1.1951,-1.1732,-1.135,-1.1017,-1.0802,-1.0527,-1.0366,-1.0312,-1.0312,-1.0091,-0.9655,-0.9544,-0.9308,-0.8824,-0.8704,-0.8556,-0.8327,-0.8153,-0.8025,-0.7988,-0.7988,-0.7988,-0.7988,-0.7988,-0.7988,-2.497,-2.5238,-2.5569,-2.5852,-2.6081,-2.6136,-2.5962,-2.5907,-2.5907,-2.5743,-2.5569,-2.545,-2.5284,-2.5017,-2.474,-2.4462,-2.4248,-2.4033,-2.3753,-2.3176,-2.2606,-2.2296,-2.1663,-2.1175,-2.0771,-2.0601,-2.0454,-2.0351,-2.0189,-2.0078,-2.0078,-1.9983,-1.9931,-1.9931,-1.953,-1.9456,-1.9696,-1.955,-1.9189,-1.8612,-1.8369,-1.7981,-1.7519,-1.722,-1.6971,-1.6734,-1.6583,-1.6394,-1.6151,-1.6131,-1.598,-1.5775,-1.5743,-1.563,-1.5453,-1.494,-1.4745,-1.4669,-1.4101,-1.3919,-1.3919,-1.3781,-1.3831,-1.3892,-1.3592,-1.3908,-1.4333,-1.4355,-1.4225,-1.4115,-1.4115,-1.3968,-1.3895,-1.3997,-1.3917,-1.3784,-1.3727,-1.3537,-1.3315,-1.3152,-1.2881,-1.2659,-1.2659,-1.2495,-1.2387,-1.2219,-1.2005,-1.1732,-1.1404,-1.1072,-1.0802,-1.0527,-1.0366,-1.0202,-0.9926,-0.9871,-0.9761,-0.9434,-0.9201,-0.8926,-0.8611,-0.8465,-0.8316,-0.8167,-0.8032,-0.7988,-0.7988,-0.7988,-0.7988,-0.7988,-0.7988,-0.7988,-2.4821,-2.5013,-2.5299,-2.5578,-2.5688,-2.5688,-2.5633,-2.5624,-2.5578,-2.5523,-2.5293,-2.5008,-2.4731,-2.447,-2.4209,-2.3809,-2.3697,-2.3504,-2.3231,-2.2433,-2.178,-2.1464,-2.0625,-2.0078,-2.0078,-2.0078,-2.0034,-2.0034,-1.9983,-1.9983,-1.9983,-1.9732,-1.9554,-1.9502,-1.873,-1.8492,-1.8879,-1.8686,-1.8304,-1.7796,-1.7549,-1.7273,-1.6984,-1.6885,-1.6587,-1.6195,-1.6134,0.0,-1.5456,-1.5639,-1.5463,-1.51,-1.5335,-1.5227,-1.4925,-1.451,-1.431,-1.4207,-1.3711,-1.3491,-1.3491,-1.3443,-1.3443,-1.3394,-1.3147,-1.3193,-1.3447,-1.3651,-1.3614,-1.348,-1.348,-1.348,-1.3523,-1.367,-1.3504,-1.3409,-1.3488,-1.3161,-1.2842,-1.2822,-1.2604,-1.2387,-1.2387,-1.2387,-1.2327,-1.206,-1.1787,-1.1459,-1.1126,-1.0857,-1.0582,-1.0312,-1.0257,-0.9981,-0.9434,-0.9379,-0.9323,-0.9323,-0.8957,-0.8632,-0.8459,-0.8309,-0.8174,-0.7992,-0.7988,-0.7988,-0.7988,-0.7988,-0.7988,-0.7988,-0.7988,-0.7988,-2.4821,-2.51,-2.5367,-2.5308,-2.5505,-2.5624,-2.534,-2.5284,-2.5174,-2.4701,-2.4543,-2.4423,-2.408,-2.3968,-2.3809,-2.3239,-2.2732,-2.2235,-2.195,-2.151,-2.1094,-2.081,-2.0375,-2.0078,-2.0078,-1.9879,-1.9783,-1.9783,-1.9524,-1.9428,-1.9428,-1.9175,-1.8903,-1.8629,-1.8258,-1.7873,-1.7442,-1.7655,-1.7577,-1.7218,-1.6981,-1.6663,-1.6313,-1.5924,-1.5726,-1.5595,0.0,-1.5258,-1.5177,-1.4951,-1.4985,-1.5076,-1.4926,-1.4911,-1.4953,-1.4663,-1.447,-1.4207,-1.3711,-1.3491,-1.3443,-1.3249,-1.3147,-1.3098,-1.2905,-1.2883,-1.2921,-1.2959,-1.3213,-1.348,-1.348,-1.348,-1.3434,-1.3266,-1.3168,-1.3075,-1.2833,-1.2723,-1.2617,-1.2516,-1.2441,-1.2387,-1.2387,-1.2387,-1.2327,-1.206,-1.1787,-1.1459,-1.1126,-1.0857,-1.0582,-1.0312,-1.0036,-0.9761,-0.9434,-0.9158,-0.8992,-0.8992,-0.8794,-0.8587,-0.8368,-0.8157,-0.8015,-0.7988,-0.7988,-0.7988,-0.7988,-0.7988,-0.7988,-0.7988,-0.7988,-0.7988,-2.4312,-2.458,-2.4815,-2.4808,-2.5047,-2.5151,-2.4822,-2.4606,-2.4406,-2.42,-2.4144,-2.3977,-2.352,-2.3408,-2.3239,-2.2619,-2.2279,-2.1994,-2.165,-2.1205,-2.0709,-2.0218,-1.9732,-1.9368,-1.9198,-1.9049,-1.8997,-1.8997,-1.89,-1.8795,-1.8795,-1.8542,-1.8334,-1.8186,-1.7602,-1.7147,-1.687,-1.6593,-1.6511,-1.6614,-1.6327,-1.6061,-1.5832,-1.5588,-1.535,-1.5077,0.0,-1.4728,-1.4461,-1.4477,-1.449,-1.4424,-1.4462,-1.4512,-1.4535,-1.4287,-1.4038,-1.3829,-1.3419,-1.3292,-1.327,-1.2997,-1.2953,-1.291,-1.2813,-1.2813,-1.2764,-1.2613,-1.2822,-1.3093,-1.2938,-1.2888,-1.2875,-1.2699,-1.2577,-1.2464,-1.26,-1.2462,-1.236,-1.2403,-1.2387,-1.2387,-1.2387,-1.2387,-1.2327,-1.206,-1.1787,-1.1459,-1.1126,-1.0857,-1.0582,-1.0312,-0.9981,-0.9706,-0.9434,-0.9103,-0.8814,-0.8703,-0.8625,-0.8455,-0.8157,-0.8025,-0.7988,-0.7988,-0.7988,-0.7988,-0.7988,-0.7988,-0.7988,-0.7988,-0.7988,-0.7988,-2.3921,-2.4185,-2.4408,-2.4236,-2.4515,-2.4735,-2.4466,-2.4072,-2.3809,-2.3697,-2.3641,-2.3408,-2.2901,-2.2675,-2.2449,-2.1945,-2.1707,-2.1478,-2.1148,-2.0599,-2.0057,-1.9522,-1.9065,-1.8698,-1.8422,-1.8422,-1.8422,-1.8422,-1.8422,-1.8394,-1.8317,-1.8042,-1.7853,-1.7714,-1.6908,-1.6496,-1.6421,-1.5754,-1.5642,-1.6028,-1.5737,-1.5547,-1.5404,-1.535,-1.5064,-1.4688,-1.464,-1.4358,-1.39,-1.4045,-1.3979,-1.3829,-1.4021,-1.4086,-1.4051,-1.3752,-1.3498,-1.3318,-1.3074,-1.2952,-1.2883,-1.2708,-1.2661,-1.2619,-1.2619,-1.2619,-1.257,-1.237,-1.2467,-1.257,-1.237,-1.2322,-1.2271,-1.2148,-1.2034,-1.1974,-1.2359,-1.2264,-1.2147,-1.2344,-1.2387,-1.2387,-1.2387,-1.2387,-1.2327,-1.206,-1.1787,-1.1459,-1.1126,-1.0857,-1.0582,-1.0312,-0.9981,-0.9651,-0.9323,-0.9047,-0.8821,-0.8554,-0.8503,-0.8364,-0.8106,-0.8008,-0.7988,-0.7988,-0.7988,-0.7988,-0.7988,-0.7988,-0.7988,-0.7988,-0.7988,-0.7988,-2.3921,-2.4177,-2.4335,-2.3711,-2.3999,-2.4408,-2.4408,-2.3958,-2.3416,-2.3135,-2.2853,-2.257,-2.2222,-2.1717,-2.1325,-2.1268,-2.0544,-1.985,-1.9596,-1.9224,-1.8914,-1.8545,-1.8436,-1.8422,-1.8422,-1.8422,-1.8422,-1.8422,-1.8422,-1.8296,-1.8016,-1.7784,-1.7369,-1.6807,-1.6244,-1.5842,-1.558,-1.528,-1.5267,-1.5547,-1.5267,-1.5131,-1.5131,-1.4885,-1.4742,-1.4688,-1.4448,-1.416,-1.3883,-1.3659,-1.3564,-1.3513,-1.3563,-1.3624,-1.3668,-1.3217,-1.3067,-1.3021,-1.2745,-1.2486,-1.2369,-1.2354,-1.2202,-1.2078,-1.2078,-1.2078,-1.2029,-1.2029,-1.2029,-1.2029,-1.2029,-1.2029,-1.1986,-1.1707,-1.1771,-1.188,-1.1845,-1.2002,-1.2147,-1.2344,-1.2387,-1.2387,-1.2387,-1.2387,-1.2327,-1.206,-1.1787,-1.1459,-1.1126,-1.0857,-1.0582,-1.0312,-0.9981,-0.9541,-0.8992,-0.894,-0.8814,-0.8706,-0.856,-0.8414,-0.8258,-0.8116,-0.7988,-0.7988,-0.7988,-0.7988,-0.7988,-0.7988,-0.7988,-0.7988,-0.7988,-0.7988,-2.2788,-2.304,-2.325,-2.3026,-2.3142,-2.3257,-2.3257,-2.2926,-2.257,-2.2456,-2.2343,-2.2116,-2.1603,-2.1024,-2.0558,-2.0359,-2.0055,-1.9633,-1.9136,-1.8961,-1.8719,-1.8209,-1.8167,-1.8115,-1.7898,-1.7898,-1.7823,-1.7691,-1.7677,-1.7541,-1.7191,-1.6957,-1.6605,-1.6224,-1.5844,-1.5508,-1.5267,-1.4981,-1.4885,-1.5022,-1.5083,-1.5035,-1.4838,-1.4742,-1.4592,-1.4448,-1.4166,-1.3877,-1.3642,-1.3346,-1.3242,-1.3247,-1.338,-1.3572,-1.3689,-1.3327,-1.3184,-1.3153,-1.2926,-1.2794,-1.2703,-1.2516,-1.2466,-1.239,-1.239,-1.2299,-1.2143,-1.1994,-1.1944,-1.1915,-1.1771,-1.1835,-1.1895,-1.1596,-1.1704,-1.1863,-1.1973,-1.2029,-1.2147,-1.2344,-1.2387,-1.2387,-1.2387,-1.2387,-1.2387,-1.2273,-1.1896,-1.1568,-1.1459,-1.0966,-1.0637,-1.0586,-1.0091,-0.9651,-0.9268,-0.8995,-0.8858,-0.8801,-0.871,-0.8557,-0.8408,-0.8347,-0.8272,-0.8184,-0.8184,-0.8136,-0.7988,-0.7988,-0.7988,-0.7988,-0.7988,-0.7892,-2.2116,-2.2169,-2.2286,-2.2178,-2.2113,-2.1989,-2.1873,-2.1817,-2.1831,-2.1831,-2.1653,-2.1425,-2.0974,-2.0507,-2.0057,-1.9744,-1.9444,-1.9098,-1.8584,-1.8319,-1.8076,-1.778,-1.7753,-1.7701,-1.7635,-1.7502,-1.7414,-1.7213,-1.7112,-1.6881,-1.6481,-1.6275,-1.6031,-1.5648,-1.5406,-1.5166,-1.4987,-1.4694,-1.4592,-1.4592,-1.4742,-1.4742,-1.4592,-1.4592,-1.4448,-1.416,-1.3979,-1.369,-1.3346,-1.3195,-1.309,-1.3047,-1.3112,-1.3265,-1.3423,-1.3098,-1.3039,-1.3019,-1.2865,-1.2766,-1.2687,-1.2486,-1.2393,-1.2334,-1.2334,-1.2235,-1.2122,-1.1919,-1.1868,-1.1829,-1.168,-1.1752,-1.1817,-1.1665,-1.177,-1.1907,-1.2053,-1.2137,-1.2222,-1.2358,-1.2387,-1.2387,-1.2387,-1.2387,-1.2387,-1.2387,-1.1946,-1.1623,-1.1623,-1.1076,-1.0692,-1.0582,-1.0198,-0.9816,-0.9541,-0.9213,-0.9047,-0.9047,-0.8896,-0.8713,-0.856,-0.8509,-0.8435,-0.834,-0.8344,-0.8218,-0.8113,-0.8012,-0.7988,-0.7988,-0.7988,-0.7842,-2.2059,-2.1824,-2.1539,-2.1268,-2.096,-2.0608,-2.0385,-2.0744,-2.1211,-2.1211,-2.068,-2.027,-2.027,-1.9982,-1.972,-1.9419,-1.8664,-1.7984,-1.7636,-1.7075,-1.6842,-1.7179,-1.7173,-1.7279,-1.7575,-1.7367,-1.7199,-1.7192,-1.6867,-1.6474,-1.5931,-1.5911,-1.5648,-1.5089,-1.4838,-1.4688,-1.4688,-1.4442,-1.4298,-1.4298,-1.4298,-1.4298,-1.4298,-1.4298,-1.416,-1.3883,-1.3883,-1.3593,-1.3098,-1.3098,-1.3039,-1.2951,-1.2694,-1.2705,-1.2876,-1.2495,-1.2387,-1.2387,-1.2387,-1.2255,-1.209,-1.209,-1.1944,-1.1822,-1.1822,-1.1822,-1.1817,-1.1817,-1.1817,-1.1817,-1.1817,-1.1822,-1.1822,-1.1817,-1.1987,-1.209,-1.209,-1.2245,-1.2387,-1.2387,-1.2387,-1.2387,-1.2387,-1.2387,-1.2387,-1.2387,-1.1946,-1.1623,-1.1568,-1.1076,-1.0582,-1.0312,-1.0312,-1.0147,-0.9816,-0.9544,-0.9379,-0.9379,-0.9103,-0.8869,-0.872,-0.8567,-0.8486,-0.8482,-0.8343,-0.8323,-0.8323,-0.8116,-0.7988,-0.7988,-0.7988,-0.7842,-2.0902,-2.073,-2.0673,-2.0565,-2.05,-2.0328,-2.004,-2.0277,-2.0565,-2.0565,-2.0046,-1.9584,-1.9584,-1.9178,-1.8667,-1.8186,-1.7925,-1.7588,-1.7034,-1.6787,-1.673,-1.6842,-1.6669,-1.66,-1.6704,-1.6503,-1.6257,-1.6006,-1.5909,-1.5686,-1.5361,-1.5348,-1.5166,-1.4838,-1.4742,-1.4592,-1.4442,-1.4346,-1.4208,-1.4022,-1.4022,-1.4022,-1.4022,-1.4022,-1.3877,-1.3588,-1.3443,-1.3244,-1.3098,-1.2953,-1.2838,-1.2774,-1.2633,-1.2616,-1.268,-1.2443,-1.2387,-1.2387,-1.2387,-1.2344,-1.2297,-1.2297,-1.2255,-1.2203,-1.2203,-1.21,-1.1991,-1.1991,-1.1991,-1.1991,-1.1991,-1.2095,-1.2165,-1.2024,-1.2147,-1.2297,-1.2297,-1.2344,-1.2387,-1.2387,-1.2387,-1.2387,-1.2387,-1.2387,-1.2387,-1.2387,-1.1946,-1.1459,-1.1021,-1.0802,-1.0692,-1.0582,-1.0417,-1.0257,-1.0147,-0.9871,-0.9596,-0.9434,-0.9323,-0.9137,-0.8872,-0.8828,-0.8754,-0.8645,-0.8496,-0.837,-0.8323,-0.8116,-0.7988,-0.7988,-0.7793,-0.7593,-2.0328,-2.0104,-1.9931,-1.9931,-1.9693,-1.9461,-1.9287,-1.9519,-1.9693,-1.9577,-1.9236,-1.8946,-1.8946,-1.8655,-1.8237,-1.7684,-1.7539,-1.7226,-1.6606,-1.6471,-1.6418,-1.6524,-1.6285,-1.6168,-1.6271,-1.6024,-1.573,-1.5509,-1.5395,-1.5206,-1.4946,-1.4933,-1.4838,-1.4544,-1.4544,-1.44,-1.416,-1.416,-1.4022,-1.3738,-1.3738,-1.369,-1.3593,-1.369,-1.3593,-1.3346,-1.3104,-1.3001,-1.2953,-1.2861,-1.2703,-1.2535,-1.2557,-1.2524,-1.238,-1.2419,-1.2387,-1.2387,-1.2387,-1.2387,-1.2387,-1.2387,-1.2387,-1.2387,-1.2387,-1.2302,-1.2257,-1.2369,-1.2422,-1.2422,-1.2529,-1.2675,-1.2684,-1.229,-1.2297,-1.2387,-1.2387,-1.2387,-1.2387,-1.2387,-1.2387,-1.2387,-1.2387,-1.2387,-1.2387,-1.2387,-1.1946,-1.1404,-1.0802,-1.0692,-1.0692,-1.0692,-1.0586,-1.0472,-1.0472,-1.0202,-0.9926,-0.9765,-0.9655,-0.9434,-0.9103,-0.8995,-0.8841,-0.8804,-0.8591,-0.8438,-0.8353,-0.8143,-0.7988,-0.7988,-0.7746,-0.7444,-2.0148,-1.97,-1.9243,-1.9243,-1.8771,-1.8363,-1.8363,-1.8532,-1.8648,-1.848,-1.8363,-1.8363,-1.8363,-1.8363,-1.8121,-1.7628,-1.7309,-1.695,-1.6351,-1.6051,-1.5992,-1.6187,-1.5999,-1.5923,-1.6144,-1.5713,-1.5409,-1.5409,-1.5175,-1.4933,-1.4694,-1.464,-1.4544,-1.4298,-1.4298,-1.416,-1.3883,-1.3883,-1.3738,-1.3443,-1.3443,-1.3346,-1.3098,-1.3346,-1.3298,-1.305,-1.2856,-1.2813,-1.2813,-1.2764,-1.255,-1.2264,-1.2501,-1.2353,-1.2085,-1.2302,-1.2387,-1.2387,-1.2387,-1.2387,-1.2387,-1.2387,-1.2387,-1.2387,-1.2387,-1.2441,-1.2495,-1.2827,-1.2935,-1.2989,-1.3261,-1.3315,-1.3152,-1.2604,-1.2441,-1.2441,-1.2387,-1.2387,-1.2387,-1.2387,-1.2387,-1.2387,-1.2387,-1.2387,-1.2382,-1.2332,-1.1896,-1.1404,-1.0802,-1.0692,-1.0692,-1.0692,-1.0692,-1.0692,-1.0692,-1.0476,-1.0312,-1.0312,-1.0036,-0.9706,-0.9434,-0.9103,-0.8937,-0.8885,-0.8638,-0.8482,-0.8482,-0.8184,-0.7988,-0.7988,-0.7693,-0.7444,-1.888,-1.8706,-1.8596,-1.8596,-1.8311,-1.8083,-1.8083,-1.7726,-1.7602,-1.8246,-1.8252,-1.8083,-1.8083,-1.7843,-1.7542,-1.6954,-1.6868,-1.6624,-1.6071,-1.5945,-1.5866,-1.5712,-1.5457,-1.5214,-1.5052,-1.4728,-1.4582,-1.4582,-1.452,-1.4442,-1.4394,-1.4394,-1.4346,-1.4298,-1.4118,-1.3979,-1.3883,-1.369,-1.3443,-1.3195,-1.3195,-1.305,-1.2861,-1.3104,-1.3055,-1.2861,-1.2813,-1.2813,-1.2759,-1.257,-1.2304,-1.2092,-1.2237,-1.2105,-1.1931,-1.225,-1.2387,-1.2387,-1.2387,-1.2387,-1.2387,-1.2387,-1.2387,-1.2387,-1.2387,-1.2604,-1.2827,-1.2881,-1.3044,-1.3207,-1.3315,-1.3315,-1.3261,-1.3152,-1.2935,-1.2718,-1.2441,-1.2387,-1.2387,-1.2387,-1.2387,-1.2387,-1.2387,-1.2387,-1.2278,-1.1841,-1.1678,-1.1404,-1.0802,-1.0692,-1.0692,-1.0692,-1.0692,-1.0692,-1.0692,-1.0637,-1.0527,-1.0312,-1.0257,-1.0036,-0.9706,-0.9434,-0.9158,-0.8885,-0.8638,-0.8482,-0.8482,-0.8184,-0.7988,-0.7988,-0.749,-0.7238,-1.8205,-1.7993,-1.7728,-1.7566,-1.7367,-1.7256,-1.7256,-1.7015,-1.6897,-1.742,-1.7367,-1.7256,-1.7256,-1.7132,-1.6844,-1.6321,-1.6352,-1.6285,-1.5761,-1.5838,-1.5795,-1.5529,-1.527,-1.5004,-1.4745,-1.4461,-1.4298,-1.4298,-1.4298,-1.4298,-1.4298,-1.4298,-1.425,-1.4112,-1.3973,-1.3786,-1.3539,-1.3394,-1.3195,-1.2958,-1.2958,-1.291,-1.2813,-1.2905,-1.291,-1.2813,-1.2813,-1.2716,-1.2613,-1.2467,-1.2175,-1.1825,-1.2115,-1.2024,-1.1869,-1.2231,-1.2387,-1.2387,-1.2387,-1.2387,-1.2387,-1.2387,-1.2387,-1.2436,-1.2604,-1.2772,-1.2935,-1.3207,-1.3369,-1.3532,-1.3699,-1.3753,-1.3699,-1.3532,-1.3207,-1.2827,-1.2659,-1.2495,-1.2387,-1.2387,-1.2387,-1.2387,-1.2387,-1.2387,-1.2273,-1.1841,-1.1678,-1.1404,-1.0966,-1.0802,-1.0692,-1.0692,-1.0692,-1.0692,-1.0692,-1.0692,-1.0637,-1.0472,-1.0472,-1.0363,-1.0036,-0.9926,-0.9559,-0.905,-0.8707,-0.8448,-0.8381,-0.815,-0.7988,-0.7988,-0.759,-0.7391,-1.7635,-1.7342,-1.6865,-1.6592,-1.6478,-1.6478,-1.6478,-1.6478,-1.6419,-1.6419,-1.6478,-1.6478,-1.6478,-1.6478,-1.6372,-1.5858,-1.6003,-1.6002,-1.5552,-1.5684,-1.5724,-1.5469,-1.524,-1.4986,-1.4672,-1.4431,-1.4298,-1.4298,-1.4298,-1.4298,-1.4298,-1.4298,-1.416,-1.3931,-1.3883,-1.3593,-1.3098,-1.305,-1.2958,-1.2813,-1.2813,-1.2813,-1.2813,-1.2813,-1.2813,-1.2813,-1.2764,-1.2619,-1.237,-1.2322,-1.198,-1.1624,-1.1974,-1.1944,-1.1865,-1.2194,-1.2354,-1.2387,-1.2387,-1.2387,-1.2387,-1.2387,-1.2441,-1.255,-1.2827,-1.2935,-1.3152,-1.3586,-1.3753,-1.3862,-1.4137,-1.4196,-1.4137,-1.3862,-1.3374,-1.2935,-1.2935,-1.2659,-1.2495,-1.2387,-1.2387,-1.2387,-1.2387,-1.2387,-1.2327,-1.206,-1.1787,-1.1514,-1.1126,-1.0911,-1.0747,-1.0692,-1.0692,-1.0692,-1.0692,-1.0692,-1.0692,-1.0692,-1.0692,-1.0582,-1.0366,-1.0312,-0.9956,-0.9305,-0.8821,-0.8463,-0.8323,-0.8116,-0.7988,-0.7988,-0.7746,-0.7593,-1.6502,-1.6405,-1.635,-1.6474,-1.6478,-1.6478,-1.6478,-1.6312,-1.614,-1.614,-1.6366,-1.6478,-1.6478,-1.6478,-1.6372,-1.5858,-1.5834,-1.5773,-1.5552,-1.5535,-1.5458,-1.517,-1.5131,-1.4908,-1.4401,-1.4322,-1.4298,-1.4298,-1.4298,-1.4298,-1.4298,-1.4298,-1.416,-1.3931,-1.369,-1.3394,-1.3098,-1.291,-1.2813,-1.2813,-1.2813,-1.2813,-1.2813,-1.2813,-1.2813,-1.2813,-1.2565,-1.2419,-1.237,-1.1883,-1.1683,-1.1609,-1.1613,-1.1666,-1.1846,-1.2038,-1.2236,-1.2387,-1.2387,-1.2387,-1.2387,-1.2387,-1.2604,-1.2827,-1.2881,-1.3207,-1.3586,-1.3699,-1.3921,-1.4137,-1.4191,-1.4196,-1.4191,-1.4137,-1.3699,-1.3207,-1.2935,-1.2881,-1.2767,-1.2441,-1.2387,-1.2387,-1.2387,-1.2387,-1.2327,-1.206,-1.1951,-1.1732,-1.1181,-1.1072,-1.0966,-1.0747,-1.0692,-1.0692,-1.0692,-1.0692,-1.0692,-1.0692,-1.0692,-1.0692,-1.0637,-1.0421,-1.0066,-0.957,-0.9082,-0.8671,-0.8323,-0.8116,-0.7988,-0.7988,-0.7746,-0.759,-1.5632,-1.5762,-1.5905,-1.5784,-1.5906,-1.6011,-1.6011,-1.5893,-1.5844,-1.5844,-1.5898,-1.6011,-1.6011,-1.5842,-1.569,-1.5337,-1.5333,-1.5348,-1.5254,-1.5369,-1.5394,-1.5122,-1.5107,-1.4896,-1.4346,-1.4298,-1.4298,-1.4298,-1.4298,-1.4298,-1.4298,-1.4298,-1.4112,-1.369,-1.3539,-1.3298,-1.2958,-1.2861,-1.2813,-1.2813,-1.2813,-1.2813,-1.2813,-1.2813,-1.2716,-1.257,-1.2467,-1.2224,-1.1932,-1.1688,-1.1487,-1.1364,-1.1485,-1.1638,-1.1846,-1.2006,-1.2212,-1.2387,-1.2387,-1.2387,-1.2387,-1.2387,-1.2604,-1.2935,-1.3098,-1.3369,-1.3753,-1.3916,-1.4083,-1.4196,-1.4196,-1.4196,-1.4196,-1.4196,-1.3862,-1.3423,-1.3207,-1.2876,-1.2604,-1.2436,-1.2387,-1.2387,-1.2387,-1.2387,-1.2387,-1.2223,-1.2114,-1.1896,-1.1618,-1.1455,-1.135,-1.124,-1.1185,-1.1131,-1.0966,-1.0907,-1.0857,-1.0692,-1.0692,-1.0692,-1.0692,-1.0582,-1.0319,-0.9846,-0.9235,-0.8689,-0.8309,-0.8076,-0.7988,-0.7988,-0.7892,-0.7839,-1.4845,-1.5019,-1.5246,-1.4971,-1.5099,-1.5274,-1.5274,-1.5322,-1.5364,-1.5477,-1.5477,-1.5461,-1.5521,-1.5306,-1.5113,-1.4923,-1.4859,-1.4894,-1.4968,-1.5208,-1.5288,-1.5122,-1.5107,-1.4896,-1.4346,-1.4298,-1.4298,-1.4298,-1.4298,-1.4298,-1.4298,-1.4298,-1.4058,-1.3539,-1.3491,-1.3249,-1.2813,-1.2813,-1.2813,-1.2813,-1.2813,-1.2813,-1.2813,-1.2813,-1.2619,-1.2322,-1.2322,-1.2029,-1.1585,-1.1541,-1.1389,-1.1208,-1.1373,-1.1595,-1.1836,-1.1944,-1.2165,-1.2387,-1.2387,-1.2387,-1.2387,-1.2387,-1.2659,-1.3044,-1.3261,-1.3537,-1.3862,-1.4137,-1.4196,-1.4196,-1.4196,-1.4196,-1.4191,-1.4083,-1.3807,-1.3532,-1.3261,-1.2767,-1.2387,-1.2387,-1.2387,-1.2387,-1.2387,-1.2387,-1.2387,-1.2387,-1.2219,-1.206,-1.2005,-1.1841,-1.1678,-1.1623,-1.1623,-1.1514,-1.1236,-1.1126,-1.1017,-1.0802,-1.0747,-1.0692,-1.0692,-1.0692,-1.0498,-1.0057,-0.9402,-0.8874,-0.8422,-0.8204,-0.8029,-0.7988,-0.7988,-0.7988,-1.4187,-1.4164,-1.4176,-1.4065,-1.4227,-1.4384,-1.4384,-1.4493,-1.4769,-1.5056,-1.511,-1.5166,-1.5189,-1.5199,-1.5113,-1.4923,-1.4686,-1.4614,-1.4968,-1.5041,-1.5065,-1.5065,-1.5107,-1.4896,-1.4346,-1.4298,-1.4298,-1.4298,-1.4298,-1.4298,-1.4298,-1.4298,-1.4058,-1.3539,-1.3491,-1.3249,-1.2813,-1.2813,-1.2813,-1.2813,-1.2813,-1.2813,-1.2813,-1.2813,-1.2516,-1.2024,-1.2024,-1.1878,-1.1585,-1.134,-1.1194,-1.1194,-1.1208,-1.1458,-1.1817,-1.1831,-1.2038,-1.2387,-1.2387,-1.2387,-1.2387,-1.2387,-1.2822,-1.3261,-1.3315,-1.3699,-1.4191,-1.4196,-1.4196,-1.4196,-1.4196,-1.4196,-1.4137,-1.3807,-1.3537,-1.3261,-1.2989,-1.2659,-1.2387,-1.2387,-1.2387,-1.2387,-1.2387,-1.2387,-1.2387,-1.2387,-1.2382,-1.2278,-1.2005,-1.2005,-1.1896,-1.1623,-1.1623,-1.1568,-1.1568,-1.1291,-1.1072,-1.1072,-1.0852,-1.0692,-1.0692,-1.0692,-1.0578,-1.0292,-0.9838,-0.9264,-0.8674,-0.84,-0.8184,-0.7988,-0.7988,-0.7988,-1.365,-1.3749,-1.3831,-1.3801,-1.3937,-1.4104,-1.4104,-1.4164,-1.4283,-1.4672,-1.473,-1.4766,-1.4974,-1.5015,-1.4934,-1.4697,-1.4466,-1.4445,-1.4945,-1.4987,-1.5069,-1.5351,-1.5209,-1.4968,-1.46,-1.4401,-1.4298,-1.4298,-1.4298,-1.4298,-1.4298,-1.4298,-1.4058,-1.3539,-1.3491,-1.3249,-1.2813,-1.2813,-1.2813,-1.2813,-1.2813,-1.2813,-1.2813,-1.2813,-1.2613,-1.2273,-1.2078,-1.1731,-1.1345,-1.1243,-1.1194,-1.1194,-1.1194,-1.1449,-1.1817,-1.1817,-1.2029,-1.2387,-1.2387,-1.2387,-1.2441,-1.2659,-1.2985,-1.3315,-1.3478,-1.3862,-1.4196,-1.4196,-1.4196,-1.4196,-1.4196,-1.4196,-1.4083,-1.3537,-1.3261,-1.2935,-1.2659,-1.2495,-1.2387,-1.2387,-1.2387,-1.2387,-1.2387,-1.2387,-1.2387,-1.2387,-1.2387,-1.2387,-1.2273,-1.2278,-1.2223,-1.2114,-1.2114,-1.2064,-1.1855,-1.1746,-1.1522,-1.1143,-1.1034,-1.0865,-1.0692,-1.0692,-1.0637,-1.0586,-1.0194,-0.9701,-0.9002,-0.8549,-0.8264,-0.8177,-0.8049,-0.7988,-1.3158,-1.3245,-1.3312,-1.3202,-1.3376,-1.3593,-1.3593,-1.3648,-1.3811,-1.4262,-1.4318,-1.4406,-1.4727,-1.4767,-1.4713,-1.4507,-1.4396,-1.4509,-1.4934,-1.5095,-1.5269,-1.5477,-1.5348,-1.5101,-1.4751,-1.4552,-1.4401,-1.4304,-1.4298,-1.4298,-1.4298,-1.4298,-1.4058,-1.3539,-1.3346,-1.3104,-1.2813,-1.2813,-1.2813,-1.2813,-1.2813,-1.2813,-1.2813,-1.2813,-1.2667,-1.237,-1.2224,-1.1829,-1.134,-1.1243,-1.1194,-1.1194,-1.1194,-1.1449,-1.1817,-1.1817,-1.2029,-1.2387,-1.2387,-1.2387,-1.2441,-1.2772,-1.3098,-1.3369,-1.3645,-1.3916,-1.4196,-1.4196,-1.4196,-1.4196,-1.4196,-1.4029,-1.3807,-1.3428,-1.2989,-1.2659,-1.2441,-1.2387,-1.2387,-1.2387,-1.2387,-1.2387,-1.2387,-1.2387,-1.2387,-1.2387,-1.2387,-1.2387,-1.2387,-1.2387,-1.2387,-1.2387,-1.2387,-1.2337,-1.2128,-1.2069,-1.1796,-1.1308,-1.1147,-1.0979,-1.0692,-1.0692,-1.0692,-1.0692,-1.0421,-1.004,-0.9548,-0.8909,-0.8542,-0.8412,-0.8231,-0.8089,0.0,0.0,0.0,-1.2182,-1.2436,-1.2794,-1.2804,-1.2956,-1.3269,-1.3853,-1.3967,-1.4071,-1.4457,-1.4469,-1.4469,-1.4469,-1.4543,-1.4713,-1.4982,-1.5315,-1.5494,-1.5489,-1.5499,-1.53,-1.4787,-1.4727,-1.4606,-1.4328,-1.4298,-1.4298,-1.4298,-1.4298,-1.4064,-1.3539,-1.3055,-1.2813,-1.2813,-1.2813,-1.2813,-1.2813,-1.2813,-1.2813,-1.2813,-1.2813,-1.2667,-1.2419,-1.2419,-1.2127,-1.1585,-1.134,-1.1194,-1.1194,-1.1194,-1.1449,-1.1817,-1.1817,-1.2029,-1.2387,-1.2387,-1.2387,-1.2441,-1.2827,-1.3098,-1.3369,-1.3645,-1.3916,-1.4196,-1.4196,-1.4196,-1.4196,-1.4196,-1.3753,-1.3315,-1.3315,-1.2876,-1.2436,-1.2436,-1.2436,-1.2441,-1.2387,-1.2387,-1.2387,-1.2387,-1.2387,-1.2387,-1.2387,-1.2387,-1.2387,-1.2387,-1.2387,-1.2387,-1.2387,-1.2387,-1.2387,-1.2387,-1.2155,-1.1882,-1.1623,-1.1308,-1.0979,-1.0692,-1.0692,-1.0692,-1.0692,-1.0417,-1.0312,-1.0312,-0.9594,-0.9036,-0.8739,-0.8425,-0.8238,-1.2445,0.0,0.0,0.0,0.0,0.0,-1.228,-1.2523,-1.2876,-1.3417,-1.3667,-1.3871,-1.4244,-1.4288,-1.4288,-1.4288,-1.444,-1.4713,-1.4982,-1.5315,-1.5559,-1.5795,-1.5614,-1.5445,-1.5294,-1.4938,-1.4684,-1.4606,-1.4413,-1.4298,-1.4298,-1.4112,-1.3925,-1.3786,-1.3298,-1.3001,-1.3001,-1.2861,-1.2813,-1.2813,-1.2813,-1.2813,-1.2813,-1.2813,-1.2764,-1.2667,-1.2467,-1.2322,-1.2127,-1.1683,-1.1487,-1.1487,-1.1292,-1.1449,-1.1817,-1.1817,-1.2029,-1.2387,-1.2387,-1.2387,-1.2495,-1.3044,-1.3261,-1.3428,-1.3921,-1.4137,-1.4196,-1.4196,-1.4196,-1.4196,-1.4196,-1.3916,-1.3591,-1.3591,-1.3315,-1.3044,-1.3044,-1.3044,-1.293,-1.2495,-1.2387,-1.2387,-1.2387,-1.2387,-1.2387,-1.2387,-1.2387,-1.2387,-1.2387,-1.2387,-1.2387,-1.2387,-1.2387,-1.2387,-1.2387,-1.2327,-1.2169,-1.191,-1.1641,-1.1308,-1.1021,-1.0802,-1.0692,-1.0692,-1.0637,-1.0582,-1.0582,-0.9865,-0.9465,-0.9319,-0.9035,-0.8787,-1.2381,-1.2289,-1.2205,-1.2052,0.0,0.0,-1.2292,-1.2478,-1.2728,-1.3118,-1.3374,-1.3661,-1.3981,-1.4121,-1.4245,-1.4347,-1.4611,-1.4821,-1.4987,-1.5363,-1.5737,-1.5891,-1.5864,-1.5783,-1.5667,-1.5381,-1.5106,-1.4875,-1.4612,-1.4419,-1.4304,-1.407,-1.3883,-1.3883,-1.3491,-1.3195,-1.3098,-1.3001,-1.2856,-1.2813,-1.2813,-1.2813,-1.2813,-1.2813,-1.2813,-1.2813,-1.2613,-1.257,-1.2516,-1.2127,-1.1878,-1.1731,-1.1487,-1.1599,-1.1972,-1.1817,-1.2029,-1.2387,-1.2387,-1.2387,-1.2495,-1.3098,-1.3315,-1.3423,-1.4029,-1.4196,-1.4196,-1.4196,-1.4083,-1.3975,-1.3975,-1.3753,-1.3586,-1.3645,-1.3478,-1.3315,-1.3315,-1.3315,-1.3207,-1.2822,-1.2767,-1.2767,-1.2767,-1.2772,-1.2777,-1.2777,-1.2777,-1.2777,-1.2777,-1.2668,-1.2614,-1.2614,-1.25,-1.2387,-1.2387,-1.2387,-1.2282,-1.2014,-1.185,-1.1577,-1.1131,-1.0966,-1.0802,-1.0692,-1.0692,-1.0692,-1.0692,-1.0151,-0.9796,-0.9609,-0.9231,-0.9026,-1.2382,-1.2322,-1.2218,-1.2243,-1.2345,0.0,-1.2546,-1.2607,-1.2669,-1.2951,-1.3216,-1.3467,-1.3782,-1.4018,-1.4282,-1.4561,-1.4835,-1.5007,-1.5035,-1.5517,-1.5891,-1.5945,-1.6164,-1.6231,-1.5989,-1.594,-1.5755,-1.5227,-1.4894,-1.4564,-1.431,-1.407,-1.3931,-1.3931,-1.3684,-1.3443,-1.3195,-1.3147,-1.3001,-1.2813,-1.2813,-1.2813,-1.2813,-1.2813,-1.2813,-1.2813,-1.2813,-1.2813,-1.2759,-1.2516,-1.2273,-1.2029,-1.1731,-1.1849,-1.2179,-1.1921,-1.2029,-1.2387,-1.2387,-1.2387,-1.2495,-1.3098,-1.3315,-1.3423,-1.4029,-1.4196,-1.4137,-1.4083,-1.3921,-1.3699,-1.3699,-1.3537,-1.3478,-1.3699,-1.3586,-1.3428,-1.3428,-1.3428,-1.3428,-1.3428,-1.3374,-1.332,-1.332,-1.3276,-1.3281,-1.3281,-1.3281,-1.3281,-1.3281,-1.3064,-1.2955,-1.29,-1.2614,-1.2441,-1.2387,-1.2387,-1.2278,-1.206,-1.2005,-1.1782,-1.1236,-1.1181,-1.1021,-1.0747,-1.0692,-1.0692,-1.0692,-1.0472,-1.0112,-0.9666,-0.9372,-0.9225,-1.2194,-1.1947,-1.1786,-1.1738,-1.1766,0.0,-1.2254,-1.2526,-1.2723,-1.2966,-1.325,-1.3545,-1.3808,-1.3898,-1.4095,-1.4552,-1.489,-1.5176,-1.5393,-1.5684,-1.5998,-1.6217,-1.6271,-1.6352,-1.6554,-1.6352,-1.608,-1.5752,-1.5114,-1.4599,-1.4298,-1.425,-1.4202,-1.4202,-1.3973,-1.3786,-1.3738,-1.3298,-1.3098,-1.305,-1.2856,-1.2813,-1.2813,-1.2813,-1.2813,-1.2813,-1.2813,-1.2813,-1.2813,-1.2759,-1.2565,-1.2273,-1.178,-1.1849,-1.2179,-1.1921,-1.2029,-1.2387,-1.2387,-1.2387,-1.2495,-1.3098,-1.3315,-1.3423,-1.4029,-1.4029,-1.3753,-1.3537,-1.3586,-1.3699,-1.3699,-1.3862,-1.4029,-1.4083,-1.4083,-1.4029,-1.4029,-1.4029,-1.4029,-1.4029,-1.3655,-1.3281,-1.3281,-1.3315,-1.33,-1.33,-1.33,-1.33,-1.33,-1.3246,-1.3142,-1.294,-1.2827,-1.2713,-1.2441,-1.2387,-1.2387,-1.2332,-1.2114,-1.1951,-1.1841,-1.1623,-1.135,-1.1021,-1.0802,-1.0692,-1.0692,-1.0637,-1.0494,-1.0218,-1.0199,-1.0092,-1.2319,-1.214,-1.2029,-1.1874,-1.1853,0.0,0.0,-1.2389,-1.2602,-1.2871,-1.323,-1.3595,-1.3853,-1.4005,-1.4174,-1.4562,-1.4888,-1.5241,-1.5615,-1.5925,-1.6164,-1.6271,-1.659,-1.6802,-1.6955,-1.6826,-1.6516,-1.5941,-1.5297,-1.479,-1.4496,-1.4496,-1.4448,-1.4298,-1.416,-1.4022,-1.3883,-1.3642,-1.3346,-1.3098,-1.3001,-1.291,-1.2813,-1.2813,-1.2813,-1.2813,-1.2813,-1.2813,-1.2813,-1.2813,-1.2716,-1.2565,-1.2029,-1.2049,-1.2334,-1.1972,-1.2029,-1.2387,-1.2387,-1.2387,-1.2495,-1.2935,-1.3098,-1.3207,-1.3645,-1.3645,-1.3423,-1.3207,-1.3315,-1.3478,-1.3478,-1.3699,-1.3975,-1.4142,-1.4196,-1.4196,-1.4196,-1.4196,-1.4196,-1.4196,-1.398,-1.3769,-1.3769,-1.3753,-1.3743,-1.3743,-1.3743,-1.3743,-1.3743,-1.3576,-1.3472,-1.3315,-1.3044,-1.2827,-1.2659,-1.2495,-1.2387,-1.2387,-1.218,-1.1967,-1.1859,-1.1599,-1.1332,-1.1007,-1.0837,-1.0725,-1.0725,-1.0706,-1.0647,-1.0562,-1.0477,-1.0387,-1.2479,-1.2354,-1.2287,-1.2195,-1.2161,-1.2177,0.0,0.0,0.0,-1.272,-1.3112,-1.3511,-1.3762,-1.4061,-1.4346,-1.4708,-1.5022,-1.5328,-1.5855,-1.6181,-1.6427,-1.6477,-1.6908,-1.7232,-1.7279,-1.718,-1.6814,-1.6042,-1.5492,-1.5077,-1.479,-1.4736,-1.4592,-1.4394,-1.4346,-1.4208,-1.3979,-1.3931,-1.3642,-1.3195,-1.3098,-1.3007,-1.2813,-1.2813,-1.2813,-1.2813,-1.2813,-1.2813,-1.2813,-1.2813,-1.2813,-1.2764,-1.2224,-1.2248,-1.254,-1.2024,-1.2029,-1.2387,-1.2387,-1.2387,-1.2441,-1.2772,-1.2935,-1.2989,-1.3152,-1.3207,-1.3152,-1.2881,-1.3044,-1.3315,-1.3315,-1.3537,-1.3862,-1.4137,-1.4196,-1.4196,-1.4196,-1.4196,-1.4196,-1.4196,-1.4196,-1.4196,-1.4196,-1.4196,-1.4196,-1.4196,-1.4196,-1.4196,-1.4196,-1.3975,-1.3753,-1.3699,-1.3315,-1.3044,-1.2989,-1.2659,-1.2476,-1.2438,-1.2228,-1.2014,-1.1712,-1.1494,-1.1248,-1.0984,-1.0883,-1.0822,-1.0913,-1.0791,-1.0714,-1.0688,-1.055,-1.0485,-1.2543,-1.2251,-1.2093,-1.2309,-1.2365,-1.2422,-1.2586,0.0,-1.2682,-1.2728,0.0,-1.3231,-1.352,0.0,0.0,-1.4949,-1.5288,-1.5543,-1.5865,-1.6356,-1.6782,-1.7041,-1.7179,-1.7279,-1.7529,-1.7063,-1.6629,-1.6275,-1.5778,-1.5356,-1.5083,-1.4838,-1.4688,-1.464,-1.4442,-1.4298,-1.425,-1.4022,-1.3738,-1.3443,-1.3195,-1.3007,-1.2813,-1.2813,-1.2813,-1.2813,-1.2813,-1.2813,-1.2813,-1.2813,-1.2813,-1.2764,-1.2224,-1.2248,-1.254,-1.2024,-1.2029,-1.2387,-1.2387,-1.2387,-1.2441,-1.2772,-1.3044,-1.3207,-1.2989,-1.2935,-1.2881,-1.255,-1.2876,-1.3315,-1.3315,-1.3699,-1.4137,-1.4191,-1.4196,-1.4196,-1.4196,-1.4196,-1.4196,-1.4196,-1.4196,-1.4196,-1.4196,-1.4196,-1.4196,-1.4196,-1.4196,-1.4196,-1.4196,-1.4196,-1.4029,-1.3753,-1.364,-1.3537,-1.3261,-1.2989,-1.2749,-1.2617,-1.2259,-1.2001,-1.1808,-1.1521,-1.1403,-1.1351,-1.1058,-1.1002,-1.1234,-1.0935,-1.0758,-1.0692,-1.0672,-1.0664,-1.2886,-1.2629,-1.2398,-1.2417,-1.2279,-1.2182,-1.2279,-1.2416,-1.2608,-1.2876,0.0,0.0,0.0,0.0,0.0,0.0,-1.5345,-1.5635,-1.6068,-1.6467,-1.6777,-1.6873,-1.7338,-1.7634,-1.7615,-1.7215,-1.6746,-1.6325,-1.5921,-1.5588,-1.5356,-1.5213,-1.5022,-1.4694,-1.4592,-1.4442,-1.4298,-1.4208,-1.4022,-1.3738,-1.3443,-1.3201,-1.2953,-1.2861,-1.2813,-1.2813,-1.2813,-1.2813,-1.2813,-1.2813,-1.2813,-1.2764,-1.237,-1.2403,-1.254,-1.2179,-1.2188,-1.2387,-1.2387,-1.2387,-1.2441,-1.255,-1.2713,-1.2767,-1.2659,-1.2604,-1.2604,-1.2659,-1.2985,-1.3315,-1.3478,-1.3862,-1.4196,-1.4196,-1.4196,-1.4196,-1.4196,-1.4196,-1.4196,-1.4196,-1.4196,-1.4196,-1.4196,-1.4196,-1.4196,-1.4196,-1.4196,-1.4196,-1.4196,-1.4196,-1.4137,-1.4029,-1.3807,-1.364,-1.3532,-1.3315,-1.3057,-1.2838,-1.2276,-1.1834,-1.1463,-1.1358,-1.1253,-1.1253,-1.112,-1.1075,-1.116,-1.0913,-1.0791,-1.0762,-1.0698,-1.0692,-1.3313,-1.3094,-1.2875,-1.2711,-1.2546,-1.2381,-1.2381,-1.2522,-1.2788,-1.31,-1.3395,0.0,0.0,0.0,0.0,0.0,0.0,-1.5953,-1.6312,-1.6614,-1.6811,-1.6923,-1.7479,-1.7784,-1.7571,-1.7225,-1.681,-1.6439,-1.6047,-1.573,-1.5588,-1.554,-1.5302,-1.4838,-1.4742,-1.4592,-1.4298,-1.4298,-1.416,-1.3883,-1.3642,-1.3346,-1.3098,-1.291,-1.2813,-1.2813,-1.2813,-1.2813,-1.2813,-1.2813,-1.2813,-1.2759,-1.2565,-1.2566,-1.2613,-1.2314,-1.2255,-1.2311,-1.2363,-1.2387,-1.2387,-1.2387,-1.2387,-1.2387,-1.2387,-1.2387,-1.2495,-1.2827,-1.3098,-1.3374,-1.3645,-1.3975,-1.4196,-1.4196,-1.4196,-1.4196,-1.4196,-1.4261,-1.4255,-1.4288,-1.4342,-1.444,-1.4494,-1.4337,-1.4196,-1.4196,-1.4196,-1.4196,-1.4196,-1.4196,-1.4196,-1.4196,-1.3975,-1.3862,-1.3862,-1.3586,-1.3242,-1.29,-1.2217,-1.1657,-1.1301,-1.1243,-1.1194,-1.1194,-1.1151,-1.1157,-1.1217,-1.0937,-1.0862,-1.0918,-1.0774,-1.0692,0.0,0.0,0.0,-1.3355,0.0,0.0,-1.3355,-1.3362,-1.3362,-1.3411,-1.3584,-1.3868,-1.4099,0.0,0.0,0.0,0.0,0.0,0.0,-1.6807,-1.7114,-1.7435,-1.7477,-1.7526,-1.7519,-1.7008,-1.669,-1.6676,-1.6149,-1.5784,-1.5778,-1.5588,-1.5356,-1.5083,-1.4838,-1.4592,-1.4298,-1.4298,-1.416,-1.3883,-1.3642,-1.3346,-1.3098,-1.291,-1.2813,-1.2813,-1.2813,-1.2813,-1.2813,-1.2813,-1.2813,-1.2813,-1.2813,-1.2768,-1.2661,-1.2311,-1.2168,-1.2123,-1.2316,-1.2387,-1.2387,-1.2387,-1.2387,-1.2387,-1.2387,-1.2387,-1.2495,-1.2827,-1.3108,-1.3335,-1.3645,-1.3975,-1.4196,-1.4196,-1.4196,-1.4196,-1.4196,-1.4368,-1.4494,-1.448,-1.4708,-1.4977,-1.5327,-1.4718,-1.4196,-1.4196,-1.4196,-1.4196,-1.4196,-1.4196,-1.4196,-1.4196,-1.4191,-1.4191,-1.4191,-1.3862,-1.3395,-1.2683,-1.1984,-1.1595,-1.1585,-1.1345,-1.1194,-1.1194,-1.1203,-1.1307,-1.1469,-1.1106,-1.1046,-1.1296,-1.0883,-1.0692,0.0,0.0,-1.4062,-1.4062,0.0,0.0,0.0,0.0,0.0,0.0,0.0,0.0,0.0,0.0,0.0,0.0,0.0,0.0,0.0,-1.7051,-1.7246,-1.7354,-1.7603,-1.7683,-1.747,-1.7259,-1.6925,-1.6395,-1.6184,-1.5981,-1.5832,-1.5588,-1.5356,-1.5131,-1.4838,-1.4592,-1.4298,-1.4298,-1.425,-1.416,-1.3877,-1.3636,-1.3346,-1.3098,-1.291,-1.2813,-1.2813,-1.2813,-1.2813,-1.2813,-1.2813,-1.2813,-1.2813,-1.2667,-1.2488,-1.2455,-1.2424,-1.2385,-1.237,-1.2387,-1.2387,-1.2387,-1.2387,-1.2387,-1.2387,-1.255,-1.2772,-1.3059,-1.3384,-1.365,-1.3975,-1.4137,-1.4196,-1.4196,-1.4293,-1.4421,-1.4373,-1.4566,-1.485,-1.5059,-1.5175,-1.5343,-1.562,-1.5423,-1.5199,-1.5042,-1.4825,-1.4671,-1.4504,-1.445,-1.4401,-1.4191,-1.4196,-1.4196,-1.4196,-1.3933,-1.3556,-1.3184,-1.2643,-1.2143,-1.1805,-1.157,-1.1389,-1.1194,-1.1194,-1.1302,-1.152,-1.1102,-1.1037,-1.1296,-1.0883,-1.0692,-1.4943,-1.4734,0.0,-1.4524,-1.4398,0.0,-1.4328,0.0,-1.4482,0.0,0.0,0.0,0.0,0.0,0.0,0.0,0.0,0.0,0.0,-1.7481,-1.7567,-1.7426,-1.761,-1.7592,-1.7383,-1.728,-1.7003,-1.6373,-1.6265,-1.6076,-1.5832,-1.5588,-1.5356,-1.5131,-1.4838,-1.4592,-1.4298,-1.4298,-1.4298,-1.4298,-1.4022,-1.3738,-1.3491,-1.3195,-1.3007,-1.2813,-1.2813,-1.2813,-1.2813,-1.2813,-1.2813,-1.2813,-1.2813,-1.2716,-1.2564,-1.2496,-1.2464,-1.238,-1.237,-1.2387,-1.2387,-1.2387,-1.2387,-1.2441,-1.2555,-1.2723,-1.2999,-1.333,-1.3547,-1.3759,-1.4083,-1.4272,-1.4298,-1.4298,-1.4491,-1.4657,-1.467,-1.4955,-1.5238,-1.5471,-1.5658,-1.5886,-1.6166,-1.6149,-1.5908,-1.5458,-1.527,-1.503,-1.4778,-1.4767,-1.4665,-1.4347,-1.4347,-1.4299,-1.4196,-1.3965,-1.3714,-1.3551,-1.309,-1.2683,-1.2339,-1.2043,-1.177,-1.1565,-1.1466,-1.1487,-1.1624,-1.1209,-1.1107,-1.1296,-1.0883,-1.0692]},{"header":{"parameterUnit":"m.s-1","parameterCategory":1,"la1":30.6,"la2":29.2853,"lo1":-89.7004,"lo2":-87.6739,"dy":0.0162,"dx":0.0183,"nx":112,"ny":82,"refTime":"2023-04-04T12:00:00:Z","depth":0,"parameterNumber":3,"parameterNumberName":"V-component_of_WINDS"},"data":[0.0,0.0,0.0,0.0,0.0,0.0,0.0,0.0,0.0,0.0,0.0,0.0,0.0,0.0,0.0,0.0,0.0,0.0,0.0,0.0,0.0,0.0,0.0,0.0,0.0,0.0,0.0,0.0,0.0,0.0,0.0,0.0,0.0,0.0,0.0,0.0,0.0,0.0,0.0,0.0,0.0,0.0,0.0,0.0,0.0,0.0,0.0,0.0,0.0,0.0,0.0,0.0,0.0,0.0,0.0,0.0,0.0,0.0,0.0,0.0,0.0,0.0,0.0,0.0,0.0,0.0,0.0,0.0,0.0,0.0,0.0,0.0,0.0,0.0,0.0,0.0,0.0,0.0,0.0,0.0,0.0,0.0,0.0,0.0,0.0,0.0,0.0,0.0,0.0,0.0,1.6038,1.6699,1.6188,1.5816,1.5816,1.5775,1.549,1.4862,0.0,0.0,0.0,0.0,0.0,0.0,0.0,0.0,0.0,0.0,0.0,0.0,0.0,0.0,0.0,0.0,0.0,0.0,0.0,0.0,0.0,0.0,0.0,0.0,0.0,0.0,0.0,0.0,0.0,0.0,0.0,0.0,0.0,0.0,0.0,0.0,0.0,0.0,0.0,0.0,0.0,0.0,0.0,0.0,0.0,0.0,0.0,0.0,0.0,0.0,0.0,0.0,0.0,0.0,0.0,0.0,0.0,0.0,0.0,0.0,0.0,0.0,0.0,0.0,0.0,0.0,0.0,0.0,0.0,0.0,0.0,0.0,0.0,0.0,0.0,0.0,0.0,0.0,0.0,0.0,0.0,0.0,0.0,0.0,0.0,0.0,0.0,0.0,0.0,0.0,0.0,0.0,0.0,0.0,0.0,0.0,0.0,0.0,0.0,0.0,0.0,0.0,0.0,0.0,1.6776,1.7017,1.6599,1.627,1.627,1.6162,1.5838,1.532,0.0,0.0,0.0,0.0,0.0,0.0,0.0,0.0,0.0,0.0,0.0,0.0,0.0,0.0,0.0,0.0,0.0,0.0,0.0,0.0,0.0,0.0,0.0,0.0,0.0,0.0,0.0,0.0,0.0,0.0,0.0,0.0,0.0,0.0,0.0,0.0,0.0,0.0,0.0,0.0,0.0,0.0,0.0,0.0,0.0,0.0,0.0,0.0,0.0,0.0,0.0,0.0,0.0,0.0,0.0,0.0,0.0,0.0,0.0,0.0,0.0,0.0,0.0,0.0,0.0,0.0,0.0,0.0,0.0,0.0,0.0,0.0,0.0,0.0,0.0,0.0,0.0,0.0,0.0,0.0,0.0,0.0,0.0,0.0,0.0,0.0,0.0,0.0,0.0,0.0,0.0,0.0,0.0,0.0,0.0,0.0,0.0,0.0,0.0,0.0,0.0,0.0,0.0,1.7501,1.7655,1.7464,1.7253,1.7049,1.6935,1.6861,1.6605,1.6075,1.595,0.0,0.0,0.0,0.0,0.0,0.0,0.0,0.0,0.0,0.0,0.0,0.0,0.0,0.0,0.0,0.0,0.0,0.0,0.0,0.0,0.0,0.0,0.0,0.0,0.0,0.0,0.0,0.0,0.0,0.0,0.0,0.0,0.0,0.0,0.0,0.0,0.0,0.0,0.0,0.0,0.0,0.0,0.0,0.0,0.0,0.0,0.0,0.0,0.0,0.0,0.0,0.0,0.0,0.0,0.0,0.0,0.0,0.0,0.0,0.0,0.0,0.0,0.0,0.0,0.0,0.0,0.0,0.0,0.0,0.0,0.0,0.0,0.0,0.0,0.0,0.0,0.0,0.0,0.0,0.0,0.0,0.0,0.0,0.0,0.0,0.0,0.0,0.0,0.0,0.0,0.0,0.0,0.0,0.0,0.0,0.0,0.0,0.0,0.0,0.0,0.0,0.0,1.8234,1.8474,1.8063,1.7974,1.7861,1.7635,1.7595,1.7317,1.6839,1.6796,0.0,0.0,0.0,0.0,0.0,0.0,0.0,0.0,0.0,0.0,0.0,0.0,0.0,0.0,0.0,0.0,0.0,0.0,0.0,0.0,0.0,0.0,0.0,0.0,0.0,0.0,0.0,0.0,0.0,0.0,0.0,0.0,0.0,0.0,0.0,0.0,0.0,0.0,0.0,0.0,0.0,0.0,0.0,0.0,0.0,0.0,0.0,0.0,0.0,0.0,0.0,0.0,0.0,0.0,0.0,0.0,0.0,0.0,0.0,0.0,0.0,0.0,0.0,0.0,0.0,0.0,0.0,0.0,0.0,0.0,0.0,0.0,0.0,0.0,0.0,0.0,0.0,0.0,0.0,0.0,0.0,0.0,0.0,0.0,0.0,0.0,0.0,0.0,0.0,0.0,0.0,0.0,0.0,0.0,0.0,0.0,0.0,0.0,0.0,0.0,0.0,0.0,1.8845,1.9143,1.8922,1.8745,1.8545,1.8353,1.8121,1.7794,1.7461,1.7446,0.0,0.0,0.0,0.0,0.0,0.0,0.0,0.0,0.0,0.0,0.0,0.0,0.0,0.0,0.0,0.0,0.0,0.0,0.0,0.0,0.0,0.0,0.0,0.0,0.0,0.0,0.0,0.0,0.0,0.0,0.0,0.0,0.0,0.0,0.0,0.0,0.0,0.0,0.0,0.0,0.0,0.0,0.0,0.0,0.0,0.0,0.0,0.0,0.0,0.0,0.0,0.0,0.0,0.0,0.0,0.0,0.0,0.0,0.0,0.0,0.0,0.0,0.0,0.0,0.0,0.0,0.0,0.0,0.0,0.0,0.0,0.0,0.0,0.0,0.0,0.0,0.0,0.0,0.0,0.0,0.0,0.0,0.0,0.0,0.0,0.0,0.0,0.0,0.0,0.0,0.0,0.0,0.0,0.0,0.0,0.0,0.0,0.0,0.0,0.0,0.0,0.0,1.9726,2.001,1.9775,1.9696,1.9569,1.9362,1.8985,1.8658,1.8453,0.0,0.0,0.0,0.0,0.0,0.0,0.0,0.0,0.0,0.0,0.0,0.0,0.0,0.0,0.0,0.0,0.0,0.0,0.0,0.0,0.0,0.0,0.0,0.0,0.0,0.0,0.0,0.0,0.0,0.0,0.0,0.0,0.0,0.0,0.0,0.0,0.0,0.0,0.0,0.0,0.0,0.0,0.0,0.0,0.0,0.0,0.0,0.0,0.0,0.0,0.0,0.0,0.0,0.0,0.0,0.0,0.0,0.0,0.0,0.0,0.0,0.0,0.0,0.0,0.0,0.0,0.0,0.0,0.0,0.0,0.0,0.0,0.0,0.0,0.0,0.0,0.0,0.0,0.0,0.0,0.0,0.0,0.0,0.0,0.0,0.0,0.0,0.0,0.0,0.0,0.0,0.0,0.0,0.0,0.0,0.0,0.0,0.0,0.0,0.0,0.0,0.0,1.9965,2.0557,2.0876,2.0634,2.0595,2.0547,2.0333,1.9841,1.9512,1.9353,0.0,0.0,0.0,0.0,0.0,0.0,0.0,0.0,0.0,0.0,0.0,0.0,0.0,0.0,0.0,0.0,0.0,0.0,0.0,0.0,0.0,0.0,0.0,0.0,0.0,0.0,0.0,0.0,0.0,0.0,0.0,0.0,0.0,0.0,0.0,0.0,0.0,0.0,0.0,0.0,0.0,0.0,0.0,0.0,0.0,0.0,0.0,0.0,0.0,0.0,0.0,0.0,0.0,0.0,0.0,0.0,0.0,0.0,0.0,0.0,0.0,0.0,0.0,0.0,0.0,0.0,0.0,0.0,0.0,0.0,0.0,0.0,0.0,0.0,0.0,0.0,0.0,0.0,0.0,0.0,0.0,0.0,0.0,0.0,0.0,0.0,0.0,0.0,0.0,0.0,0.0,0.0,0.0,0.0,0.0,0.0,0.0,0.0,0.0,0.0,0.0,0.0,2.074,2.1376,2.1731,2.154,2.1512,2.1425,2.1242,2.0725,2.032,0.0,0.0,0.0,0.0,0.0,0.0,0.0,0.0,0.0,0.0,0.0,0.0,0.0,0.0,0.0,0.0,0.0,0.0,0.0,0.0,0.0,0.0,0.0,0.0,0.0,0.0,0.0,0.0,0.0,0.0,0.0,0.0,0.0,0.0,0.0,0.0,0.0,0.0,0.0,0.0,0.0,0.0,0.0,0.0,0.0,0.0,0.0,0.0,0.0,0.0,0.0,0.0,0.0,0.0,0.0,0.0,0.0,0.0,0.0,0.0,0.0,0.0,0.0,0.0,0.0,0.0,0.0,0.0,0.0,0.0,0.0,0.0,0.0,0.0,0.0,0.0,0.0,0.0,0.0,0.0,0.0,0.0,0.0,0.0,0.0,0.0,0.0,0.0,0.0,0.0,0.0,0.0,0.0,0.0,0.0,0.0,0.0,0.0,0.0,0.0,0.0,0.0,0.0,2.1525,2.2292,2.2777,2.259,2.2553,2.2542,2.2467,2.2029,2.156,2.1182,0.0,0.0,0.0,0.0,0.0,0.0,0.0,0.0,0.0,0.0,0.0,0.0,0.0,0.0,0.0,0.0,0.0,0.0,0.0,0.0,0.0,0.0,0.0,0.0,0.0,0.0,0.0,0.0,0.0,0.0,0.0,0.0,0.0,0.0,0.0,0.0,0.0,0.0,0.0,0.0,0.0,0.0,0.0,0.0,0.0,0.0,0.0,0.0,0.0,0.0,0.0,0.0,0.0,0.0,0.0,0.0,0.0,0.0,0.0,0.0,0.0,0.0,0.0,0.0,0.0,0.0,0.0,0.0,0.0,0.0,0.0,0.0,0.0,0.0,0.0,0.0,0.0,0.0,0.0,0.0,0.0,0.0,0.0,0.0,0.0,0.0,0.0,0.0,0.0,0.0,0.0,0.0,0.0,0.0,0.0,0.0,0.0,0.0,0.0,0.0,0.0,0.0,2.248,2.3275,2.3827,2.368,2.368,2.368,2.368,2.3266,2.2781,2.2262,0.0,0.0,0.0,0.0,0.0,0.0,0.0,0.0,0.0,0.0,0.0,0.0,0.0,0.0,0.0,0.0,0.0,0.0,0.0,0.0,0.0,0.0,0.0,0.0,0.0,0.0,0.0,0.0,0.0,0.0,0.0,0.0,0.0,0.0,0.0,0.0,0.0,0.0,0.0,0.0,0.0,0.0,0.0,0.0,0.0,0.0,0.0,0.0,0.0,0.0,0.0,0.0,0.0,0.0,0.0,0.0,0.0,0.0,0.0,0.0,0.0,0.0,0.0,0.0,0.0,0.0,0.0,0.0,0.0,0.0,0.0,0.0,0.0,0.0,0.0,0.0,0.0,0.0,0.0,0.0,0.0,0.0,0.0,0.0,0.0,0.0,0.0,0.0,0.0,0.0,0.0,0.0,0.0,0.0,0.0,0.0,0.0,0.0,0.0,0.0,0.0,0.0,2.3585,2.4317,2.4814,2.4814,2.4814,2.4814,2.4814,2.4401,2.3963,2.341,0.0,0.0,0.0,0.0,0.0,0.0,0.0,0.0,0.0,0.0,0.0,0.0,0.0,0.0,0.0,0.0,0.0,0.0,0.0,0.0,0.0,0.0,0.0,0.0,0.0,0.0,0.0,0.0,0.0,0.0,0.0,0.0,0.0,0.0,0.0,0.0,0.0,0.0,0.0,0.0,0.0,0.0,0.0,0.0,0.0,0.0,0.0,0.0,0.0,0.0,0.0,0.0,0.0,0.0,0.0,0.0,0.0,0.0,0.0,0.0,2.8512,2.7701,0.0,0.0,0.0,0.0,0.0,0.0,0.0,0.0,0.0,0.0,0.0,0.0,0.0,0.0,0.0,0.0,0.0,0.0,0.0,0.0,0.0,0.0,0.0,0.0,0.0,0.0,0.0,0.0,0.0,0.0,0.0,0.0,0.0,0.0,0.0,0.0,0.0,0.0,0.0,0.0,2.4941,2.549,2.5826,2.5639,2.5639,2.5639,2.5639,2.5542,2.5284,2.4713,2.4382,0.0,0.0,0.0,0.0,0.0,0.0,0.0,0.0,0.0,0.0,0.0,0.0,0.0,0.0,0.0,0.0,0.0,0.0,0.0,0.0,0.0,0.0,0.0,0.0,0.0,0.0,0.0,0.0,0.0,0.0,0.0,0.0,0.0,0.0,0.0,0.0,0.0,0.0,0.0,0.0,0.0,0.0,0.0,0.0,0.0,0.0,0.0,0.0,0.0,0.0,0.0,0.0,0.0,0.0,0.0,0.0,0.0,0.0,0.0,3.0276,2.9464,0.0,0.0,0.0,0.0,0.0,0.0,0.0,0.0,0.0,0.0,0.0,0.0,0.0,0.0,0.0,0.0,0.0,0.0,0.0,0.0,0.0,0.0,0.0,0.0,0.0,0.0,0.0,0.0,0.0,0.0,0.0,0.0,0.0,0.0,0.0,0.0,0.0,0.0,0.0,0.0,2.6252,2.6714,2.7027,2.6913,2.6913,2.6913,2.6913,2.6913,2.667,2.614,2.5994,0.0,0.0,0.0,0.0,0.0,0.0,0.0,0.0,0.0,0.0,0.0,0.0,0.0,0.0,0.0,0.0,0.0,0.0,0.0,0.0,0.0,0.0,0.0,0.0,0.0,0.0,0.0,0.0,0.0,0.0,0.0,0.0,0.0,0.0,0.0,0.0,0.0,0.0,0.0,0.0,0.0,0.0,0.0,0.0,0.0,0.0,0.0,0.0,0.0,0.0,0.0,0.0,0.0,3.3568,3.3568,3.3568,3.3423,3.337,3.333,3.2329,3.1619,3.1132,3.1091,0.0,0.0,0.0,0.0,0.0,0.0,0.0,0.0,0.0,0.0,0.0,0.0,0.0,0.0,0.0,0.0,0.0,0.0,0.0,0.0,0.0,0.0,2.8942,2.9247,2.9375,2.9238,2.856,0.0,0.0,0.0,0.0,0.0,0.0,0.0,0.0,0.0,0.0,0.0,2.7529,2.794,2.8203,2.8203,2.8203,2.8203,2.8203,2.8203,2.7988,2.757,2.748,2.7045,0.0,0.0,0.0,0.0,0.0,0.0,0.0,0.0,0.0,0.0,0.0,0.0,0.0,0.0,0.0,0.0,0.0,0.0,0.0,0.0,0.0,0.0,0.0,0.0,0.0,0.0,0.0,0.0,0.0,0.0,0.0,0.0,2.9245,2.9795,0.0,0.0,0.0,0.0,0.0,0.0,0.0,0.0,0.0,0.0,0.0,0.0,0.0,3.6386,3.6956,3.6969,3.6969,3.6969,3.6969,3.6969,3.6942,3.6359,3.6075,3.6048,3.5359,0.0,3.2435,3.2249,0.0,0.0,0.0,0.0,0.0,0.0,0.0,0.0,0.0,0.0,0.0,0.0,0.0,0.0,0.0,0.0,0.0,0.0,0.0,0.0,0.0,0.0,3.1115,3.1354,3.1632,3.1668,3.0997,2.9901,2.8938,2.8594,2.8486,2.8262,0.0,0.0,0.0,0.0,0.0,0.0,2.8811,2.8917,2.8958,2.8958,2.8958,2.8958,2.8958,2.8958,2.8931,2.8848,2.8636,2.8442,2.8274,2.8064,0.0,0.0,0.0,0.0,0.0,0.0,0.0,0.0,0.0,0.0,0.0,0.0,0.0,0.0,0.0,0.0,0.0,0.0,0.0,0.0,0.0,0.0,0.0,0.0,0.0,0.0,0.0,0.0,0.0,3.0289,3.0919,3.1682,3.1954,3.2277,0.0,0.0,0.0,0.0,0.0,0.0,0.0,0.0,0.0,3.752,3.7784,3.802,3.8339,3.8339,3.8339,3.8339,3.8339,3.8339,3.8325,3.8048,3.7882,3.7854,3.719,3.6423,3.557,3.4647,3.4233,3.4206,0.0,0.0,0.0,0.0,3.2901,3.3039,3.2771,3.2603,3.2509,3.2482,0.0,0.0,0.0,0.0,0.0,0.0,0.0,3.1646,3.1762,3.2022,3.2263,3.2423,3.2677,3.2792,3.2591,3.2173,3.1431,3.0036,2.9774,2.9688,2.9416,2.9373,0.0,0.0,0.0,2.9693,2.9931,2.9929,2.9929,2.9929,2.9929,2.9991,3.0054,3.0054,3.0085,3.0146,3.0068,2.984,2.9493,2.9363,2.9082,0.0,0.0,0.0,0.0,0.0,0.0,0.0,0.0,0.0,0.0,0.0,0.0,0.0,0.0,0.0,0.0,0.0,0.0,0.0,0.0,0.0,0.0,0.0,0.0,0.0,0.0,0.0,0.0,3.1837,3.2384,3.3209,3.3496,3.3783,0.0,0.0,0.0,0.0,0.0,0.0,3.7739,3.8499,3.9081,3.9385,3.9426,3.9538,3.9694,3.9694,3.9694,3.9694,3.9694,3.9694,3.9694,3.9524,3.9453,3.9424,3.876,3.8405,3.8128,3.6638,3.6071,3.607,3.5656,3.5556,3.5512,3.492,3.4799,3.4895,3.4742,3.4483,3.4231,3.4167,3.3932,3.3634,3.3466,0.0,0.0,0.0,0.0,3.3077,3.3141,3.3397,3.3634,3.3807,3.3963,3.4088,3.403,3.4167,3.3653,3.156,3.119,3.1131,3.0969,3.094,0.0,3.094,3.094,3.094,3.094,3.094,3.094,3.094,3.094,3.097,3.1058,3.1073,3.1116,3.1219,3.1292,3.1127,3.0707,3.0733,3.0558,3.0179,0.0,0.0,0.0,0.0,0.0,0.0,0.0,0.0,0.0,0.0,0.0,0.0,0.0,0.0,0.0,0.0,0.0,0.0,0.0,0.0,0.0,0.0,0.0,0.0,0.0,0.0,0.0,0.0,0.0,3.3908,3.4137,0.0,0.0,0.0,0.0,3.7686,3.8545,3.906,3.9102,3.9547,4.0089,4.0694,4.0882,4.1239,4.1848,4.1848,4.1848,4.1848,4.1848,4.1848,4.1833,4.1239,4.1004,4.0974,4.0365,3.9741,3.9025,3.7544,3.707,3.7226,3.7183,3.7309,3.7415,3.6787,3.6545,3.651,3.5911,3.5718,3.569,3.569,3.5942,3.6133,3.5598,3.5585,0.0,0.0,3.5062,3.513,3.5454,3.5661,3.5867,3.601,3.6182,3.6184,3.5538,3.5519,3.5012,3.3002,3.276,3.2651,3.1957,0.0,3.1823,3.1823,3.1823,3.1823,3.1823,3.1823,3.1823,3.1823,3.1823,3.1851,3.1851,3.1851,3.1851,3.1851,3.2035,3.216,3.2281,3.2419,3.2241,3.1701,3.1685,0.0,0.0,0.0,0.0,0.0,0.0,0.0,0.0,0.0,0.0,0.0,0.0,0.0,0.0,0.0,0.0,0.0,0.0,0.0,0.0,0.0,0.0,0.0,0.0,0.0,0.0,0.0,0.0,3.6198,3.6663,0.0,3.7989,3.847,3.895,3.9337,4.0046,4.0472,4.0607,4.1175,4.1686,4.2012,4.2093,4.2317,4.2659,4.2659,4.2699,4.2835,4.2835,4.2835,4.282,4.2598,4.2534,4.249,4.1868,4.1477,4.1211,4.0362,3.9256,3.8104,3.8188,3.83,3.8345,3.8149,3.815,3.8231,3.7996,3.7716,3.7432,3.7109,3.7114,3.7222,3.7158,3.73,3.7422,3.7228,3.6947,3.6726,3.6918,3.6785,3.6616,3.6815,3.6967,3.6995,3.6775,3.692,3.6782,3.5634,3.4416,3.3506,3.3231,3.2798,3.2477,3.2477,3.2477,3.2477,3.2477,3.2477,3.2477,3.2477,3.2477,3.2504,3.2602,3.2602,3.2711,3.2915,3.3011,3.3091,3.3235,3.3288,3.3292,3.3269,3.3294,3.3051,0.0,0.0,0.0,0.0,0.0,0.0,0.0,0.0,0.0,0.0,0.0,0.0,0.0,0.0,0.0,0.0,0.0,0.0,0.0,0.0,0.0,0.0,0.0,0.0,0.0,3.6147,3.6915,3.7927,3.8555,3.9172,3.9769,4.0188,4.0531,4.0822,4.1393,4.1825,4.2025,4.2547,4.285,4.2996,4.309,4.321,4.3329,4.3329,4.3448,4.366,4.366,4.3684,4.3723,4.3723,4.3723,4.3732,4.3309,4.3015,4.2773,4.2589,4.1553,4.0044,3.9747,3.9523,3.9364,3.9364,3.9451,3.9559,3.9559,3.9415,3.9172,3.8853,3.8803,3.8892,3.8795,3.8899,3.9032,3.88,3.8461,3.8246,3.8451,3.8057,3.7675,3.79,3.7844,3.7756,3.7756,3.7943,3.8015,3.7621,3.6198,3.4991,3.477,3.4311,3.3994,3.3994,3.3994,3.3994,3.3994,3.3994,3.3994,3.3994,3.3994,3.4048,3.4155,3.4181,3.4303,3.4555,3.4356,3.4278,3.439,3.4189,3.4184,3.4423,3.4505,3.4411,3.4134,0.0,0.0,0.0,0.0,0.0,0.0,0.0,0.0,0.0,0.0,0.0,0.0,0.0,0.0,0.0,0.0,0.0,0.0,0.0,0.0,0.0,0.0,0.0,3.65,3.7705,3.8724,3.8962,3.9721,4.0334,4.0568,4.114,4.1666,4.2144,4.2694,4.3115,4.3329,4.3527,4.363,4.363,4.3895,4.4026,4.4026,4.4026,4.4143,4.432,4.432,4.4435,4.461,4.461,4.461,4.4648,4.4648,4.4278,4.3698,4.4034,4.3809,4.3118,4.1888,4.1034,4.0555,4.0555,4.0539,4.0524,4.0524,4.0662,4.0833,4.0833,4.1055,4.1215,4.0555,4.0513,4.0547,3.9866,3.9691,3.9737,4.0076,3.961,3.914,3.9447,3.8971,3.8452,3.8436,3.8544,3.8667,3.8805,3.8041,3.7151,3.6496,3.6324,3.6307,3.6307,3.6307,0.0,3.6307,3.6307,3.6307,3.6307,3.6334,3.6371,3.6496,3.6522,3.6591,3.672,3.6073,3.5728,3.5853,3.5256,3.4987,3.5168,3.5383,3.5515,3.5616,0.0,0.0,0.0,0.0,0.0,0.0,0.0,0.0,0.0,0.0,0.0,0.0,0.0,0.0,0.0,0.0,0.0,0.0,0.0,0.0,0.0,3.7777,3.831,3.8413,3.8904,3.9663,4.0818,4.1308,4.1892,4.2692,4.2901,4.3124,4.3443,4.3633,4.3801,4.3996,4.4089,4.4189,4.4305,4.4396,4.4511,4.4648,4.4648,4.4739,4.4942,4.4942,4.5055,4.5247,4.5247,4.5321,4.5468,4.5468,4.5358,4.5222,4.546,4.5227,4.4614,4.3485,4.2639,4.2077,4.2077,4.1763,4.129,4.129,4.1407,4.1557,4.1704,4.1916,4.2077,4.1981,4.2012,4.2011,4.1849,4.1446,4.1091,4.1274,4.0889,4.0352,4.0029,3.9895,3.9699,3.9095,3.9131,3.9255,3.9299,3.9169,3.8761,3.784,3.7237,3.6891,3.6891,3.6891,3.6891,3.6891,3.6891,3.6891,3.6891,3.6976,3.7036,3.7086,3.7161,3.7286,3.7426,3.7225,3.7174,3.7336,3.7236,3.7028,3.6706,3.6877,3.675,0.0,0.0,0.0,0.0,0.0,0.0,0.0,0.0,0.0,0.0,0.0,0.0,0.0,0.0,0.0,0.0,0.0,0.0,0.0,0.0,0.0,0.0,3.8969,3.9839,4.0419,4.0708,4.1169,4.2028,4.2596,4.316,4.3834,4.3903,4.4035,4.4358,4.4396,4.4473,4.4678,4.4678,4.4754,4.4852,4.4852,4.4964,4.5136,4.5173,4.5284,4.5573,4.5573,4.5667,4.5832,4.5832,4.5925,4.614,4.614,4.6175,4.6298,4.6474,4.6389,4.6007,0.0,0.0,0.0,0.0,4.3116,4.2476,4.2476,4.243,4.2349,4.2476,4.2695,4.2912,4.3005,4.3019,4.3019,4.3019,4.2741,4.246,4.261,4.2186,4.1687,4.1382,4.0972,4.0531,4.0064,3.9852,3.9772,3.9824,3.9901,0.0,3.9244,3.8673,3.8287,3.8363,3.8363,3.8363,3.8363,3.8363,3.8363,3.8363,3.8472,3.8571,3.8629,3.8751,0.0,0.0,0.0,3.8491,3.8363,3.8437,0.0,0.0,0.0,3.8035,3.7303,3.7466,0.0,0.0,3.6696,3.6713,0.0,0.0,0.0,0.0,0.0,0.0,0.0,0.0,0.0,0.0,0.0,0.0,0.0,0.0,0.0,0.0,4.0096,4.1316,4.2331,4.2765,4.2962,4.2947,4.3647,4.4166,4.4396,4.4396,4.4549,4.4911,4.4911,4.5039,4.5257,4.5257,0.0,0.0,0.0,4.5426,4.5578,4.5578,4.576,4.6136,4.6136,4.6195,4.6256,4.6256,4.6333,4.6461,4.6461,4.6613,4.6866,4.7053,4.7203,4.722,4.6115,4.5402,4.4984,4.4935,4.4496,4.3928,4.3846,0.0,0.0,4.3221,4.3399,4.3654,4.3667,4.3667,4.3667,4.3697,4.3697,4.3726,4.386,4.3451,4.3024,4.3065,4.2095,4.1158,4.11,4.0569,4.0171,4.033,4.0355,4.0387,4.0534,4.0238,4.0011,4.0163,4.0163,4.0171,4.0188,4.0196,4.0196,4.0196,0.0,0.0,4.0566,4.0645,4.0765,4.0965,4.0308,3.9747,3.9329,3.9334,3.9388,3.9514,3.9658,3.9352,3.8614,3.866,3.8417,3.7864,3.741,3.726,0.0,0.0,0.0,0.0,0.0,0.0,0.0,0.0,0.0,0.0,0.0,0.0,0.0,0.0,0.0,4.083,4.1848,4.2726,4.3499,4.4233,4.4666,4.4485,4.4608,4.4814,4.5017,4.5033,4.5055,4.5145,4.5129,4.5278,4.5662,4.5698,4.5792,4.61,4.61,4.61,4.6156,4.6156,4.6191,4.6262,4.6423,0.0,4.5914,4.6068,4.5927,4.5538,4.5538,4.598,4.6651,4.6684,4.7243,4.7901,4.6832,4.6356,4.6191,4.5791,4.554,4.5294,4.4717,4.4575,4.4527,4.3883,4.3818,4.4023,4.4121,4.415,0.0,4.4305,4.4333,4.4333,4.4361,4.439,4.4264,4.3637,4.2913,4.2202,4.1597,4.0923,4.0461,4.06,4.0624,4.0697,4.0953,4.0631,4.0436,4.0576,4.0583,4.0624,4.0728,4.0752,4.0752,4.0752,4.0864,4.0982,4.1047,4.118,4.1295,4.1448,4.1331,4.1244,4.1343,4.1325,4.1152,4.0758,4.0939,4.0679,3.9928,3.941,3.9101,3.8956,3.8115,3.7793,0.0,0.0,0.0,0.0,0.0,0.0,0.0,0.0,0.0,0.0,0.0,3.9489,4.0247,0.0,4.1105,4.2303,4.3187,4.3872,4.4385,4.5153,4.5484,4.5092,4.5151,4.53,4.5478,4.5573,4.5682,4.5739,4.5739,4.5848,4.6044,4.6044,4.6136,4.6298,4.6298,4.6333,4.6458,4.6191,4.6099,4.6221,4.6036,4.5829,4.5554,4.5652,4.5652,4.5548,4.5548,4.5872,4.6472,4.6915,4.764,4.8401,4.8048,4.7756,4.7532,4.7339,4.6784,4.6099,4.5855,4.5371,4.4843,4.4428,4.4423,4.4564,4.4648,4.4648,4.4659,4.4714,4.4742,4.4769,4.4835,4.4906,4.492,4.459,4.4027,4.3373,4.2616,4.1908,4.1343,4.1034,4.0948,4.0995,4.1129,4.1059,4.0948,4.0948,4.0948,4.0995,4.1129,4.1152,4.1175,4.1244,4.1375,4.1448,4.1498,4.1653,4.1805,4.1952,4.1952,4.204,4.2249,4.2249,4.2174,4.1998,4.217,4.1903,4.1144,4.0432,3.9951,3.9632,3.8798,3.8336,0.0,0.0,0.0,0.0,0.0,0.0,0.0,4.0459,4.0528,4.0681,4.0976,4.1327,4.1922,4.2263,4.2749,4.363,4.4264,4.4796,4.519,4.5769,4.5956,4.5463,4.5557,4.5739,4.5864,4.6028,4.6191,4.6298,4.6298,4.6333,4.6369,4.6404,4.6439,4.6474,4.6381,4.6405,4.6562,4.5986,4.5763,4.5929,4.5522,4.5274,4.5191,4.5207,4.5314,4.5479,4.569,4.5924,4.628,4.7302,4.8101,4.8655,4.9101,4.9046,4.875,4.8844,4.8014,4.6866,4.6895,4.6078,4.5018,4.4909,4.4951,4.5059,4.5113,4.5113,4.5113,4.514,4.5167,4.5194,4.53,4.5327,4.5336,4.5441,4.5,4.4314,4.3509,4.286,4.2213,4.1434,4.13,4.1323,4.1346,4.1448,4.1471,4.13,4.13,4.1386,4.1493,4.1533,4.156,4.1675,4.1801,4.1866,4.1909,4.2103,4.2287,4.2389,4.2409,4.251,4.2688,4.2707,4.2805,4.2976,4.3123,4.2886,4.2299,4.1432,4.0756,4.0253,3.9364,3.8803,4.0974,4.0873,4.0873,4.0873,4.1024,4.114,0.0,4.1323,4.1456,4.1489,4.2027,4.2552,4.275,4.3341,4.4061,4.495,4.5176,4.5448,4.6071,4.6214,4.6262,4.6191,4.6207,4.6227,4.6227,4.6262,4.6262,4.6298,4.6298,4.6369,4.6563,4.6738,4.6927,4.7098,4.6631,4.6404,4.6421,4.5702,4.5358,4.5391,4.5452,4.5232,4.4762,4.4898,4.4714,4.4353,4.5303,4.5735,4.5911,4.7593,4.8306,4.8409,4.9185,4.95,4.956,4.9441,4.8899,4.8097,4.7397,4.663,4.5855,4.5336,4.5167,4.5203,4.5468,4.5529,4.5572,4.5693,4.5718,4.5718,4.5718,4.5744,4.5744,4.5744,4.5204,4.4463,4.3656,4.3003,4.2375,4.1678,4.1648,4.1758,4.188,4.1923,4.1858,4.1604,4.1648,4.178,4.1919,4.1923,4.1966,4.2058,4.2061,4.2145,4.2331,4.257,4.2725,4.2745,4.2786,4.2899,4.3049,4.3105,4.3178,4.3249,4.3461,4.3491,4.3416,4.2015,4.1299,4.1218,3.9825,3.9073,4.2029,4.1916,4.1916,4.1933,4.1997,4.2045,4.2045,4.2462,4.2831,4.2831,4.3409,4.4068,4.4503,4.4825,4.5343,4.6273,4.6421,4.6518,4.6929,4.7012,4.7012,4.7012,4.7012,4.6909,4.6684,4.6754,4.6858,4.6977,4.7012,4.7046,4.7115,4.6776,4.6665,4.6731,4.611,4.5783,4.5783,4.5109,4.4843,4.4937,4.4677,4.4494,4.436,4.4402,4.4411,4.4384,4.5015,4.5535,4.6005,4.6929,4.7539,4.7986,4.8482,4.8715,4.8795,4.9017,4.8678,4.8006,4.7331,4.6581,4.5873,4.5641,4.5563,4.5563,4.5675,4.5718,4.5744,4.5795,4.5795,4.5846,4.598,4.603,4.608,4.6228,4.6031,4.5591,4.4835,4.4108,4.3379,4.263,4.2163,4.1945,4.2034,4.2118,4.216,4.2082,4.1973,4.1987,4.2139,4.2181,4.2243,4.2389,4.247,4.257,4.2671,4.2879,4.3012,4.3087,4.3124,4.3214,4.3375,4.3427,4.3495,4.3649,4.3732,4.3812,4.3889,4.2801,4.2333,4.2416,4.1338,4.0817,4.3547,4.3485,4.3485,4.3483,4.3452,4.3422,4.3422,4.3781,4.4123,4.4123,4.474,4.5407,4.5894,4.612,4.6497,4.7169,4.7285,4.7319,4.747,4.752,4.752,4.752,4.752,4.7403,4.7167,4.7217,4.7335,4.747,4.752,4.7422,4.7225,4.6733,4.634,4.6143,4.5486,4.514,4.5188,4.4572,4.4346,4.4544,4.4131,4.4027,4.4155,4.4241,4.4423,4.4642,4.4934,4.5367,4.5953,4.6387,4.6953,4.7533,4.7941,4.8135,4.817,4.8338,4.8102,4.7592,4.716,4.6473,4.5812,4.5846,4.5871,4.5922,4.5955,4.5998,4.6023,4.6023,4.6023,4.6073,4.6259,4.6308,4.6357,4.6566,4.659,4.6395,4.5652,4.5078,4.4414,4.3425,4.2829,4.2448,4.2282,4.2328,4.2409,4.2452,4.2287,4.2219,4.2369,4.243,4.2512,4.2688,4.2823,4.2937,4.2995,4.3123,4.3269,4.3373,4.3426,4.3512,4.3664,4.3697,4.3779,4.3942,4.3992,4.407,4.4185,4.3378,4.3091,4.3248,4.2433,4.2071,4.5761,4.5713,4.5713,4.5713,4.559,4.5513,4.5513,4.5386,4.5259,4.5259,4.5848,4.6356,4.6372,4.6962,4.7454,4.747,4.747,4.747,4.752,4.752,4.752,4.752,4.752,4.7537,4.7671,4.7554,4.747,4.752,4.752,4.7209,4.6454,4.6536,4.6288,4.5563,4.501,4.4782,4.492,4.4251,4.3973,4.4102,4.4114,4.4167,4.4293,4.4637,4.4858,4.4978,4.5123,4.5274,4.5475,4.6402,4.6881,4.71,4.783,4.8171,4.8225,4.7637,4.7264,4.703,4.7013,4.6473,4.5821,4.5947,4.608,4.6211,4.6332,4.6471,4.659,4.659,4.659,4.659,4.659,4.659,4.659,4.659,4.659,4.6395,4.5652,4.5622,4.532,4.3768,4.3614,4.3506,4.2715,4.2589,4.2589,4.2589,4.2589,4.2589,4.2589,4.2767,4.2882,4.2882,4.3068,4.3214,4.3285,4.341,4.3513,4.3597,4.3701,4.382,4.3881,4.3942,4.4017,4.4075,4.4222,4.4329,4.4397,4.3647,4.3335,4.3363,4.2561,4.2203,4.6527,4.6408,4.6334,4.6334,4.6199,4.6046,4.6046,4.6398,4.6684,4.6684,4.717,4.7603,4.7603,4.7721,4.7836,4.7836,4.7836,4.7836,4.7836,4.7836,4.7836,4.7836,4.7836,4.7836,4.7886,4.7721,4.7688,4.7836,4.7391,4.6995,4.6747,4.5932,4.5363,4.513,4.4567,4.4319,4.4378,4.4144,4.4097,4.4224,4.4468,4.462,4.4786,4.4978,4.514,4.5257,4.5406,4.5537,4.571,4.6116,4.6349,4.65,4.6838,4.7051,4.7139,4.6941,4.6804,4.6731,4.6731,4.6555,4.6326,4.6374,4.6423,4.6453,4.6518,4.6566,4.659,4.659,4.659,4.6613,4.6708,4.6731,4.6795,4.6975,4.6998,4.6931,4.6753,4.6354,4.5918,4.538,4.4492,4.3744,4.3572,4.3128,4.3043,4.3702,4.3226,4.2805,4.2805,4.2975,4.3123,4.316,4.3322,4.3427,4.3494,4.3615,4.3753,4.386,4.391,4.4008,4.4165,4.4195,4.4252,4.435,4.4397,4.4501,4.4605,4.435,4.4258,4.4316,4.4096,4.4025,4.7931,4.7784,4.7713,4.7653,4.7443,4.7261,4.7261,4.7538,4.778,4.778,4.807,4.8324,4.8324,4.8244,4.8179,4.8179,4.8179,4.8179,4.8179,4.8179,4.8179,4.8179,4.7963,4.7797,4.7797,4.7436,4.7337,4.7635,4.7052,4.6568,4.6302,4.548,4.489,4.4623,4.429,4.4126,4.4184,4.4184,4.4281,4.448,4.4748,4.4923,4.5086,4.5203,4.5336,4.5468,4.5615,4.5744,4.5871,4.6023,4.6154,4.6284,4.6405,4.6501,4.6613,4.6661,4.6661,4.6661,4.6613,4.659,4.659,4.659,4.6637,4.6661,4.6661,4.6708,4.6754,4.6795,4.6801,4.6842,4.6939,4.6985,4.703,4.7183,4.7245,4.7249,4.7298,4.6964,4.6575,4.6347,4.5506,4.4773,4.4603,4.4173,4.4086,4.4727,4.4344,4.3942,4.3867,4.378,4.376,4.3796,4.368,4.3632,4.373,4.3832,4.3947,4.4101,4.4116,4.4192,4.4373,4.4373,4.4426,4.4565,4.4565,4.4619,4.4738,4.4745,4.4815,4.487,4.4931,4.4991,4.9825,4.9737,4.9679,4.9547,4.9277,4.9032,4.9032,4.8767,4.8547,4.8547,4.8515,4.8515,4.8515,4.8515,4.8515,4.8515,4.8515,4.8515,4.8515,4.8515,4.8515,4.8515,4.7847,4.7412,4.7412,4.6695,4.645,4.6976,4.6536,4.5942,4.5223,4.5185,4.4834,4.4114,4.4126,4.4184,4.4321,4.4338,4.4508,4.4831,4.4951,4.5086,4.5203,4.5363,4.5485,4.5632,4.577,4.5897,4.6023,4.6179,4.6308,4.6429,4.6566,4.6613,4.6637,4.6754,4.6819,4.6801,4.6684,4.6637,4.6637,4.6637,4.6708,4.6842,4.6842,4.6911,4.7043,4.7156,4.7219,4.7223,4.7276,4.7302,4.7302,4.7302,4.7302,4.7302,4.7341,4.7428,4.7337,4.6703,4.666,4.647,4.5749,4.5659,4.5677,4.5696,4.5883,4.5938,4.5641,4.5132,4.4782,4.4782,4.4276,4.3978,4.4063,4.4076,4.4138,4.43,4.4314,4.4373,4.4496,4.4515,4.4565,4.4712,4.4712,4.4732,4.4808,4.487,4.4931,4.5022,4.5061,4.5114,5.0313,5.0057,4.9837,4.9825,4.959,4.9367,4.9367,4.9199,4.9015,4.9015,4.8877,4.8738,4.8738,4.8595,4.8515,4.8515,4.8515,4.8515,4.8515,4.8515,4.8515,4.8515,4.7847,4.7412,4.7412,4.6331,4.5673,4.5811,4.5617,4.539,4.5206,4.4754,4.4454,4.4253,4.4384,4.4542,4.4665,4.4759,4.4923,4.5113,4.5123,4.5274,4.5485,4.5537,4.5667,4.5897,4.603,4.6161,4.6301,4.6429,4.659,4.6684,4.6749,4.6865,4.7043,4.7088,4.7138,4.7165,4.7125,4.7075,4.7066,4.712,4.7147,4.7169,4.7169,4.7209,4.7232,4.7254,4.7276,4.7276,4.7298,4.7302,4.7341,4.7446,4.745,4.7511,4.7699,4.7759,4.7749,4.7636,4.7166,4.657,4.592,4.6323,4.6764,4.6911,4.75,4.7408,4.5993,4.5808,4.5839,4.589,4.5842,4.5605,4.5103,4.509,4.492,4.4482,4.4458,4.4515,4.4646,4.4646,4.4699,4.4757,4.4821,4.487,4.4943,4.5033,4.5068,4.508,4.5148,4.517,5.0564,5.0313,5.0114,5.0057,4.9796,4.959,4.959,4.9441,4.932,4.9229,4.9094,4.894,4.8894,4.8784,4.8704,4.8704,4.8704,4.8704,4.8704,4.8704,4.8704,4.8704,4.7779,4.714,4.714,4.5854,4.5036,4.5036,4.4995,4.4937,4.4937,4.466,4.4508,4.4508,4.4692,4.4803,4.4886,4.5005,4.5167,4.5283,4.5353,4.5485,4.5693,4.5744,4.5897,4.6105,4.6228,4.6357,4.6495,4.6637,4.6772,4.6888,4.6957,4.707,4.7249,4.7249,4.7272,4.7302,4.7363,4.7359,4.7334,4.732,4.7302,4.7302,4.7302,4.7302,4.7302,4.7363,4.7385,4.7407,4.7468,4.7511,4.7593,4.7657,4.7702,4.7765,4.7907,4.7927,4.7988,4.8111,4.7823,4.746,4.7132,4.7463,4.7795,4.7922,4.8364,4.8327,4.7332,4.7013,4.686,4.6911,4.6729,4.6451,4.61,4.6136,4.585,4.512,4.5129,4.5041,4.477,4.4757,4.4808,4.4883,4.4943,4.5022,4.5038,4.5114,4.5148,4.5148,4.5203,4.5265,5.0757,5.0564,5.0397,5.0274,4.9999,4.9767,4.9737,4.9619,4.9488,4.929,4.9229,4.9168,4.9063,4.9001,4.9001,4.9001,4.9001,4.9001,4.9001,4.9001,4.9001,4.9001,4.7712,4.6815,4.6815,4.5506,4.4654,4.4654,4.4654,4.4654,4.4643,4.4748,4.4831,4.4831,4.4968,4.5032,4.5059,4.5194,4.531,4.5441,4.5563,4.571,4.5821,4.5972,4.6105,4.6235,4.6398,4.6542,4.6661,4.6795,4.6934,4.7048,4.7178,4.7249,4.7341,4.7341,4.7363,4.7407,4.7515,4.7575,4.7536,4.7407,4.7363,4.7363,4.7363,4.7363,4.7385,4.7511,4.7554,4.7575,4.7699,4.7822,4.7922,4.7922,4.7968,4.8012,4.8012,4.8052,4.8111,4.8306,4.8438,4.855,4.8624,4.8642,4.8642,4.866,4.8768,4.8857,4.8926,4.8313,4.7885,4.7902,4.7378,4.7052,4.7076,4.7128,4.684,4.6045,4.6113,4.5859,4.5199,4.511,4.5133,4.5174,4.5137,4.5114,4.5114,4.5181,4.5213,4.5224,4.5286,4.5348,5.1061,5.0784,5.0547,5.0397,5.0246,5.0074,4.9964,4.9784,4.9649,4.9619,4.9411,4.9199,4.9168,4.9077,4.9001,4.9001,4.9001,4.9001,4.9001,4.9001,4.9001,4.9001,4.7802,4.6973,4.6973,4.5727,4.494,4.494,4.494,4.4886,4.4776,4.4886,4.4968,4.4968,4.5113,4.5203,4.5336,4.5459,4.5589,4.5744,4.5744,4.5821,4.5972,4.6105,4.6235,4.6381,4.6613,4.6819,4.6934,4.7066,4.7183,4.7254,4.7276,4.7363,4.749,4.7593,4.7717,4.7801,4.7888,4.7911,4.787,4.7681,4.7636,4.7636,4.7636,4.7636,4.7657,4.778,4.784,4.7842,4.7929,4.797,4.799,4.799,4.7992,4.8032,4.8148,4.8304,4.8457,4.8532,4.8569,4.8624,4.8732,4.8769,4.8822,4.8998,4.9015,4.9066,4.9148,4.8969,4.8878,4.8924,4.8936,4.8655,4.8029,4.8087,4.7829,4.7081,4.707,4.7048,4.7024,4.6391,4.6086,4.6157,4.551,4.5181,4.5181,4.5254,4.5307,4.5378,4.5388,4.538,5.1052,5.0747,5.0481,5.0415,5.0246,5.008,4.9993,4.9935,4.983,4.9708,4.959,4.9441,4.9381,4.929,4.9277,4.9277,4.9277,4.9277,4.9277,4.9277,4.9277,4.9277,4.7962,4.7101,4.7101,4.5838,4.5005,4.5005,4.5059,4.5059,4.4913,4.5032,4.514,4.5211,4.5327,4.5432,4.5511,4.5641,4.577,4.5897,4.5955,4.608,4.6204,4.635,4.6495,4.6613,4.6819,4.698,4.7111,4.7205,4.7298,4.7407,4.749,4.7593,4.7717,4.7806,4.7907,4.7968,4.799,4.7992,4.7972,4.7888,4.7847,4.7847,4.7847,4.7847,4.7868,4.7927,4.7947,4.7968,4.7992,4.805,4.811,4.8151,4.8248,4.8326,4.8382,4.8476,4.8587,4.8697,4.8715,4.875,4.8928,4.8946,4.8998,4.9133,4.915,4.9164,4.9244,4.9244,4.926,4.9308,4.9434,4.9375,4.9024,4.9055,4.8815,4.8077,4.8047,4.7922,4.7578,4.7222,4.6858,4.6462,4.6072,4.5674,4.5246,4.5317,4.5378,4.5408,4.539,4.5419,5.1025,5.0692,5.0425,5.0415,5.0235,5.0022,5.0011,5.0011,4.9964,4.9784,4.9737,4.9679,4.956,4.9518,4.9518,4.9518,4.9518,4.9518,4.9518,4.9518,4.9518,4.9518,4.8184,4.7244,4.7244,4.5949,4.5103,4.5103,4.522,4.522,4.5086,4.522,4.5327,4.545,4.5563,4.5658,4.5684,4.5795,4.5922,4.6097,4.6186,4.6308,4.6471,4.6613,4.6731,4.6842,4.7002,4.7156,4.7267,4.732,4.7428,4.7593,4.7717,4.7822,4.7925,4.801,4.8032,4.8032,4.8052,4.8072,4.8072,4.8072,4.8032,4.7992,4.7992,4.7992,4.8012,4.8032,4.8052,4.8072,4.8092,4.8208,4.8286,4.8344,4.8476,4.8605,4.8642,4.8641,4.8696,4.884,4.8875,4.8927,4.9083,4.9116,4.915,4.9195,4.9211,4.926,4.9355,4.9399,4.9446,4.9476,4.957,4.9663,4.9721,4.9807,4.9592,4.9015,4.9042,4.8814,4.8184,4.8048,4.7594,4.6797,4.6604,4.6139,4.5317,4.5379,4.5409,4.5419,4.5419,4.5467,5.1132,5.0855,5.0547,5.0425,5.0302,5.0149,5.0022,5.0011,5.0011,4.9982,4.983,4.9708,4.9679,4.956,4.9518,4.9518,4.9518,4.9518,4.9518,4.9518,4.9518,4.9518,4.8288,4.7466,4.7466,4.6185,4.5371,4.5371,4.5502,4.5485,4.5371,4.5502,4.5581,4.5581,4.5693,4.5846,4.5947,4.5972,4.6122,4.6357,4.6398,4.6471,4.659,4.6842,4.6957,4.698,4.7187,4.7341,4.7468,4.749,4.7636,4.7861,4.7881,4.7925,4.801,4.813,4.8187,4.8187,4.8248,4.8267,4.8267,4.8267,4.8151,4.7992,4.7992,4.7992,4.8012,4.8148,4.8228,4.8287,4.8419,4.8513,4.855,4.8569,4.8587,4.8623,4.8769,4.8821,4.8909,4.905,4.9133,4.9181,4.9197,4.9197,4.9211,4.9292,4.9292,4.9355,4.9544,4.9574,4.9619,4.975,4.9778,4.9792,4.9792,4.9912,4.9954,4.9878,4.9943,4.998,4.9959,4.9272,4.8495,4.7712,4.6963,4.6192,4.5398,4.539,4.5419,4.5485,4.5495,4.5522,5.1025,5.0719,5.0481,5.0397,5.0235,5.008,4.9993,5.0011,5.0011,5.0011,4.9935,4.9889,4.9889,4.9848,4.9801,4.9801,4.9801,4.9801,4.9801,4.9801,4.9801,4.9801,4.8574,4.7745,4.7745,4.648,4.5658,4.5658,4.5693,4.571,4.5641,4.5693,4.5718,4.5718,4.5846,4.5998,4.613,4.6204,4.6326,4.6518,4.659,4.6708,4.6842,4.7043,4.7138,4.7187,4.7341,4.749,4.7636,4.7717,4.7824,4.7968,4.8046,4.8107,4.813,4.8228,4.8323,4.8381,4.8419,4.8457,4.8476,4.8476,4.842,4.8345,4.8305,4.8325,4.8364,4.842,4.8458,4.8476,4.855,4.8642,4.8715,4.8715,4.8804,4.891,4.8963,4.903,4.9115,4.9148,4.9181,4.9211,4.926,4.926,4.9308,4.9468,4.9483,4.9529,4.9634,4.9692,4.9764,4.9843,4.9857,4.9871,4.9912,5.0005,5.0082,5.0114,5.0158,5.0194,5.0267,4.9961,4.9182,4.79,4.7539,4.6729,4.539,4.5448,4.5466,4.5504,4.5531,4.5577,5.0873,5.061,5.0387,5.0359,5.0178,5.0011,5.0011,5.0011,5.0011,5.0011,5.0011,5.0011,5.0011,5.0011,5.0011,5.0011,5.0011,4.9993,5.0051,5.0051,5.008,5.0092,4.8827,4.7974,4.7974,4.6647,4.5838,4.5846,4.5897,4.5947,4.5972,4.6023,4.5998,4.5922,4.6048,4.6179,4.6308,4.6405,4.6542,4.6661,4.6795,4.6934,4.7066,4.7223,4.7356,4.7446,4.7554,4.7678,4.7804,4.7904,4.7968,4.807,4.8168,4.8226,4.8267,4.8086,4.807,4.8145,4.7905,4.785,4.7922,4.8162,4.8272,4.8346,4.8532,4.8587,4.8605,4.8605,4.8642,4.866,4.8678,4.8786,4.8894,4.8894,4.9015,4.9116,4.9116,4.9181,4.9228,4.9228,4.9262,4.9295,4.9358,4.939,4.9452,4.9574,4.9623,4.9648,4.9721,4.9792,4.9857,4.9925,4.9978,4.9986,5.0031,5.0095,5.0158,5.0188,5.0231,5.0267,5.0325,5.0325,4.9564,4.7965,4.7918,4.7106,4.5429,4.5495,4.5522,4.5522,4.5577,4.5594,5.0684,5.0492,5.0387,5.0246,5.0092,5.0011,5.0011,5.0011,5.0011,5.0011,5.0011,5.0011,5.0011,5.0011,5.0011,5.0011,5.0011,5.0051,5.0189,5.0189,5.0246,5.0387,4.904,4.81,4.81,4.6682,4.5846,4.5998,4.613,4.6259,4.6398,4.6518,4.6471,4.6211,4.6332,4.6471,4.659,4.659,4.6661,4.6795,4.6934,4.7066,4.7219,4.7421,4.7554,4.7699,4.784,4.7945,4.7992,4.7992,4.807,4.8187,4.8187,4.8304,4.8402,4.7592,4.7352,4.7294,4.6501,4.6207,4.6372,4.7147,4.7494,4.7749,4.8546,4.8715,4.8605,4.8605,4.8697,4.8822,4.8874,4.9015,4.9101,4.9101,4.915,4.9214,4.9214,4.926,4.9308,4.9308,4.9409,4.9509,4.9509,4.9548,4.9608,4.9608,4.9648,4.9721,4.9792,4.9857,4.992,5.0005,5.0114,5.0163,5.0108,5.017,5.02,5.02,5.0267,5.0325,5.0401,5.0401,4.965,4.8027,4.8,4.7165,4.5504,4.5568,4.5594,4.5594,4.5594,4.5594,5.0657,5.0492,5.0387,5.0246,5.0092,5.0011,5.0011,5.0011,5.0011,5.0011,5.0011,5.0011,5.0011,5.0063,5.0149,5.0149,5.0217,5.0274,5.0331,5.0331,5.0359,5.0369,4.9122,4.7893,4.7029,4.6484,4.6277,4.6398,4.6447,4.6495,4.6525,4.659,4.6566,4.6495,4.6501,4.659,4.6749,4.6749,4.6842,4.7066,4.7111,4.7223,4.7403,4.7572,4.7717,4.784,4.7927,4.803,4.813,4.8189,4.8286,4.84,4.8457,4.8513,4.8477,4.7665,4.7441,4.7418,4.655,4.6325,4.6466,4.6708,4.6799,4.6999,4.7816,4.8394,4.8803,4.8803,4.891,4.8998,4.9032,4.9116,4.9164,4.9164,4.923,4.9276,4.9276,4.9358,4.9443,4.9443,4.9502,4.9563,4.9563,4.9623,4.9678,4.9721,4.975,4.9821,4.9925,4.9965,4.9999,5.0114,5.0163,5.0188,5.0163,5.0243,5.029,5.0325,5.0367,5.0401,5.0468,4.9893,4.9071,4.8019,4.7463,4.6646,4.5568,4.5586,4.5594,4.5594,4.5594,4.5594,5.0592,5.0453,5.0359,5.0178,5.0051,5.0011,5.0011,5.0011,5.0011,5.0011,5.0051,5.008,5.008,5.0206,5.0274,5.0274,5.0359,5.0415,5.0481,5.0537,5.0365,4.9897,4.8828,4.7691,4.6577,4.6495,4.6518,4.659,4.6637,4.6684,4.6684,4.6772,4.6819,4.6819,4.6731,4.6754,4.6934,4.6934,4.7048,4.7245,4.729,4.7421,4.7593,4.7699,4.7863,4.8024,4.8068,4.8168,0.0,4.8362,4.8438,4.8532,4.8569,4.8642,4.8549,4.7403,4.7084,4.7023,4.5836,4.5479,4.5602,4.5937,4.6252,4.6603,4.7122,4.8086,4.8979,4.8979,4.9047,4.9133,4.9133,4.9181,4.9228,4.9228,4.9311,4.9374,4.9374,4.9456,4.9536,4.9536,4.9593,4.9653,4.9653,4.9692,4.975,4.9792,4.983,4.9898,4.9992,5.0038,5.012,5.0188,5.0212,5.0255,5.0278,5.0314,5.0367,5.0401,5.0424,5.0314,5.0071,4.9524,4.873,4.7616,4.7098,4.6443,4.5594,4.5594,4.5594,4.5594,4.5594,4.5594,0.0,5.0415,5.0331,5.008,5.0011,4.9993,4.9993,4.9993,0.0,5.004,5.012,5.0217,5.0217,5.0313,5.0415,5.0443,5.0443,5.0481,5.0612,5.0714,5.0277,4.9061,4.8254,4.7493,4.6684,4.6613,4.6637,4.6637,4.6754,4.6842,4.6842,4.7088,4.7219,4.7219,4.6957,4.6957,4.7201,4.7219,4.7209,4.723,4.736,4.7467,4.7536,4.7679,4.7842,4.8023,4.8097,4.8232,4.8421,4.8495,4.855,4.8605,4.8623,4.8715,4.8601,4.6933,4.639,4.6252,4.4581,4.4005,4.4135,4.4968,4.5767,4.6434,4.6496,4.7686,4.9008,4.9027,4.9094,4.9214,4.9214,4.926,4.9324,4.9324,4.9409,4.949,4.9509,4.9567,4.9589,4.9608,4.9663,4.9707,4.9707,4.9764,4.9807,4.9807,4.9912,5.0005,5.0018,5.0114,5.02,5.02,5.0267,5.0325,5.0401,5.0401,5.0412,5.0412,5.0478,5.0148,4.9345,4.9259,4.8472,4.6923,4.6827,4.6413,4.5594,4.5594,4.5594,4.5594,4.5594,4.5594,5.062,0.0,5.0359,5.0189,5.008,5.0022,0.0,5.0132,5.016,5.0274,5.0331,5.0341,5.0341,5.0464,5.0602,5.0684,5.0828,5.0981,5.1123,5.062,4.993,4.9015,4.8254,4.7523,4.682,4.6842,4.6934,4.7043,4.7138,4.7169,4.7169,4.7254,4.7276,4.7276,4.7209,4.7209,4.7276,4.7276,4.7036,4.6549,4.6672,4.6488,4.6028,4.6205,4.632,4.6413,4.7168,4.7537,4.7629,4.8402,4.8733,4.875,4.8821,4.8856,4.867,4.7055,4.6477,4.6252,4.4581,4.4005,4.4058,4.4361,4.4991,4.5658,4.5752,4.6858,4.8114,4.8217,4.8744,4.9276,4.9276,4.9358,4.944,4.944,4.9474,4.9505,4.9563,4.9593,4.9623,4.9663,4.9721,4.9778,4.9778,4.983,4.9885,4.9885,4.9952,5.0018,5.007,5.0158,5.0212,5.0278,5.0337,5.039,5.0401,5.0401,5.0446,5.0551,5.0572,5.0219,4.9413,4.8741,4.7914,4.6923,4.624,4.5806,4.5594,4.5594,4.5594,4.5594,4.5594,4.5594,5.0774,5.062,5.0453,5.0331,5.0235,5.0206,5.0274,5.0302,5.0302,5.0387,5.0453,5.0492,5.0575,5.0729,5.0865,5.0999,5.1123,5.1246,5.1376,5.0416,4.9603,4.9208,4.8229,4.7421,4.7066,4.7098,4.7183,4.7227,4.7276,4.7302,4.7302,4.7363,4.7385,4.7385,4.715,4.697,4.6827,4.6909,4.6615,4.5922,4.6041,4.5942,4.564,4.5753,4.5847,4.5975,4.6507,4.6781,4.6906,4.7863,4.8284,4.8371,4.8813,4.9013,4.8824,4.7204,4.6589,4.6347,4.4724,4.4147,4.4147,4.4211,4.4543,4.4912,4.4983,4.5847,4.6881,4.7324,4.7832,4.8231,4.8231,4.8314,4.8457,4.8814,4.8938,4.9078,4.9499,4.9653,4.9692,4.9736,4.9807,4.9843,4.9843,4.9885,4.9912,4.9933,5.0005,5.007,5.0145,5.02,5.0278,5.0337,5.039,5.0424,5.0478,5.0489,5.0511,5.0593,5.0258,4.9673,4.8836,4.8009,4.7163,4.6317,4.5845,4.5594,4.5594,4.5594,4.5594,4.5594,4.5594,4.5594,5.0891,5.0862,5.0742,5.0471,5.0415,5.0415,5.0443,5.0425,5.0471,5.0499,5.0592,5.0712,5.0847,5.1017,5.1185,5.135,5.1402,5.1426,5.1421,5.0238,4.9353,4.9364,4.8151,4.7302,4.7302,4.7302,4.7341,4.7341,4.7363,4.7363,4.7363,4.749,4.75,4.7373,4.6948,4.6497,4.6003,4.625,4.6025,4.5323,4.5419,4.5441,4.5425,4.5462,4.5571,4.5733,4.5879,0.0,4.6194,4.708,4.759,4.7891,4.8636,4.9038,4.9008,4.746,4.6807,4.647,4.4845,4.43,4.43,4.4314,4.4314,4.4329,4.4383,4.4899,4.5577,4.627,4.6709,4.7012,4.7012,4.7012,4.7162,4.7871,4.8081,4.8351,4.9261,4.9551,4.9655,4.9802,4.9857,4.9912,4.9912,4.9912,4.9906,4.9992,5.0057,5.0133,5.0188,5.0267,5.0325,5.0401,5.0412,5.0468,5.0593,5.0603,5.0613,5.0613,4.9846,4.8952,4.7971,4.7124,4.6355,4.5614,4.5594,4.5594,4.5594,4.5594,4.5594,4.5594,4.5594,4.5594,5.0891,5.132,5.158,5.0759,5.0464,5.0425,5.0547,5.0575,5.063,5.0927,5.1025,5.1061,5.1202,5.1255,5.135,5.1589,5.1815,5.1754,5.109,5.0216,4.9395,4.8731,4.7855,4.7302,4.7302,4.7407,4.7468,4.7468,4.7575,4.7636,4.7636,4.7759,4.7531,4.6842,4.6799,4.611,4.4706,4.5399,4.5345,4.4563,4.4674,4.4419,4.3778,4.39,4.3951,4.4039,0.0,4.5271,4.536,4.6359,4.7169,4.7816,4.8068,4.8583,4.9102,4.8149,4.733,4.647,4.4845,4.43,4.4314,4.4373,4.4383,4.4397,4.4454,4.4562,4.4693,4.4824,4.589,4.7012,4.7012,4.7012,4.7045,4.7235,4.7282,4.7551,4.8527,4.8758,4.9007,4.9738,4.9898,4.9912,4.9912,4.9912,4.9906,4.9992,5.0057,5.0133,5.0188,5.0267,5.0325,5.0401,5.0457,5.0511,5.0593,5.0643,5.0673,5.0673,4.9875,4.8702,4.7154,4.6259,4.5748,4.5594,4.5594,4.5594,4.5594,4.5594,4.5594,4.5594,4.5594,4.5594,5.1114,5.1679,5.2172,5.1721,5.1497,5.1425,5.1606,5.1298,5.1026,5.1167,5.1193,5.1272,5.1462,5.1513,5.1589,5.1864,5.2011,5.1814,5.1005,5.0261,4.9537,4.881,4.8081,4.7639,4.7666,4.7747,4.7767,4.7767,4.7827,4.7868,4.7868,4.7527,4.7146,4.6764,4.6005,4.5259,4.4528,4.4528,4.4309,4.3853,4.396,4.383,4.3497,4.3565,4.3649,4.3786,0.0,4.4501,4.4671,4.5568,4.6485,4.7364,4.7863,4.8602,4.9268,4.8425,4.7582,4.6686,4.5484,4.5053,4.4978,4.459,4.444,4.4473,4.4501,4.4501,4.4515,4.4537,4.5087,4.566,4.5684,4.5698,4.5843,4.6379,4.6533,4.6927,4.8285,4.8624,4.8891,4.9746,4.9912,4.9912,4.9912,4.9912,4.9906,4.9992,5.0057,5.0133,5.0188,5.0267,5.0325,5.0401,5.0468,5.0521,5.0593,5.0653,5.0308,4.9356,4.8913,4.7952,4.6259,4.5806,4.5594,4.5594,4.5594,4.5594,4.5594,4.5594,4.5594,4.5594,4.5594,4.5594,5.1298,5.1865,5.2493,5.2573,5.2422,5.2297,5.2467,5.1917,5.135,5.1402,5.1428,5.1513,5.174,5.184,5.1938,5.2174,5.2083,5.1692,5.0898,5.0195,4.9488,4.8777,4.8245,4.7927,4.7992,4.7992,4.7992,4.7992,4.7992,4.7919,4.7718,4.7154,4.6662,4.6297,4.5224,4.4564,4.4363,4.3879,4.3566,4.3446,4.3532,4.36,4.3651,4.3649,4.3749,4.3897,4.3913,4.4026,4.4255,4.4885,4.5723,4.6686,4.7525,4.8524,4.9408,4.8559,4.7859,4.722,4.6356,4.5923,4.5679,4.5059,4.4706,4.4556,4.4556,4.4556,4.457,4.4605,4.4578,4.457,4.4605,4.4619,4.4815,4.5536,4.591,4.6511,4.8005,4.8513,4.8945,4.9741,4.9912,4.9912,4.9912,4.9912,4.9906,4.9992,5.0057,5.0133,5.0188,5.0267,5.0325,5.0401,5.0468,5.0532,5.0613,5.0663,5.0029,4.8509,4.8221,4.7432,4.597,4.571,4.5594,4.5594,4.5594,4.5594,4.5594,4.5594,4.5594,4.5594,4.5594,4.5594,5.1298,5.1847,5.2484,5.279,5.266,5.2493,5.2493,5.197,5.1531,5.1658,5.1783,5.1907,5.2036,5.2269,5.2452,5.2475,5.1986,5.1377,5.0554,4.9755,4.8953,4.8154,4.8028,4.7992,4.7992,4.7992,4.7992,4.7992,4.7992,4.7664,4.6934,4.6939,4.6302,4.4803,4.4782,4.4428,4.3692,4.3756,4.3719,4.36,4.3719,4.3788,4.3788,4.3851,4.3899,4.3897,4.3976,4.407,4.4199,4.433,4.489,4.5802,4.6723,4.8108,4.9495,4.8687,4.8343,4.8174,4.7358,4.6598,4.5962,4.5906,4.534,4.4685,4.4685,4.4685,4.4699,4.4699,4.4699,4.4699,4.4699,4.4699,4.4731,4.4865,4.5514,4.6353,4.7289,4.8136,4.8945,4.9741,4.9912,4.9912,4.9912,4.9912,4.9906,4.9992,5.0057,5.0133,5.0188,5.0267,5.0325,5.0401,5.0468,5.0553,5.0673,5.0702,5.0308,4.9375,4.8548,4.7721,4.6836,4.6028,4.5594,4.5594,4.5594,4.5594,4.5594,4.5594,4.5594,4.5594,4.5594,4.5594,5.179,5.2362,5.2995,5.3114,5.3064,5.3013,5.3013,5.2412,5.1907,5.1956,5.2005,5.2102,5.2317,5.2531,5.2526,5.2017,5.1737,5.1146,4.9852,4.9396,4.8924,4.8219,4.811,4.813,4.819,4.819,4.7988,4.7475,4.7438,4.7072,4.6286,4.581,4.5315,4.4726,4.4282,4.3945,4.3719,4.3818,4.3851,4.3783,4.3804,4.382,4.3867,4.3899,4.3929,4.3976,4.4089,4.418,4.4274,4.4344,4.4884,4.5819,4.7243,4.8528,4.957,4.9305,4.9202,4.9089,4.824,4.7749,4.7409,4.6914,4.6523,4.624,4.624,4.59,4.5517,4.5557,4.557,4.5457,4.4909,4.5154,4.5583,4.566,4.6297,4.7143,4.8022,4.8471,4.8945,4.9741,4.9912,4.9912,4.9912,4.9912,4.9912,4.992,5.0031,5.0108,5.0133,5.0243,5.0314,5.0344,5.0446,5.0532,5.0623,5.0692,5.0558,5.0231,4.9394,4.8529,4.7682,4.7336,4.6913,4.6413,4.6413,4.6144,4.5594,4.5594,4.5594,4.5594,4.5594,4.5631,5.2102,5.2546,5.2984,5.3051,5.3057,5.3087,5.3135,5.2672,5.2222,5.2222,5.2275,5.2369,5.2572,5.2735,5.2594,5.1773,5.149,5.0911,4.9539,4.9159,4.8832,4.8358,4.8285,4.8304,4.8287,4.8086,4.7681,4.7131,4.6856,4.6379,4.5589,4.502,4.4651,4.4497,4.3961,4.3734,4.3837,4.3915,4.3929,4.3929,4.3899,4.3899,4.3929,4.3929,4.3976,4.407,4.4169,4.4259,4.4344,4.4368,4.5092,4.6262,4.7481,4.8654,4.9663,4.975,4.9745,4.967,4.9084,4.8706,4.8404,4.7851,4.7492,4.7265,4.7265,4.6887,4.6452,4.6505,4.6518,4.6366,4.578,4.6063,4.6531,4.6569,4.7207,4.7978,4.8566,4.8907,4.9248,4.9798,4.9912,4.9912,4.9912,4.9912,4.9912,4.9912,4.9999,5.0095,5.0095,5.0219,5.0302,5.0325,5.0404,5.05,5.0553,5.0633,5.0663,5.0663,5.0135,4.9413,4.8548,4.8259,4.7836,4.7298,4.7019,4.6605,4.6009,4.5729,4.5594,4.5594,4.5594,4.564,5.2126,5.2204,5.2322,5.2475,5.2536,5.2654,5.2761,5.2663,5.2498,5.2498,5.2667,5.2806,5.2806,5.2915,5.2743,5.1938,5.1279,5.061,4.9802,4.9067,4.8569,4.8513,4.8494,4.8457,4.8288,4.7553,4.7094,4.7076,4.6342,4.5571,4.4832,4.4776,4.4497,4.3822,4.3867,4.3897,4.3897,4.3958,4.4005,4.4005,4.4005,4.4005,4.4005,4.4005,4.407,4.4199,4.4199,4.4289,4.4397,4.4397,4.5472,4.7099,4.7169,4.8258,4.9788,4.9885,4.9912,4.9912,4.9912,4.9381,4.8717,4.8717,4.813,4.7416,4.7416,4.7416,4.7397,4.7397,4.7397,4.7397,4.7397,4.7416,4.7416,4.7397,4.8079,4.8717,4.8717,4.9343,4.9912,4.9912,4.9912,4.9912,4.9912,4.9912,4.9912,4.9912,4.9999,5.0095,5.0108,5.0219,5.0325,5.0401,5.0401,5.0435,5.05,5.0572,5.0603,5.0603,5.0653,5.0298,4.9452,4.8586,4.8125,4.8105,4.7317,4.6904,4.6904,4.6028,4.5594,4.5594,4.5594,4.564,5.2559,5.2627,5.2649,5.2712,5.2717,5.2783,5.2893,5.2824,5.2712,5.2712,5.2912,5.3085,5.3085,5.3233,5.2897,5.1534,5.1149,5.0543,4.9122,4.8753,4.8587,4.8569,4.8071,4.7702,4.7666,4.6929,4.6229,4.5675,4.5398,4.4918,4.4142,4.4105,4.4044,4.3867,4.3899,4.3929,4.3958,4.3989,4.4055,4.4135,4.4135,4.4135,4.4135,4.4135,4.418,4.427,4.4314,4.4354,4.4397,4.444,4.5143,4.6257,4.6943,4.7918,4.9031,4.9676,4.9912,4.9912,4.9912,4.9741,4.9551,4.9551,4.9381,4.9172,4.9172,4.8755,4.8319,4.8319,4.8319,4.8319,4.8319,4.8736,4.9021,4.8452,4.8945,4.9551,4.9551,4.9741,4.9912,4.9912,4.9912,4.9912,4.9912,4.9912,4.9912,4.9912,4.9999,5.0133,5.0231,5.0278,5.0302,5.0325,5.0359,5.0412,5.0435,5.0489,5.0542,5.0593,5.0613,5.0528,5.0317,5.0067,4.9644,4.9029,4.8182,4.7471,4.6904,4.6028,4.5594,4.5594,4.5648,4.5682,5.2783,5.289,5.2955,5.2955,5.3023,5.3109,5.3172,5.3088,5.3023,5.3066,5.3212,5.3316,5.3316,5.3418,5.2964,5.1357,5.1118,5.0564,4.8918,4.8696,4.8714,4.8678,4.7975,4.7458,4.7423,4.6372,4.5523,4.5041,4.4709,4.4319,4.3872,4.3835,4.3867,4.3945,4.3945,4.3992,4.407,4.407,4.4135,4.4244,4.4244,4.4259,4.4289,4.4259,4.4289,4.4344,4.4416,4.4426,4.444,4.4487,4.504,4.5978,4.6862,4.778,4.8745,4.9581,4.9912,4.9912,4.9912,4.9912,4.9912,4.9912,4.9912,4.9912,4.9912,4.957,4.9159,4.9151,4.9138,4.9138,4.911,4.9456,4.9716,4.9292,4.9551,4.9912,4.9912,4.9912,4.9912,4.9912,4.9912,4.9912,4.9912,4.9912,4.9912,4.9912,4.9999,5.0145,5.0278,5.0302,5.0302,5.0302,5.0344,5.0348,5.0348,5.0424,5.0478,5.053,5.0551,5.0593,5.0653,5.0692,5.0462,4.9933,4.8721,4.7855,4.7375,4.6182,4.5594,4.5594,4.5676,4.5706,5.2831,5.3042,5.323,5.323,5.3378,5.3519,5.3519,5.344,5.34,5.3479,5.3519,5.3519,5.3519,5.3519,5.3003,5.1376,5.1175,5.0657,4.9045,4.8856,4.8855,4.873,4.7989,4.7417,4.7219,4.5797,4.491,4.491,4.4227,4.3835,4.3915,4.3913,4.3945,4.4005,4.4005,4.407,4.4199,4.4199,4.4244,4.4314,4.4314,4.4344,4.4397,4.4344,4.4358,4.4411,4.4468,4.4501,4.4501,4.4515,4.5062,4.597,4.6857,4.7764,4.8698,4.957,4.9912,4.9912,4.9912,4.9912,4.9912,4.9912,4.9912,4.9912,4.9912,4.9898,4.9885,4.9821,4.9792,4.9778,4.9707,4.9692,4.9736,4.9857,4.9898,4.9898,4.9912,4.9912,4.9912,4.9912,4.9912,4.9912,4.9912,4.9912,4.9893,4.9925,5.0031,5.0145,5.0278,5.0302,5.0302,5.0302,5.0302,5.0302,5.0302,5.0367,5.0401,5.0401,5.0457,5.0521,5.0593,5.0653,5.0683,5.0712,4.899,4.8105,4.8105,4.6413,4.5594,4.5594,4.5665,4.5706,5.3132,5.338,5.3439,5.3439,5.3558,5.3656,5.3656,5.3754,5.3774,5.3559,5.3578,5.3656,5.3656,5.3716,5.3198,5.1603,5.1343,5.0786,4.9097,4.8891,4.865,4.8002,4.7222,4.6479,4.5813,4.483,4.422,4.422,4.4035,4.3958,4.3974,4.3974,4.3989,4.4005,4.4104,4.4169,4.4199,4.4259,4.4314,4.4368,4.4368,4.4411,4.4487,4.4416,4.443,4.4487,4.4501,4.4501,4.4496,4.457,4.4745,4.5127,4.6685,4.7445,4.7851,4.9362,4.9912,4.9912,4.9912,4.9912,4.9912,4.9912,4.9912,4.9912,4.9912,4.9857,4.9821,4.9807,4.9764,4.9721,4.9692,4.9692,4.9707,4.9736,4.9792,4.9848,4.9898,4.9912,4.9912,4.9912,4.9912,4.9912,4.9912,4.9912,4.9939,5.0044,5.0082,5.0145,5.0278,5.0302,5.0302,5.0302,5.0302,5.0302,5.0302,5.0314,5.0337,5.0401,5.0412,5.0457,5.0521,5.0593,5.0643,5.0712,4.899,4.8105,4.8105,4.6413,4.5594,4.5594,4.5679,4.57,5.2685,5.3006,5.3177,5.3663,5.3851,5.3907,5.3907,5.3963,5.4,5.3813,5.3851,5.3907,5.3907,5.3926,5.3423,5.1765,5.1469,5.0875,4.9238,4.8926,4.8612,4.7794,4.6995,4.6178,4.5379,4.4506,4.4005,4.4005,4.4005,4.4005,4.4005,4.4005,4.402,4.4085,4.415,4.4229,4.4285,4.4329,4.4368,4.4458,4.4458,4.4473,4.4501,4.4454,4.4473,4.4501,4.4501,4.4528,4.4537,4.4578,4.4659,4.4915,4.6636,4.7345,4.7605,4.9286,4.9912,4.9912,4.9912,4.9912,4.9912,4.9912,4.9912,4.9879,4.9857,4.9835,4.9792,4.9721,4.9678,4.9634,4.9608,4.9593,4.9608,4.9634,4.9721,4.9821,4.9843,4.9885,4.9912,4.9912,4.9912,4.9912,4.9912,4.9912,4.992,5.0044,5.0082,5.0145,5.0243,5.0278,5.0302,5.0302,5.0302,5.0302,5.0302,5.0302,5.0314,5.0348,5.0348,5.0371,5.0457,5.0478,5.035,5.0048,4.876,4.7913,4.7528,4.622,4.5594,4.5594,4.5662,4.5695,5.1952,5.24,5.2884,5.3849,5.4109,5.4109,5.4109,5.4109,5.4127,5.4127,5.4109,5.4109,5.4109,5.4109,5.3549,5.1868,5.1537,5.0944,4.9325,4.8996,4.8573,4.7608,4.6903,4.6122,4.5157,4.4413,4.4005,4.4005,4.4005,4.4005,4.4005,4.4005,4.407,4.4184,4.4199,4.4289,4.4397,4.4411,4.4458,4.4501,4.4501,4.4501,4.4501,4.4501,4.4501,4.4501,4.4515,4.4556,4.4605,4.4619,4.4712,4.4947,4.6511,4.7244,4.7586,4.9134,4.9779,4.9912,4.9912,4.9912,4.9912,4.9912,4.9898,4.9871,4.9821,4.9792,4.9736,4.9619,4.9593,4.9563,4.9505,4.9509,4.9505,4.9563,4.9697,4.9792,4.9792,4.9843,4.9885,4.9912,4.9912,4.9912,4.9912,4.9912,4.9906,4.9992,5.0057,5.012,5.0188,5.0255,5.029,5.0302,5.0302,5.0302,5.0302,5.0302,5.0302,5.0302,5.0302,5.0325,5.039,5.0401,5.0054,4.9305,4.8481,4.7692,4.6904,4.6028,4.5594,4.5594,4.5676,4.5682,5.1359,5.223,5.3065,5.3885,5.4109,5.4109,5.4109,5.42,5.4272,5.4272,5.4163,5.4109,5.4109,5.4109,5.3549,5.1868,5.1589,5.0995,4.9325,4.9084,4.8474,4.6863,4.6568,4.5881,4.4321,4.4079,4.4005,4.4005,4.4005,4.4005,4.4005,4.4005,4.407,4.4184,4.4259,4.4329,4.4397,4.4473,4.4501,4.4501,4.4501,4.4501,4.4501,4.4501,4.4501,4.4501,4.4551,4.4592,4.4605,4.4738,4.477,4.489,4.5937,4.679,4.751,4.8509,4.9305,4.9912,4.9912,4.9912,4.9912,4.9912,4.9857,4.9821,4.9807,4.9721,4.9619,4.9608,4.9567,4.9505,4.949,4.9509,4.949,4.9505,4.9608,4.9721,4.9792,4.9807,4.9816,4.9898,4.9912,4.9912,4.9912,4.9912,4.9906,4.9992,5.0018,5.007,5.0175,5.02,5.0243,5.029,5.0302,5.0302,5.0302,5.0302,5.0302,5.0302,5.0302,5.0302,5.0314,5.0379,5.0033,4.9235,4.8413,4.7655,4.6904,4.6028,4.5594,4.5594,4.5676,4.5662,5.0732,5.1959,5.3058,5.3501,5.3913,5.4269,5.4269,5.4304,5.4359,5.4359,5.4323,5.4269,5.4269,5.3912,5.3183,5.1984,5.1353,5.0594,4.9316,4.9116,4.8453,4.6715,4.6494,4.5844,4.4153,4.4005,4.4005,4.4005,4.4005,4.4005,4.4005,4.4005,4.4085,4.4259,4.4285,4.4358,4.4458,4.4487,4.4501,4.4501,4.4501,4.4501,4.4501,4.4501,4.4528,4.457,4.4578,4.4646,4.4725,4.4789,4.4821,4.4953,4.5849,4.6676,4.751,4.8376,4.921,4.9912,4.9912,4.9912,4.9912,4.9912,4.9857,4.9792,4.975,4.9678,4.9593,4.9548,4.9521,4.9509,4.9509,4.9509,4.9509,4.9509,4.9563,4.9663,4.9721,4.9788,4.9857,4.9879,4.9912,4.9912,4.9912,4.9912,4.9912,4.9952,4.9978,5.0031,5.0076,5.0114,5.0158,5.0182,5.0194,5.0207,5.0243,5.0236,5.0267,5.0302,5.0302,5.0302,5.0302,5.0325,4.9881,4.8941,4.8643,4.8049,4.7124,4.6095,4.5594,4.5594,4.5631,4.562,5.0317,5.1528,5.2519,5.2862,5.3536,5.4157,5.4157,5.4326,5.4476,5.4424,5.4424,5.4368,5.4127,5.3599,5.2923,5.2043,5.1188,5.0282,4.9342,4.9166,4.8487,4.6715,4.6494,4.5844,4.4153,4.4005,4.4005,4.4005,4.4005,4.4005,4.4005,4.4005,4.4082,4.4285,4.43,4.4373,4.4501,4.4501,4.4501,4.4501,4.4501,4.4501,4.4501,4.4501,4.4556,4.4619,4.4619,4.4699,4.4796,4.4827,4.4846,4.4952,4.5615,4.6506,4.7472,4.813,4.9021,4.9912,4.9912,4.9912,4.9912,4.9912,4.9843,4.9764,4.9707,4.9653,4.9563,4.9505,4.9509,4.9509,4.9509,4.9509,4.949,4.9521,4.9578,4.9634,4.9707,4.9816,4.9912,4.9912,4.9912,4.9912,4.9912,4.9912,4.9912,4.9912,4.9933,4.9992,5.0005,5.0044,5.0082,5.0095,5.0095,5.012,5.0163,5.0188,5.0212,5.0278,5.029,5.0302,5.0302,5.0302,4.9924,4.9157,4.9227,4.8472,4.6866,4.6231,4.5825,4.5594,4.5594,4.5594,5.0303,5.0857,5.1117,5.2039,5.2865,5.345,5.345,5.4088,5.4641,5.4522,5.4486,5.4228,5.3409,5.3224,5.2923,5.2043,5.1217,5.0343,4.9342,4.9197,4.8516,4.6713,4.6494,4.5844,4.4153,4.4005,4.4005,4.4005,4.4005,4.4005,4.4005,4.4005,4.4082,4.4285,4.43,4.4373,4.4501,4.4501,4.4501,4.4501,4.4501,4.4501,4.4501,4.4501,4.4565,4.468,4.468,4.4719,4.4796,4.4858,4.4895,4.4895,4.4952,4.5956,4.7397,4.7453,4.8509,4.9912,4.9912,4.9912,4.9912,4.9912,4.9802,4.9707,4.9692,4.9608,4.949,4.9509,4.9509,4.9509,4.9509,4.9509,4.9505,4.9578,4.9653,4.9707,4.9778,4.9843,4.9912,4.9912,4.9912,4.9912,4.9912,4.9912,4.9912,4.9912,4.9893,4.9939,5.0005,5.0005,5.0031,5.0095,5.0095,5.0108,5.0108,5.0151,5.02,5.02,5.0248,5.0302,5.0302,5.0302,5.0306,5.0306,5.0317,4.8796,4.5688,4.6454,4.6413,4.5594,4.5594,4.5594,4.9013,5.0,5.0949,5.1281,5.2013,5.2635,5.2635,5.2862,5.3073,5.2905,5.2889,5.2798,5.2435,5.2362,5.2081,5.1255,5.0447,4.9762,4.9267,4.9214,4.8719,4.7421,4.681,4.6067,4.4934,4.4321,4.4005,4.4005,4.4005,4.4005,4.4005,4.4005,4.4082,4.4285,4.43,4.4373,4.4501,4.4501,4.4501,4.4501,4.4501,4.4501,4.4501,4.4501,4.4537,4.4632,4.4685,4.4757,4.4877,4.4883,4.4895,4.4895,4.4895,4.5918,4.7397,4.7397,4.8471,4.9912,4.9912,4.9912,4.9898,4.9843,4.9759,4.9692,4.9648,4.9563,4.9509,4.9509,4.9509,4.9509,4.9509,4.9509,4.9521,4.9653,4.9707,4.9792,4.9843,4.9885,4.9912,4.9912,4.9912,4.9912,4.9912,4.9912,4.9912,4.9912,4.9912,4.9912,4.992,4.9939,4.9952,4.9978,4.9978,5.0011,5.0101,5.0127,5.0158,5.0264,5.0288,5.0305,5.0302,5.0302,5.0314,5.0344,5.0385,4.9906,4.8865,4.6982,4.6279,4.6672,4.5941,4.5594,4.7853,4.9003,5.0118,5.0147,5.103,5.1861,5.1861,5.2069,5.2228,5.2087,5.2071,5.1946,5.1571,5.1499,5.1311,5.0801,5.0,4.9377,4.923,4.9181,4.88,4.7811,4.7237,4.6475,4.5398,4.4785,4.4321,4.4023,4.4005,4.4005,4.4005,4.4005,4.4082,4.4285,4.4344,4.4416,4.4501,4.4501,4.4501,4.4501,4.4501,4.4501,4.4501,4.4501,4.4542,4.4605,4.4646,4.4732,4.4858,4.4883,4.4895,4.4895,4.4895,4.5918,4.7397,4.7397,4.8471,4.9912,4.9912,4.9912,4.9898,4.9835,4.975,4.9678,4.9623,4.9548,4.9509,4.9509,4.9509,4.9509,4.9509,4.9536,4.9578,4.9682,4.9778,4.9843,4.9898,4.9912,4.9912,4.9912,4.9912,4.9912,4.9912,4.9912,4.9912,4.9912,4.9912,4.9912,4.9912,4.9912,4.9912,4.9912,4.9912,4.9944,5.0035,5.003,5.0095,5.0227,5.0283,5.03,5.0302,5.0302,5.0302,5.0302,5.0379,5.0476,5.0591,4.8068,4.6944,4.7106,4.6385,4.5874,0.0,0.0,0.0,4.8634,4.9879,5.1078,5.1116,5.1722,5.2247,5.2156,5.2126,5.1835,5.0836,5.067,5.067,5.067,4.9896,4.9276,4.9195,4.9133,4.877,4.7848,4.7701,4.7088,4.5509,4.5324,4.4952,4.4098,4.4005,4.4005,4.4005,4.4005,4.4101,4.4285,4.443,4.4501,4.4501,4.4501,4.4501,4.4501,4.4501,4.4501,4.4501,4.4501,4.4542,4.4592,4.4592,4.4672,4.4796,4.4858,4.4895,4.4895,4.4895,4.5918,4.7397,4.7397,4.8471,4.9912,4.9912,4.9912,4.9898,4.9821,4.975,4.9678,4.9623,4.9548,4.9509,4.9509,4.9509,4.9509,4.9509,4.9593,4.9692,4.9692,4.9788,4.9879,4.9879,4.9879,4.9898,4.9912,4.9912,4.9912,4.9912,4.9912,4.9912,4.9912,4.9912,4.9912,4.9912,4.9912,4.9912,4.9912,4.9912,4.9912,4.9912,4.9908,4.9974,5.0095,5.0227,5.03,5.0302,5.0302,5.0302,5.0302,5.0359,5.0401,5.0401,4.9648,4.8461,4.6868,4.6886,4.6423,4.6245,0.0,0.0,0.0,0.0,0.0,4.9254,4.9535,4.9788,5.0292,5.0346,5.0229,4.9881,4.9828,4.9828,4.9828,4.954,4.9276,4.9195,4.9133,4.8974,4.8612,4.8054,4.7534,4.707,4.5974,4.5194,4.4952,4.4358,4.4005,4.4005,4.4085,4.4165,4.4229,4.4358,4.4426,4.4426,4.4487,4.4501,4.4501,4.4501,4.4501,4.4501,4.4501,4.4515,4.4542,4.4578,4.4619,4.4672,4.477,4.4821,4.4821,4.487,4.5918,4.7397,4.7397,4.8471,4.9912,4.9912,4.9912,4.9885,4.9764,4.9707,4.9682,4.9567,4.9505,4.9509,4.9509,4.9509,4.9509,4.9509,4.9548,4.9638,4.9638,4.9692,4.9764,4.9764,4.9764,4.9774,4.9885,4.9912,4.9912,4.9912,4.9912,4.9912,4.9912,4.9912,4.9912,4.9912,4.9912,4.9912,4.9912,4.9912,4.9912,4.9912,4.9906,4.9965,5.0088,5.0171,5.0227,5.0231,5.0278,5.0302,5.0302,5.0314,5.0325,5.0325,4.9595,4.8977,4.8507,4.7309,4.6283,4.5413,4.6065,4.6773,4.6813,0.0,0.0,4.7961,4.8034,4.8131,4.8532,4.8847,4.9051,4.8961,4.9246,4.9474,4.9424,4.9327,4.9244,4.9214,4.9098,4.8979,4.8909,4.8466,4.804,4.7687,4.6815,4.598,4.5275,4.4806,4.4376,4.4023,4.4119,4.4199,4.4199,4.43,4.4368,4.4397,4.4426,4.4468,4.4501,4.4501,4.4501,4.4501,4.4501,4.4501,4.4501,4.4537,4.457,4.4565,4.4672,4.4719,4.4757,4.4821,4.5881,4.7358,4.7397,4.8471,4.9912,4.9912,4.9912,4.9885,4.975,4.9692,4.9663,4.9536,4.9509,4.9509,4.9509,4.9521,4.9551,4.9551,4.9593,4.9619,4.9623,4.9648,4.9692,4.9692,4.9692,4.9721,4.9802,4.9816,4.9816,4.9816,4.9835,4.9853,4.9853,4.9853,4.9853,4.9853,4.9881,4.9895,4.9895,4.9903,4.9912,4.9912,4.9912,4.9958,5.0043,5.0082,5.0146,5.0207,5.0243,5.0278,5.0302,5.0302,5.0302,5.0302,4.9896,4.9529,4.9147,4.749,4.6435,4.446,4.5004,4.5598,4.5693,4.6272,0.0,4.7027,4.7051,4.7075,4.7099,4.7654,4.8152,4.8063,4.8686,4.9199,4.9158,4.9097,4.9085,4.9179,4.9029,4.8909,4.8891,4.884,4.8509,4.7787,4.7638,4.6917,4.5344,4.5166,4.4822,4.4042,4.4119,4.4184,4.4184,4.424,4.4314,4.4368,4.4383,4.4426,4.4501,4.4501,4.4501,4.4501,4.4501,4.4501,4.4501,4.4501,4.4501,4.4496,4.4565,4.4632,4.4699,4.4757,4.5817,4.7305,4.7371,4.8471,4.9912,4.9912,4.9912,4.9885,4.975,4.9692,4.9663,4.9536,4.9509,4.9505,4.9521,4.9567,4.9608,4.9608,4.9653,4.9648,4.9608,4.9619,4.9682,4.9682,4.9682,4.9682,4.9682,4.9697,4.9711,4.9711,4.9763,4.9782,4.9782,4.9782,4.9782,4.9782,4.984,4.9868,4.9882,4.9895,4.9898,4.9912,4.9912,4.9939,4.9992,5.0005,5.0038,5.0163,5.0175,5.0231,5.029,5.0302,5.0302,5.0302,5.0348,4.9983,4.9156,4.7661,4.6914,4.36,4.3263,4.3044,4.3806,4.4102,0.0,4.5932,4.6142,4.6271,4.6953,4.7178,4.7237,4.7181,4.7297,4.7585,4.8162,4.814,4.8317,4.9006,4.8996,4.8874,4.8822,4.8804,4.8695,4.842,4.7829,4.7034,4.6073,4.4846,4.4112,4.4005,4.402,4.4036,4.4036,4.415,4.4229,4.4244,4.4358,4.4397,4.4411,4.4468,4.4501,4.4501,4.4501,4.4501,4.4501,4.4501,4.4501,4.4501,4.4496,4.4551,4.4632,4.4745,4.5817,4.7305,4.7371,4.8471,4.9912,4.9912,4.9912,4.9885,4.975,4.9692,4.9663,4.9536,4.9536,4.9593,4.9653,4.9619,4.9608,4.9608,4.9563,4.9536,4.9521,4.9521,4.9536,4.9536,4.9536,4.9536,4.9536,4.9661,4.9782,4.9782,4.9692,4.9636,4.9636,4.9636,4.9636,4.9636,4.965,4.9698,4.9811,4.9821,4.983,4.9898,4.9912,4.9912,4.9925,4.9978,5.0018,5.0044,5.0095,5.0158,5.0231,5.0278,5.0302,5.0302,5.0314,4.9905,4.9124,4.8769,4.8253,4.261,4.2337,4.2125,4.2635,4.2742,0.0,0.0,4.4296,4.4683,4.5073,4.5762,4.6266,4.621,4.6532,4.6909,4.726,4.722,4.7436,4.8238,4.8651,4.884,4.8804,4.8697,4.8624,4.855,4.8182,4.7462,4.6297,4.4742,4.3883,4.3961,4.3961,4.3976,4.4005,4.407,4.4135,4.4199,4.4274,4.4344,4.4397,4.4426,4.4473,4.4501,4.4501,4.4501,4.4501,4.4501,4.4501,4.4501,4.4501,4.4528,4.4551,4.4699,4.5765,4.7265,4.7358,4.8471,4.9912,4.9912,4.9912,4.9885,4.9792,4.975,4.9721,4.9623,4.9623,4.9663,4.9721,4.9692,4.9648,4.9648,4.9608,4.9551,4.9524,4.9509,4.9509,4.9509,4.9509,4.9509,4.9509,4.957,4.9649,4.9649,4.9593,4.9555,4.9555,4.9555,4.9555,4.9555,4.9581,4.963,4.9692,4.9764,4.9821,4.9843,4.9885,4.9912,4.9912,4.954,4.9371,4.9397,4.9017,4.8839,4.8893,4.9391,4.9656,4.9656,5.0099,5.0092,4.9691,4.9289,4.8869,4.1627,4.1542,4.148,4.167,4.1721,4.1777,0.0,0.0,0.0,4.2941,4.4088,4.5069,4.5013,4.5637,4.6203,4.6294,4.6234,4.6483,4.7214,4.8011,4.8567,4.8715,4.8587,4.8494,4.8457,4.8181,4.7482,4.6262,4.4675,4.3786,4.3883,4.3881,4.3929,4.3974,4.3989,4.4055,4.4169,4.4184,4.4274,4.4368,4.4397,4.4444,4.4501,4.4501,4.4501,4.4501,4.4501,4.4501,4.4501,4.4501,4.4501,4.4515,4.4646,4.5712,4.7211,4.7345,4.8471,4.9912,4.9912,4.9912,4.9898,4.9835,4.9792,4.9778,4.9736,4.9721,4.9736,4.9807,4.9764,4.9692,4.9692,4.9653,4.9563,4.9505,4.9509,4.9509,4.9509,4.9509,4.9509,4.9509,4.9509,4.9509,4.9509,4.9509,4.9509,4.9509,4.9509,4.9509,4.9509,4.9551,4.9593,4.9608,4.9692,4.9764,4.9778,4.9843,4.9809,4.9657,4.9045,4.8636,4.8549,4.7878,4.7535,4.7577,4.8341,4.8815,4.8974,4.9701,5.0137,5.0283,4.9633,4.9328,4.0709,4.0227,3.9866,4.0576,4.0763,4.095,4.1656,0.0,4.1973,4.1959,0.0,4.3276,4.3208,0.0,0.0,4.5169,4.5199,4.5463,4.6241,4.7001,4.7721,4.8458,4.8513,4.8457,4.8325,4.704,4.6158,4.6119,4.4554,4.3667,4.3804,4.3867,4.3897,4.3913,4.3958,4.4005,4.402,4.4135,4.4244,4.4314,4.4368,4.4444,4.4501,4.4501,4.4501,4.4501,4.4501,4.4501,4.4501,4.4501,4.4501,4.4515,4.4646,4.5712,4.7211,4.7345,4.8471,4.9912,4.9912,4.9912,4.9898,4.9835,4.9764,4.9721,4.9778,4.9792,4.9807,4.9871,4.9788,4.9692,4.9692,4.9608,4.9505,4.949,4.9509,4.9509,4.9509,4.9509,4.9509,4.9509,4.9509,4.9509,4.9509,4.9509,4.9509,4.9509,4.9509,4.9509,4.9509,4.9509,4.9536,4.9593,4.9604,4.9653,4.9707,4.9778,4.9518,4.8785,4.8715,4.8357,4.758,4.753,4.7498,4.751,4.766,4.8134,4.8902,4.907,4.9549,5.0302,5.0206,5.0168,3.9658,3.9454,3.9322,3.9685,3.985,4.0002,4.032,4.0768,4.1077,4.0994,0.0,0.0,0.0,0.0,0.0,0.0,4.4251,4.446,4.5218,4.5552,4.625,4.7647,4.8124,4.8121,4.7587,4.6506,4.57,4.5313,4.4192,4.3565,4.3667,4.3718,4.3783,4.3915,4.3929,4.3958,4.4005,4.4055,4.4135,4.4244,4.4314,4.4387,4.444,4.4487,4.4501,4.4501,4.4501,4.4501,4.4501,4.4501,4.4501,4.4515,4.4605,4.569,4.7211,4.7305,4.8431,4.9912,4.9912,4.9912,4.9898,4.9871,4.983,4.9816,4.9843,4.9857,4.9857,4.9843,4.9759,4.9692,4.9648,4.9563,4.9509,4.9509,4.9509,4.9509,4.9509,4.9509,4.9509,4.9509,4.9509,4.9509,4.9509,4.9509,4.9509,4.9509,4.9509,4.9509,4.9509,4.9509,4.9505,4.9536,4.9578,4.9604,4.9634,4.9692,4.9377,4.8546,4.7683,4.6809,4.5975,4.5981,4.5987,4.5987,4.6541,4.7034,4.7395,4.8474,4.9182,4.9568,5.0061,5.0302,3.8939,3.8993,3.9045,3.912,3.9193,3.9266,3.9266,3.9713,4.01,4.002,4.0622,0.0,0.0,0.0,0.0,0.0,0.0,4.3682,4.4216,4.4437,4.5114,4.6654,4.722,4.7252,4.6686,4.5918,4.526,4.471,4.3939,4.3513,4.3565,4.3582,4.3666,4.3867,4.3899,4.3929,4.4005,4.4005,4.407,4.4199,4.4274,4.4344,4.4397,4.4473,4.4501,4.4501,4.4501,4.4501,4.4501,4.4501,4.4501,4.4496,4.4551,4.5504,4.6868,4.7189,4.8253,4.9608,4.9817,4.9912,4.9912,4.9912,4.9912,4.9912,4.9912,4.9912,4.9885,4.9821,4.975,4.9697,4.9623,4.9551,4.9509,4.9509,4.9509,4.9509,4.9509,4.9734,4.9918,4.9828,5.0016,5.015,5.0134,4.9793,4.9509,4.9509,4.9509,4.9509,4.9509,4.9509,4.9509,4.9509,4.9551,4.9563,4.9563,4.9619,4.9206,4.8145,4.6609,4.5483,4.4908,4.4883,4.4895,4.4895,4.5569,4.603,4.6277,4.7848,4.8746,4.8993,4.9885,5.0302,0.0,0.0,0.0,3.8925,0.0,0.0,3.8925,3.8943,3.8943,3.8947,3.959,4.0132,4.0093,0.0,0.0,0.0,0.0,0.0,0.0,4.3926,4.4728,4.5567,4.5677,4.5658,4.564,4.504,4.4638,4.4602,4.3922,4.3515,4.3496,4.3565,4.3667,4.3804,4.3867,4.3929,4.4005,4.4005,4.407,4.4199,4.4274,4.4344,4.4397,4.4473,4.4501,4.4501,4.4501,4.4501,4.4501,4.4501,4.4501,4.4501,4.4501,4.5082,4.6045,4.6968,4.7912,4.885,4.9627,4.9912,4.9912,4.9912,4.9912,4.9912,4.9912,4.9912,4.9885,4.9821,4.9788,4.9768,4.9623,4.9551,4.9509,4.9509,4.9509,4.9509,4.9509,5.0313,5.0967,5.0707,5.1292,5.1804,5.1742,5.0496,4.9509,4.9509,4.9509,4.9509,4.9509,4.9509,4.9509,4.9509,4.949,4.949,4.949,4.9563,4.8922,4.7334,4.5721,4.4833,4.4796,4.4877,4.4895,4.4895,4.4933,4.535,4.6215,4.7167,4.8083,4.8928,4.9861,5.0302,0.0,0.0,3.8634,3.8634,0.0,0.0,0.0,0.0,0.0,0.0,0.0,0.0,0.0,0.0,0.0,0.0,0.0,0.0,0.0,4.3286,4.3503,4.3775,4.4832,4.5325,4.4779,4.4526,4.4236,4.3852,4.3576,4.3464,4.3497,4.3565,4.3667,4.3788,4.3867,4.3929,4.4005,4.4005,4.402,4.407,4.418,4.4255,4.4344,4.4397,4.4473,4.4501,4.4501,4.4501,4.4501,4.4501,4.4501,4.4501,4.4501,4.4725,4.5221,4.6687,4.7826,4.8764,4.9614,4.9912,4.9912,4.9912,4.9912,4.9912,4.9912,4.9871,4.9835,4.9821,4.9734,4.9642,4.9551,4.9505,4.9509,4.9509,5.005,5.0501,5.0332,5.1008,5.1576,5.1455,5.1645,5.1799,5.1695,5.1245,5.07,5.0177,4.965,4.9329,4.9358,4.9374,4.9409,4.949,4.9509,4.9509,4.9509,4.8995,4.8472,4.7947,4.6374,4.5517,4.5647,4.5142,4.4846,4.4895,4.4895,4.5331,4.6203,4.7148,4.8045,4.8928,4.9861,5.0302,3.8302,3.8382,0.0,3.8462,3.851,0.0,3.8578,0.0,3.8478,0.0,0.0,0.0,0.0,0.0,0.0,0.0,0.0,0.0,0.0,4.2861,4.2805,4.2862,4.3862,4.4375,4.3848,4.3868,4.3724,4.3359,4.3358,4.3429,4.3497,4.3565,4.3667,4.3788,4.3867,4.3929,4.4005,4.4005,4.4005,4.4005,4.4135,4.4244,4.43,4.4368,4.4444,4.4501,4.4501,4.4501,4.4501,4.4501,4.4501,4.4501,4.4501,4.4528,4.4734,4.6232,4.7554,4.8745,4.9614,4.9912,4.9912,4.9912,4.9912,4.9898,4.989,4.9867,4.9816,4.9749,4.969,4.9612,4.9521,4.9771,5.0069,5.0069,5.0745,5.1327,5.1161,5.1729,5.2278,5.2229,5.2439,5.2574,5.2468,5.2208,5.1628,5.0561,4.9944,4.9548,4.9297,4.926,4.9311,4.9424,4.9424,4.9459,4.9509,4.8701,4.8224,4.825,4.7,4.6322,4.6456,4.5948,4.5716,4.5748,4.5773,4.607,4.662,4.7604,4.835,4.8928,4.9861,5.0302]}]]